Wetterdaten: Donnerstag, 18.05.2017
Datum Zeit Temp. A. Pool Temp. Feuchte A. Luftdruck Regen Wind Richtung Richtung Sonnenschein ET UV Solar Taupunkt Windchill Windben Empfang
18.05.2017 00:00 15,2 C 21,7 C 70 % 1015,5 hPa 0,0 l/m 11,2 km/h (2 Bft) NO 51 0 min 0,000 mm 0,0 UV-I 0 W/m 9,8 C 12,8 C 16,1 km/h (3 Bft) 94,34 %
18.05.2017 00:02 15,1 C 21,7 C 70 % 1015,4 hPa 0,0 l/m 8,6 km/h (2 Bft) O-NO 74 0 min 0,000 mm 0,0 UV-I 0 W/m 9,7 C 13,9 C 12,9 km/h (3 Bft) 91,43 %
18.05.2017 00:04 15,1 C 21,7 C 70 % 1015,4 hPa 0,0 l/m 9,5 km/h (2 Bft) O-NO 60 0 min 0,000 mm 0,0 UV-I 0 W/m 9,7 C 13,5 C 14,5 km/h (3 Bft) 94,00 %
18.05.2017 00:06 15,1 C 21,7 C 70 % 1015,4 hPa 0,0 l/m 9,8 km/h (2 Bft) NO 52 0 min 0,000 mm 0,0 UV-I 0 W/m 9,7 C 13,3 C 14,5 km/h (3 Bft) 97,73 %
18.05.2017 00:08 15,1 C 21,7 C 69 % 1015,4 hPa 0,0 l/m 11,7 km/h (2 Bft) O-NO 72 0 min 0,000 mm 0,0 UV-I 0 W/m 9,5 C 12,5 C 19,3 km/h (3 Bft) 96,00 %
18.05.2017 00:10 15,1 C 21,7 C 70 % 1015,4 hPa 0,0 l/m 10,0 km/h (2 Bft) O-NO 65 0 min 0,000 mm 0,0 UV-I 0 W/m 9,7 C 13,2 C 16,1 km/h (3 Bft) 96,23 %
18.05.2017 00:12 15,1 C 21,7 C 70 % 1015,3 hPa 0,0 l/m 9,8 km/h (2 Bft) O-NO 62 0 min 0,000 mm 0,0 UV-I 0 W/m 9,7 C 13,3 C 16,1 km/h (3 Bft) 97,87 %
18.05.2017 00:14 15,1 C 21,7 C 70 % 1015,3 hPa 0,0 l/m 8,3 km/h (2 Bft) O-NO 76 0 min 0,000 mm 0,0 UV-I 0 W/m 9,7 C 14,0 C 12,9 km/h (3 Bft) 94,74 %
18.05.2017 00:16 15,0 C 21,7 C 70 % 1015,3 hPa 0,0 l/m 10,9 km/h (2 Bft) O-NO 71 0 min 0,000 mm 0,0 UV-I 0 W/m 9,6 C 12,7 C 16,1 km/h (3 Bft) 94,44 %
18.05.2017 00:18 15,0 C 21,7 C 70 % 1015,3 hPa 0,0 l/m 9,2 km/h (2 Bft) O 79 0 min 0,000 mm 0,0 UV-I 0 W/m 9,6 C 13,5 C 12,9 km/h (3 Bft) 94,03 %
18.05.2017 00:20 15,0 C 21,7 C 70 % 1015,3 hPa 0,0 l/m 10,2 km/h (2 Bft) O 80 0 min 0,000 mm 0,0 UV-I 0 W/m 9,6 C 13,0 C 16,1 km/h (3 Bft) 97,37 %
18.05.2017 00:22 14,9 C 21,7 C 70 % 1015,3 hPa 0,0 l/m 12,0 km/h (2 Bft) NO 54 0 min 0,000 mm 0,0 UV-I 0 W/m 9,5 C 12,2 C 16,1 km/h (3 Bft) 96,00 %
18.05.2017 00:24 14,9 C 21,7 C 70 % 1015,2 hPa 0,0 l/m 11,0 km/h (2 Bft) O-NO 68 0 min 0,000 mm 0,0 UV-I 0 W/m 9,5 C 12,6 C 16,1 km/h (3 Bft) 97,87 %
18.05.2017 00:26 14,9 C 21,7 C 70 % 1015,2 hPa 0,0 l/m 10,1 km/h (2 Bft) NO 34 0 min 0,000 mm 0,0 UV-I 0 W/m 9,5 C 13,0 C 16,1 km/h (3 Bft) 96,00 %
18.05.2017 00:28 14,9 C 21,7 C 70 % 1015,2 hPa 0,0 l/m 10,7 km/h (2 Bft) NO 46 0 min 0,000 mm 0,0 UV-I 0 W/m 9,5 C 12,7 C 16,1 km/h (3 Bft) 97,92 %
18.05.2017 00:30 14,9 C 21,7 C 70 % 1015,1 hPa 0,0 l/m 9,1 km/h (2 Bft) O-NO 77 0 min 0,000 mm 0,0 UV-I 0 W/m 9,5 C 13,4 C 12,9 km/h (3 Bft) 98,00 %
18.05.2017 00:32 14,9 C 21,7 C 70 % 1015,2 hPa 0,0 l/m 13,0 km/h (3 Bft) O-NO 76 0 min 0,000 mm 0,0 UV-I 0 W/m 9,5 C 11,8 C 17,7 km/h (3 Bft) 97,56 %
18.05.2017 00:34 14,9 C 21,7 C 70 % 1015,1 hPa 0,0 l/m 11,9 km/h (2 Bft) O 83 0 min 0,000 mm 0,0 UV-I 0 W/m 9,5 C 12,2 C 17,7 km/h (3 Bft) 97,37 %
18.05.2017 00:36 14,9 C 21,7 C 70 % 1015,2 hPa 0,0 l/m 7,6 km/h (2 Bft) O-NO 57 0 min 0,000 mm 0,0 UV-I 0 W/m 9,5 C 14,2 C 11,3 km/h (2 Bft) 97,87 %
18.05.2017 00:38 14,9 C 21,7 C 70 % 1015,1 hPa 0,0 l/m 10,3 km/h (2 Bft) O-NO 74 0 min 0,000 mm 0,0 UV-I 0 W/m 9,5 C 12,9 C 16,1 km/h (3 Bft) 100,00 %
18.05.2017 00:40 14,8 C 21,7 C 70 % 1015,1 hPa 0,0 l/m 9,0 km/h (2 Bft) O 83 0 min 0,000 mm 0,0 UV-I 0 W/m 9,4 C 13,4 C 14,5 km/h (3 Bft) 97,87 %
18.05.2017 00:42 14,8 C 21,7 C 70 % 1015,1 hPa 0,0 l/m 10,5 km/h (2 Bft) O-NO 77 0 min 0,000 mm 0,0 UV-I 0 W/m 9,4 C 12,7 C 16,1 km/h (3 Bft) 100,00 %
18.05.2017 00:44 14,8 C 21,7 C 70 % 1015,1 hPa 0,0 l/m 9,1 km/h (2 Bft) O-NO 57 0 min 0,000 mm 0,0 UV-I 0 W/m 9,4 C 13,3 C 12,9 km/h (3 Bft) 98,39 %
18.05.2017 00:46 14,8 C 21,7 C 70 % 1015,0 hPa 0,0 l/m 11,0 km/h (2 Bft) O 88 0 min 0,000 mm 0,0 UV-I 0 W/m 9,4 C 12,5 C 17,7 km/h (3 Bft) 94,74 %
18.05.2017 00:48 14,7 C 21,7 C 70 % 1015,0 hPa 0,0 l/m 10,1 km/h (2 Bft) O 79 0 min 0,000 mm 0,0 UV-I 0 W/m 9,3 C 12,7 C 16,1 km/h (3 Bft) 98,21 %
18.05.2017 00:50 14,7 C 21,7 C 70 % 1015,0 hPa 0,0 l/m 11,7 km/h (2 Bft) O-NO 57 0 min 0,000 mm 0,0 UV-I 0 W/m 9,3 C 12,0 C 14,5 km/h (3 Bft) 97,56 %
18.05.2017 00:52 14,7 C 21,7 C 71 % 1015,0 hPa 0,0 l/m 10,6 km/h (2 Bft) O-NO 65 0 min 0,000 mm 0,0 UV-I 0 W/m 9,5 C 12,5 C 16,1 km/h (3 Bft) 98,11 %
18.05.2017 00:54 14,6 C 21,7 C 71 % 1014,9 hPa 0,0 l/m 11,7 km/h (2 Bft) O-NO 68 0 min 0,000 mm 0,0 UV-I 0 W/m 9,4 C 11,9 C 16,1 km/h (3 Bft) 100,00 %
18.05.2017 00:56 14,6 C 21,7 C 71 % 1014,9 hPa 0,0 l/m 10,9 km/h (2 Bft) O 80 0 min 0,000 mm 0,0 UV-I 0 W/m 9,4 C 12,3 C 16,1 km/h (3 Bft) 100,00 %
18.05.2017 00:58 14,6 C 21,7 C 71 % 1014,9 hPa 0,0 l/m 11,6 km/h (2 Bft) O-NO 76 0 min 0,000 mm 0,0 UV-I 0 W/m 9,4 C 12,0 C 17,7 km/h (3 Bft) 97,73 %
18.05.2017 01:00 14,6 C 21,7 C 71 % 1014,9 hPa 0,0 l/m 9,1 km/h (2 Bft) O-NO 76 0 min 0,051 mm 0,0 UV-I 0 W/m 9,4 C 13,1 C 14,5 km/h (3 Bft) 97,73 %
18.05.2017 01:02 14,6 C 21,7 C 71 % 1014,8 hPa 0,0 l/m 10,3 km/h (2 Bft) O 82 0 min 0,000 mm 0,0 UV-I 0 W/m 9,4 C 12,5 C 14,5 km/h (3 Bft) 100,00 %
18.05.2017 01:04 14,5 C 21,7 C 71 % 1014,9 hPa 0,0 l/m 10,4 km/h (2 Bft) O-NO 76 0 min 0,000 mm 0,0 UV-I 0 W/m 9,3 C 12,4 C 14,5 km/h (3 Bft) 97,44 %
18.05.2017 01:06 14,5 C 21,7 C 71 % 1014,9 hPa 0,0 l/m 9,7 km/h (2 Bft) O-NO 78 0 min 0,000 mm 0,0 UV-I 0 W/m 9,3 C 12,7 C 16,1 km/h (3 Bft) 93,62 %
18.05.2017 01:08 14,5 C 21,7 C 71 % 1014,9 hPa 0,0 l/m 8,0 km/h (2 Bft) O-NO 78 0 min 0,000 mm 0,0 UV-I 0 W/m 9,3 C 13,6 C 12,9 km/h (3 Bft) 96,00 %
18.05.2017 01:10 14,4 C 21,7 C 71 % 1014,8 hPa 0,0 l/m 9,2 km/h (2 Bft) O-NO 67 0 min 0,000 mm 0,0 UV-I 0 W/m 9,2 C 12,8 C 14,5 km/h (3 Bft) 100,00 %
18.05.2017 01:12 14,4 C 21,7 C 71 % 1014,8 hPa 0,0 l/m 7,5 km/h (2 Bft) NO 49 0 min 0,000 mm 0,0 UV-I 0 W/m 9,2 C 13,8 C 11,3 km/h (2 Bft) 98,31 %
18.05.2017 01:14 14,4 C 21,7 C 71 % 1014,8 hPa 0,0 l/m 6,1 km/h (2 Bft) O-NO 60 0 min 0,000 mm 0,0 UV-I 0 W/m 9,2 C 14,4 C 9,7 km/h (2 Bft) 100,00 %
18.05.2017 01:16 14,3 C 21,7 C 72 % 1014,8 hPa 0,0 l/m 5,0 km/h (1 Bft) NO 51 0 min 0,000 mm 0,0 UV-I 0 W/m 9,3 C 14,3 C 6,4 km/h (2 Bft) 98,00 %
18.05.2017 01:18 14,2 C 21,7 C 73 % 1014,8 hPa 0,0 l/m 5,7 km/h (1 Bft) O-NO 60 0 min 0,000 mm 0,0 UV-I 0 W/m 9,4 C 14,2 C 8,0 km/h (2 Bft) 100,00 %
18.05.2017 01:20 13,9 C 21,7 C 74 % 1014,8 hPa 0,0 l/m 4,7 km/h (1 Bft) NO 37 0 min 0,000 mm 0,0 UV-I 0 W/m 9,3 C 13,9 C 6,4 km/h (2 Bft) 96,77 %
18.05.2017 01:22 13,7 C 21,7 C 76 % 1014,8 hPa 0,0 l/m 4,0 km/h (1 Bft) NO 52 0 min 0,000 mm 0,0 UV-I 0 W/m 9,5 C 13,7 C 6,4 km/h (2 Bft) 100,00 %
18.05.2017 01:24 13,4 C 21,7 C 77 % 1014,8 hPa 0,0 l/m 4,1 km/h (1 Bft) NO 51 0 min 0,000 mm 0,0 UV-I 0 W/m 9,5 C 13,4 C 6,4 km/h (2 Bft) 98,11 %
18.05.2017 01:26 13,3 C 21,7 C 78 % 1014,7 hPa 0,0 l/m 3,9 km/h (1 Bft) NO 51 0 min 0,000 mm 0,0 UV-I 0 W/m 9,5 C 13,3 C 6,4 km/h (2 Bft) 100,00 %
18.05.2017 01:28 13,1 C 21,7 C 78 % 1014,7 hPa 0,0 l/m 3,1 km/h (1 Bft) NO 51 0 min 0,000 mm 0,0 UV-I 0 W/m 9,4 C 13,1 C 4,8 km/h (1 Bft) 97,87 %
18.05.2017 01:30 13,1 C 21,7 C 78 % 1014,7 hPa 0,0 l/m 4,1 km/h (1 Bft) NO 44 0 min 0,000 mm 0,0 UV-I 0 W/m 9,4 C 13,1 C 6,4 km/h (2 Bft) 98,00 %
18.05.2017 01:32 13,2 C 21,7 C 78 % 1014,7 hPa 0,0 l/m 4,3 km/h (1 Bft) NO 53 0 min 0,000 mm 0,0 UV-I 0 W/m 9,4 C 13,2 C 6,4 km/h (2 Bft) 97,37 %
18.05.2017 01:34 13,2 C 21,7 C 78 % 1014,7 hPa 0,0 l/m 4,6 km/h (1 Bft) NO 53 0 min 0,000 mm 0,0 UV-I 0 W/m 9,4 C 13,2 C 6,4 km/h (2 Bft) 95,74 %
18.05.2017 01:36 13,2 C 21,7 C 77 % 1014,6 hPa 0,0 l/m 4,4 km/h (1 Bft) O-NO 57 0 min 0,000 mm 0,0 UV-I 0 W/m 9,3 C 13,2 C 6,4 km/h (2 Bft) 97,87 %
18.05.2017 01:38 13,3 C 21,7 C 77 % 1014,6 hPa 0,0 l/m 3,9 km/h (1 Bft) O-NO 57 0 min 0,000 mm 0,0 UV-I 0 W/m 9,4 C 13,3 C 6,4 km/h (2 Bft) 100,00 %
18.05.2017 01:40 13,4 C 21,7 C 76 % 1014,6 hPa 0,0 l/m 3,7 km/h (1 Bft) O-NO 57 0 min 0,000 mm 0,0 UV-I 0 W/m 9,3 C 13,4 C 4,8 km/h (1 Bft) 100,00 %
18.05.2017 01:42 13,5 C 21,7 C 76 % 1014,6 hPa 0,0 l/m 6,4 km/h (2 Bft) O-NO 59 0 min 0,000 mm 0,0 UV-I 0 W/m 9,4 C 13,5 C 11,3 km/h (2 Bft) 100,00 %
18.05.2017 01:44 13,6 C 21,7 C 75 % 1014,5 hPa 0,0 l/m 7,2 km/h (2 Bft) O-NO 59 0 min 0,000 mm 0,0 UV-I 0 W/m 9,3 C 13,1 C 9,7 km/h (2 Bft) 98,08 %
18.05.2017 01:46 13,7 C 21,7 C 75 % 1014,5 hPa 0,0 l/m 6,9 km/h (2 Bft) NO 54 0 min 0,000 mm 0,0 UV-I 0 W/m 9,3 C 13,4 C 9,7 km/h (2 Bft) 97,62 %
18.05.2017 01:48 13,7 C 21,7 C 75 % 1014,5 hPa 0,0 l/m 8,4 km/h (2 Bft) NO 49 0 min 0,000 mm 0,0 UV-I 0 W/m 9,3 C 12,5 C 12,9 km/h (3 Bft) 100,00 %
18.05.2017 01:50 13,8 C 21,7 C 75 % 1014,5 hPa 0,0 l/m 9,5 km/h (2 Bft) O-NO 63 0 min 0,000 mm 0,0 UV-I 0 W/m 9,4 C 12,0 C 12,9 km/h (3 Bft) 97,56 %
18.05.2017 01:52 13,8 C 21,7 C 74 % 1014,5 hPa 0,0 l/m 9,2 km/h (2 Bft) O-NO 63 0 min 0,000 mm 0,0 UV-I 0 W/m 9,2 C 12,2 C 12,9 km/h (3 Bft) 97,87 %
18.05.2017 01:54 13,8 C 21,1 C 74 % 1014,4 hPa 0,0 l/m 9,1 km/h (2 Bft) O-NO 65 0 min 0,000 mm 0,0 UV-I 0 W/m 9,2 C 12,2 C 12,9 km/h (3 Bft) 96,00 %
18.05.2017 01:56 13,8 C 21,1 C 74 % 1014,4 hPa 0,0 l/m 8,6 km/h (2 Bft) O-NO 63 0 min 0,000 mm 0,0 UV-I 0 W/m 9,2 C 12,5 C 12,9 km/h (3 Bft) 97,73 %
18.05.2017 01:58 13,8 C 21,7 C 74 % 1014,4 hPa 0,0 l/m 8,2 km/h (2 Bft) NO 56 0 min 0,000 mm 0,0 UV-I 0 W/m 9,2 C 12,7 C 9,7 km/h (2 Bft) 96,00 %
18.05.2017 02:00 13,8 C 21,1 C 74 % 1014,4 hPa 0,0 l/m 9,0 km/h (2 Bft) NO 55 0 min 0,025 mm 0,0 UV-I 0 W/m 9,2 C 12,3 C 12,9 km/h (3 Bft) 95,45 %
18.05.2017 02:02 13,8 C 21,1 C 74 % 1014,4 hPa 0,0 l/m 8,8 km/h (2 Bft) O-NO 59 0 min 0,000 mm 0,0 UV-I 0 W/m 9,2 C 12,4 C 12,9 km/h (3 Bft) 96,00 %
18.05.2017 02:04 13,8 C 21,1 C 74 % 1014,4 hPa 0,0 l/m 8,7 km/h (2 Bft) O-NO 63 0 min 0,000 mm 0,0 UV-I 0 W/m 9,2 C 12,5 C 12,9 km/h (3 Bft) 95,12 %
18.05.2017 02:06 13,8 C 21,1 C 74 % 1014,4 hPa 0,0 l/m 7,5 km/h (2 Bft) O-NO 60 0 min 0,000 mm 0,0 UV-I 0 W/m 9,2 C 13,1 C 9,7 km/h (2 Bft) 98,11 %
18.05.2017 02:08 13,7 C 21,1 C 75 % 1014,4 hPa 0,0 l/m 5,1 km/h (1 Bft) O-NO 59 0 min 0,000 mm 0,0 UV-I 0 W/m 9,3 C 13,7 C 8,0 km/h (2 Bft) 95,74 %
18.05.2017 02:10 13,6 C 21,1 C 75 % 1014,4 hPa 0,0 l/m 4,9 km/h (1 Bft) O 80 0 min 0,000 mm 0,0 UV-I 0 W/m 9,3 C 13,6 C 8,0 km/h (2 Bft) 97,37 %
18.05.2017 02:12 13,5 C 21,1 C 75 % 1014,4 hPa 0,0 l/m 4,2 km/h (1 Bft) NO 44 0 min 0,000 mm 0,0 UV-I 0 W/m 9,2 C 13,5 C 6,4 km/h (2 Bft) 95,45 %
18.05.2017 02:14 13,4 C 21,1 C 76 % 1014,4 hPa 0,0 l/m 3,8 km/h (1 Bft) NO 44 0 min 0,000 mm 0,0 UV-I 0 W/m 9,3 C 13,4 C 6,4 km/h (2 Bft) 96,08 %
18.05.2017 02:16 13,3 C 21,1 C 77 % 1014,4 hPa 0,0 l/m 4,6 km/h (1 Bft) NO 44 0 min 0,000 mm 0,0 UV-I 0 W/m 9,4 C 13,3 C 6,4 km/h (2 Bft) 97,44 %
18.05.2017 02:18 13,2 C 21,1 C 77 % 1014,4 hPa 0,0 l/m 4,9 km/h (1 Bft) NO 44 0 min 0,000 mm 0,0 UV-I 0 W/m 9,3 C 13,2 C 6,4 km/h (2 Bft) 95,31 %
18.05.2017 02:20 13,1 C 21,1 C 78 % 1014,4 hPa 0,0 l/m 4,8 km/h (1 Bft) NO 44 0 min 0,000 mm 0,0 UV-I 0 W/m 9,4 C 13,1 C 8,0 km/h (2 Bft) 97,56 %
18.05.2017 02:22 13,1 C 21,1 C 78 % 1014,3 hPa 0,0 l/m 4,6 km/h (1 Bft) NO 44 0 min 0,000 mm 0,0 UV-I 0 W/m 9,4 C 13,1 C 6,4 km/h (2 Bft) 96,08 %
18.05.2017 02:24 13,1 C 21,1 C 78 % 1014,3 hPa 0,0 l/m 4,6 km/h (1 Bft) NO 44 0 min 0,000 mm 0,0 UV-I 0 W/m 9,4 C 13,1 C 6,4 km/h (2 Bft) 97,56 %
18.05.2017 02:26 13,2 C 21,1 C 77 % 1014,3 hPa 0,0 l/m 4,9 km/h (1 Bft) O-NO 57 0 min 0,000 mm 0,0 UV-I 0 W/m 9,3 C 13,2 C 8,0 km/h (2 Bft) 96,36 %
18.05.2017 02:28 13,3 C 21,1 C 77 % 1014,3 hPa 0,0 l/m 6,7 km/h (2 Bft) NO 56 0 min 0,000 mm 0,0 UV-I 0 W/m 9,4 C 13,1 C 9,7 km/h (2 Bft) 94,87 %
18.05.2017 02:30 13,3 C 21,1 C 76 % 1014,2 hPa 0,0 l/m 6,3 km/h (2 Bft) O-NO 63 0 min 0,000 mm 0,0 UV-I 0 W/m 9,2 C 13,3 C 8,0 km/h (2 Bft) 94,34 %
18.05.2017 02:32 13,3 C 21,1 C 76 % 1014,1 hPa 0,0 l/m 6,8 km/h (2 Bft) O-NO 74 0 min 0,000 mm 0,0 UV-I 0 W/m 9,2 C 13,1 C 9,7 km/h (2 Bft) 92,68 %
18.05.2017 02:34 13,4 C 21,1 C 76 % 1014,1 hPa 0,0 l/m 6,7 km/h (2 Bft) O-NO 63 0 min 0,000 mm 0,0 UV-I 0 W/m 9,3 C 13,2 C 9,7 km/h (2 Bft) 95,45 %
18.05.2017 02:36 13,4 C 21,1 C 76 % 1014,1 hPa 0,0 l/m 7,3 km/h (2 Bft) O-NO 59 0 min 0,000 mm 0,0 UV-I 0 W/m 9,3 C 12,8 C 9,7 km/h (2 Bft) 94,00 %
18.05.2017 02:38 13,4 C 21,1 C 76 % 1014,0 hPa 0,0 l/m 8,0 km/h (2 Bft) O-NO 64 0 min 0,000 mm 0,0 UV-I 0 W/m 9,3 C 12,4 C 9,7 km/h (2 Bft) 90,91 %
18.05.2017 02:40 13,4 C 21,1 C 76 % 1014,0 hPa 0,0 l/m 6,6 km/h (2 Bft) O-NO 57 0 min 0,000 mm 0,0 UV-I 0 W/m 9,3 C 13,3 C 9,7 km/h (2 Bft) 93,62 %
18.05.2017 02:42 13,4 C 21,1 C 76 % 1014,0 hPa 0,0 l/m 6,8 km/h (2 Bft) O-NO 63 0 min 0,000 mm 0,0 UV-I 0 W/m 9,3 C 13,2 C 8,0 km/h (2 Bft) 97,73 %
18.05.2017 02:44 13,4 C 21,1 C 76 % 1013,9 hPa 0,0 l/m 6,1 km/h (2 Bft) O-NO 72 0 min 0,000 mm 0,0 UV-I 0 W/m 9,3 C 13,4 C 8,0 km/h (2 Bft) 94,00 %
18.05.2017 02:46 13,3 C 21,1 C 76 % 1013,9 hPa 0,0 l/m 6,4 km/h (2 Bft) O-NO 63 0 min 0,000 mm 0,0 UV-I 0 W/m 9,2 C 13,3 C 8,0 km/h (2 Bft) 96,43 %
18.05.2017 02:48 13,3 C 21,1 C 76 % 1013,9 hPa 0,0 l/m 6,1 km/h (2 Bft) NO 53 0 min 0,000 mm 0,0 UV-I 0 W/m 9,2 C 13,3 C 8,0 km/h (2 Bft) 97,37 %
18.05.2017 02:50 13,3 C 21,1 C 76 % 1013,9 hPa 0,0 l/m 6,0 km/h (2 Bft) O-NO 58 0 min 0,000 mm 0,0 UV-I 0 W/m 9,2 C 13,3 C 8,0 km/h (2 Bft) 92,45 %
18.05.2017 02:52 13,2 C 21,1 C 77 % 1013,8 hPa 0,0 l/m 5,2 km/h (1 Bft) O-NO 57 0 min 0,000 mm 0,0 UV-I 0 W/m 9,3 C 13,2 C 8,0 km/h (2 Bft) 98,00 %
18.05.2017 02:54 13,2 C 21,1 C 77 % 1013,8 hPa 0,0 l/m 5,9 km/h (2 Bft) O-NO 66 0 min 0,000 mm 0,0 UV-I 0 W/m 9,3 C 13,2 C 8,0 km/h (2 Bft) 94,74 %
18.05.2017 02:56 13,1 C 21,1 C 77 % 1013,8 hPa 0,0 l/m 7,0 km/h (2 Bft) O-NO 63 0 min 0,000 mm 0,0 UV-I 0 W/m 9,2 C 12,7 C 9,7 km/h (2 Bft) 98,00 %
18.05.2017 02:58 13,0 C 21,1 C 78 % 1013,7 hPa 0,0 l/m 6,1 km/h (2 Bft) O-NO 59 0 min 0,000 mm 0,0 UV-I 0 W/m 9,3 C 13,0 C 8,0 km/h (2 Bft) 96,00 %
18.05.2017 03:00 12,9 C 21,1 C 78 % 1013,7 hPa 0,0 l/m 5,5 km/h (1 Bft) NO 49 0 min 0,026 mm 0,0 UV-I 0 W/m 9,2 C 12,9 C 8,0 km/h (2 Bft) 94,87 %
18.05.2017 03:02 12,9 C 21,1 C 79 % 1013,7 hPa 0,0 l/m 4,5 km/h (1 Bft) NO 50 0 min 0,000 mm 0,0 UV-I 0 W/m 9,3 C 12,9 C 6,4 km/h (2 Bft) 98,00 %
18.05.2017 03:04 12,7 C 21,1 C 79 % 1013,7 hPa 0,0 l/m 5,2 km/h (1 Bft) NO 51 0 min 0,000 mm 0,0 UV-I 0 W/m 9,2 C 12,7 C 6,4 km/h (2 Bft) 95,74 %
18.05.2017 03:06 12,6 C 21,1 C 80 % 1013,7 hPa 0,0 l/m 4,7 km/h (1 Bft) NO 51 0 min 0,000 mm 0,0 UV-I 0 W/m 9,2 C 12,6 C 6,4 km/h (2 Bft) 95,74 %
18.05.2017 03:08 12,4 C 21,1 C 81 % 1013,7 hPa 0,0 l/m 4,4 km/h (1 Bft) O-NO 57 0 min 0,000 mm 0,0 UV-I 0 W/m 9,2 C 12,4 C 6,4 km/h (2 Bft) 95,74 %
18.05.2017 03:10 12,5 C 21,1 C 80 % 1013,7 hPa 0,0 l/m 3,7 km/h (1 Bft) O-NO 57 0 min 0,000 mm 0,0 UV-I 0 W/m 9,1 C 12,5 C 6,4 km/h (2 Bft) 96,00 %
18.05.2017 03:12 12,5 C 21,1 C 80 % 1013,6 hPa 0,0 l/m 4,0 km/h (1 Bft) O-NO 57 0 min 0,000 mm 0,0 UV-I 0 W/m 9,1 C 12,5 C 4,8 km/h (1 Bft) 94,00 %
18.05.2017 03:14 12,6 C 21,1 C 80 % 1013,7 hPa 0,0 l/m 3,7 km/h (1 Bft) O-NO 57 0 min 0,000 mm 0,0 UV-I 0 W/m 9,2 C 12,6 C 4,8 km/h (1 Bft) 94,74 %
18.05.2017 03:16 12,6 C 21,1 C 80 % 1013,6 hPa 0,0 l/m 3,5 km/h (1 Bft) O-NO 57 0 min 0,000 mm 0,0 UV-I 0 W/m 9,2 C 12,6 C 4,8 km/h (1 Bft) 98,21 %
18.05.2017 03:18 12,7 C 21,1 C 80 % 1013,6 hPa 0,0 l/m 3,7 km/h (1 Bft) O-NO 57 0 min 0,000 mm 0,0 UV-I 0 W/m 9,3 C 12,7 C 4,8 km/h (1 Bft) 93,62 %
18.05.2017 03:20 12,7 C 21,1 C 79 % 1013,6 hPa 0,0 l/m 2,8 km/h (1 Bft) O-NO 57 0 min 0,000 mm 0,0 UV-I 0 W/m 9,2 C 12,7 C 4,8 km/h (1 Bft) 94,74 %
18.05.2017 03:22 12,7 C 21,1 C 79 % 1013,6 hPa 0,0 l/m 3,0 km/h (1 Bft) O-NO 57 0 min 0,000 mm 0,0 UV-I 0 W/m 9,2 C 12,7 C 4,8 km/h (1 Bft) 96,00 %
18.05.2017 03:24 12,8 C 21,1 C 79 % 1013,6 hPa 0,0 l/m 4,5 km/h (1 Bft) O-NO 60 0 min 0,000 mm 0,0 UV-I 0 W/m 9,2 C 12,8 C 8,0 km/h (2 Bft) 95,74 %
18.05.2017 03:26 12,8 C 21,1 C 79 % 1013,6 hPa 0,0 l/m 3,2 km/h (1 Bft) O-NO 60 0 min 0,000 mm 0,0 UV-I 0 W/m 9,2 C 12,8 C 4,8 km/h (1 Bft) 94,00 %
18.05.2017 03:28 12,8 C 21,1 C 79 % 1013,6 hPa 0,0 l/m 4,2 km/h (1 Bft) O-NO 60 0 min 0,000 mm 0,0 UV-I 0 W/m 9,2 C 12,8 C 6,4 km/h (2 Bft) 97,37 %
18.05.2017 03:30 12,8 C 21,1 C 79 % 1013,6 hPa 0,0 l/m 4,0 km/h (1 Bft) O-NO 63 0 min 0,000 mm 0,0 UV-I 0 W/m 9,2 C 12,8 C 6,4 km/h (2 Bft) 96,00 %
18.05.2017 03:32 12,8 C 21,1 C 79 % 1013,6 hPa 0,0 l/m 3,2 km/h (1 Bft) O-NO 63 0 min 0,000 mm 0,0 UV-I 0 W/m 9,2 C 12,8 C 4,8 km/h (1 Bft) 98,00 %
18.05.2017 03:34 12,8 C 21,1 C 78 % 1013,6 hPa 0,0 l/m 3,4 km/h (1 Bft) O-NO 63 0 min 0,000 mm 0,0 UV-I 0 W/m 9,1 C 12,8 C 4,8 km/h (1 Bft) 96,00 %
18.05.2017 03:36 12,8 C 21,1 C 79 % 1013,6 hPa 0,0 l/m 2,7 km/h (1 Bft) O-NO 63 0 min 0,000 mm 0,0 UV-I 0 W/m 9,2 C 12,8 C 4,8 km/h (1 Bft) 97,87 %
18.05.2017 03:38 12,8 C 21,1 C 79 % 1013,6 hPa 0,0 l/m 3,1 km/h (1 Bft) O-NO 63 0 min 0,000 mm 0,0 UV-I 0 W/m 9,2 C 12,8 C 4,8 km/h (1 Bft) 100,00 %
18.05.2017 03:40 12,8 C 21,1 C 79 % 1013,6 hPa 0,0 l/m 3,0 km/h (1 Bft) O-NO 63 0 min 0,000 mm 0,0 UV-I 0 W/m 9,2 C 12,8 C 4,8 km/h (1 Bft) 98,11 %
18.05.2017 03:42 12,8 C 21,1 C 79 % 1013,6 hPa 0,0 l/m 3,0 km/h (1 Bft) O-NO 63 0 min 0,000 mm 0,0 UV-I 0 W/m 9,2 C 12,8 C 4,8 km/h (1 Bft) 100,00 %
18.05.2017 03:44 12,8 C 21,1 C 78 % 1013,6 hPa 0,0 l/m 2,3 km/h (1 Bft) O-NO 63 0 min 0,000 mm 0,0 UV-I 0 W/m 9,1 C 12,8 C 3,2 km/h (1 Bft) 97,62 %
18.05.2017 03:46 12,8 C 21,1 C 78 % 1013,6 hPa 0,0 l/m 1,6 km/h (1 Bft) O-NO 63 0 min 0,000 mm 0,0 UV-I 0 W/m 9,1 C 12,8 C 3,2 km/h (1 Bft) 97,87 %
18.05.2017 03:48 12,7 C 21,1 C 79 % 1013,6 hPa 0,0 l/m 1,4 km/h (1 Bft) O-NO 63 0 min 0,000 mm 0,0 UV-I 0 W/m 9,2 C 12,7 C 3,2 km/h (1 Bft) 100,00 %
18.05.2017 03:50 12,7 C 21,1 C 79 % 1013,6 hPa 0,0 l/m 1,0 km/h (0 Bft) O-NO 63 0 min 0,000 mm 0,0 UV-I 0 W/m 9,2 C 12,7 C 3,2 km/h (1 Bft) 97,56 %
18.05.2017 03:52 12,7 C 21,1 C 79 % 1013,6 hPa 0,0 l/m 0,0 km/h (0 Bft) O-NO 63 0 min 0,000 mm 0,0 UV-I 0 W/m 9,2 C 12,7 C 0,0 km/h (0 Bft) 97,87 %
18.05.2017 03:54 12,6 C 21,1 C 80 % 1013,6 hPa 0,0 l/m 0,0 km/h (0 Bft) O-NO 63 0 min 0,000 mm 0,0 UV-I 0 W/m 9,2 C 12,6 C 0,0 km/h (0 Bft) 98,00 %
18.05.2017 03:56 12,4 C 21,1 C 81 % 1013,6 hPa 0,0 l/m 0,0 km/h (0 Bft) O-NO 63 0 min 0,000 mm 0,0 UV-I 0 W/m 9,2 C 12,4 C 1,6 km/h (1 Bft) 98,00 %
18.05.2017 03:58 12,2 C 21,1 C 81 % 1013,6 hPa 0,0 l/m 0,0 km/h (0 Bft) O-NO 63 0 min 0,000 mm 0,0 UV-I 0 W/m 9,0 C 12,2 C 0,0 km/h (0 Bft) 95,12 %
18.05.2017 04:00 12,2 C 21,1 C 82 % 1013,5 hPa 0,0 l/m 0,3 km/h (0 Bft) O-NO 63 0 min 0,000 mm 0,0 UV-I 0 W/m 9,2 C 12,2 C 1,6 km/h (1 Bft) 96,00 %
18.05.2017 04:05 11,8 C 21,1 C 83 % 1013,5 hPa 0,0 l/m 0,6 km/h (0 Bft) O-NO 63 0 min 0,000 mm 0,0 UV-I 0 W/m 9,0 C 11,8 C 1,6 km/h (1 Bft) 97,92 %
18.05.2017 04:06 11,7 C 21,1 C 83 % 1013,5 hPa 0,0 l/m 0,5 km/h (0 Bft) O-NO 63 0 min 0,000 mm 0,0 UV-I 0 W/m 8,9 C 11,7 C 1,6 km/h (1 Bft) 82,61 %
18.05.2017 04:08 11,6 C 21,1 C 84 % 1013,5 hPa 0,0 l/m 0,0 km/h (0 Bft) O-NO 63 0 min 0,000 mm 0,0 UV-I 0 W/m 9,0 C 11,6 C 1,6 km/h (1 Bft) 98,00 %
18.05.2017 04:10 11,5 C 21,1 C 85 % 1013,5 hPa 0,0 l/m 0,0 km/h (0 Bft) O-NO 63 0 min 0,000 mm 0,0 UV-I 0 W/m 9,1 C 11,5 C 0,0 km/h (0 Bft) 96,00 %
18.05.2017 04:12 11,4 C 21,1 C 85 % 1013,5 hPa 0,0 l/m 0,0 km/h (0 Bft) O-NO 63 0 min 0,000 mm 0,0 UV-I 0 W/m 9,0 C 11,4 C 0,0 km/h (0 Bft) 92,11 %
18.05.2017 04:14 11,4 C 21,1 C 85 % 1013,5 hPa 0,0 l/m 0,0 km/h (0 Bft) O-NO 63 0 min 0,000 mm 0,0 UV-I 0 W/m 9,0 C 11,4 C 0,0 km/h (0 Bft) 97,87 %
18.05.2017 04:16 11,3 C 21,1 C 86 % 1013,5 hPa 0,0 l/m 0,0 km/h (0 Bft) O-NO 63 0 min 0,000 mm 0,0 UV-I 0 W/m 9,0 C 11,3 C 0,0 km/h (0 Bft) 96,00 %
18.05.2017 04:18 11,3 C 21,1 C 86 % 1013,5 hPa 0,0 l/m 0,0 km/h (0 Bft) O-NO 63 0 min 0,000 mm 0,0 UV-I 0 W/m 9,0 C 11,3 C 0,0 km/h (0 Bft) 95,74 %
18.05.2017 04:20 11,3 C 21,1 C 86 % 1013,5 hPa 0,0 l/m 0,0 km/h (0 Bft) O-NO 63 0 min 0,000 mm 0,0 UV-I 0 W/m 9,0 C 11,3 C 0,0 km/h (0 Bft) 95,74 %
18.05.2017 04:22 11,2 C 21,1 C 86 % 1013,5 hPa 0,0 l/m 0,0 km/h (0 Bft) O-NO 63 0 min 0,000 mm 0,0 UV-I 0 W/m 8,9 C 11,2 C 0,0 km/h (0 Bft) 97,62 %
18.05.2017 04:24 11,2 C 21,1 C 86 % 1013,5 hPa 0,0 l/m 0,0 km/h (0 Bft) O-NO 63 0 min 0,000 mm 0,0 UV-I 0 W/m 8,9 C 11,2 C 0,0 km/h (0 Bft) 96,23 %
18.05.2017 04:26 11,2 C 21,1 C 86 % 1013,5 hPa 0,0 l/m 0,0 km/h (0 Bft) O-NO 63 0 min 0,000 mm 0,0 UV-I 0 W/m 8,9 C 11,2 C 0,0 km/h (0 Bft) 90,91 %
18.05.2017 04:28 11,1 C 21,1 C 87 % 1013,5 hPa 0,0 l/m 0,2 km/h (0 Bft) O-NO 63 0 min 0,000 mm 0,0 UV-I 0 W/m 9,0 C 11,1 C 1,6 km/h (1 Bft) 94,81 %
18.05.2017 04:30 11,1 C 21,1 C 87 % 1013,4 hPa 0,0 l/m 1,8 km/h (1 Bft) O-NO 63 0 min 0,000 mm 0,0 UV-I 0 W/m 9,0 C 11,1 C 3,2 km/h (1 Bft) 98,00 %
18.05.2017 04:32 10,9 C 21,1 C 87 % 1013,4 hPa 0,0 l/m 1,9 km/h (1 Bft) O-NO 63 0 min 0,000 mm 0,0 UV-I 0 W/m 8,8 C 10,9 C 3,2 km/h (1 Bft) 95,74 %
18.05.2017 04:34 10,8 C 21,1 C 88 % 1013,4 hPa 0,0 l/m 1,7 km/h (1 Bft) O-NO 63 0 min 0,000 mm 0,0 UV-I 0 W/m 8,9 C 10,8 C 3,2 km/h (1 Bft) 100,00 %
18.05.2017 04:36 10,8 C 21,1 C 88 % 1013,4 hPa 0,0 l/m 1,4 km/h (1 Bft) O-NO 63 0 min 0,000 mm 0,0 UV-I 0 W/m 8,9 C 10,8 C 3,2 km/h (1 Bft) 98,00 %
18.05.2017 04:38 10,8 C 21,1 C 88 % 1013,4 hPa 0,0 l/m 0,7 km/h (0 Bft) O-NO 63 0 min 0,000 mm 0,0 UV-I 0 W/m 8,9 C 10,8 C 3,2 km/h (1 Bft) 95,12 %
18.05.2017 04:40 10,8 C 21,1 C 88 % 1013,4 hPa 0,0 l/m 0,0 km/h (0 Bft) O-NO 63 0 min 0,000 mm 0,0 UV-I 0 W/m 8,9 C 10,8 C 0,0 km/h (0 Bft) 100,00 %
18.05.2017 04:42 10,8 C 21,1 C 88 % 1013,4 hPa 0,0 l/m 0,0 km/h (0 Bft) O-NO 63 0 min 0,000 mm 0,0 UV-I 0 W/m 8,9 C 10,8 C 0,0 km/h (0 Bft) 97,14 %
18.05.2017 04:44 10,9 C 21,1 C 88 % 1013,4 hPa 0,0 l/m 0,0 km/h (0 Bft) O-NO 63 0 min 0,000 mm 0,0 UV-I 0 W/m 9,0 C 10,9 C 0,0 km/h (0 Bft) 98,08 %
18.05.2017 04:46 10,9 C 21,1 C 88 % 1013,4 hPa 0,0 l/m 0,0 km/h (0 Bft) O-NO 63 0 min 0,000 mm 0,0 UV-I 0 W/m 9,0 C 10,9 C 0,0 km/h (0 Bft) 98,00 %
18.05.2017 04:48 10,9 C 21,1 C 87 % 1013,4 hPa 0,0 l/m 0,0 km/h (0 Bft) O-NO 63 0 min 0,000 mm 0,0 UV-I 0 W/m 8,8 C 10,9 C 0,0 km/h (0 Bft) 95,74 %
18.05.2017 04:50 10,8 C 21,1 C 88 % 1013,3 hPa 0,0 l/m 0,0 km/h (0 Bft) O-NO 63 0 min 0,000 mm 0,0 UV-I 0 W/m 8,9 C 10,8 C 0,0 km/h (0 Bft) 100,00 %
18.05.2017 04:52 10,8 C 21,1 C 87 % 1013,4 hPa 0,0 l/m 0,0 km/h (0 Bft) O-NO 63 0 min 0,000 mm 0,0 UV-I 0 W/m 8,7 C 10,8 C 0,0 km/h (0 Bft) 97,37 %
18.05.2017 04:54 10,8 C 21,1 C 87 % 1013,3 hPa 0,0 l/m 0,0 km/h (0 Bft) O-NO 63 0 min 0,000 mm 0,0 UV-I 0 W/m 8,7 C 10,8 C 1,6 km/h (1 Bft) 97,96 %
18.05.2017 04:56 10,7 C 21,1 C 88 % 1013,3 hPa 0,0 l/m 0,0 km/h (0 Bft) O-NO 63 0 min 0,000 mm 0,0 UV-I 0 W/m 8,8 C 10,7 C 0,0 km/h (0 Bft) 97,87 %
18.05.2017 04:58 10,7 C 21,1 C 87 % 1013,3 hPa 0,0 l/m 0,0 km/h (0 Bft) O-NO 63 0 min 0,000 mm 0,0 UV-I 0 W/m 8,6 C 10,7 C 0,0 km/h (0 Bft) 96,43 %
18.05.2017 05:00 10,7 C 21,1 C 88 % 1013,3 hPa 0,0 l/m 0,0 km/h (0 Bft) O-NO 63 0 min 0,000 mm 0,0 UV-I 0 W/m 8,8 C 10,7 C 0,0 km/h (0 Bft) 100,00 %
18.05.2017 05:02 10,6 C 21,1 C 88 % 1013,4 hPa 0,0 l/m 0,0 km/h (0 Bft) O-NO 63 0 min 0,000 mm 0,0 UV-I 0 W/m 8,7 C 10,6 C 0,0 km/h (0 Bft) 96,00 %
18.05.2017 05:04 10,6 C 21,1 C 88 % 1013,4 hPa 0,0 l/m 0,9 km/h (0 Bft) O-NO 63 0 min 0,000 mm 0,0 UV-I 0 W/m 8,7 C 10,6 C 3,2 km/h (1 Bft) 100,00 %
18.05.2017 05:06 10,6 C 21,1 C 88 % 1013,3 hPa 0,0 l/m 2,0 km/h (1 Bft) O-NO 63 0 min 0,000 mm 0,0 UV-I 0 W/m 8,7 C 10,6 C 3,2 km/h (1 Bft) 100,00 %
18.05.2017 05:08 10,6 C 21,1 C 88 % 1013,3 hPa 0,0 l/m 1,2 km/h (1 Bft) O-NO 63 0 min 0,000 mm 0,0 UV-I 1 W/m 8,7 C 10,6 C 1,6 km/h (1 Bft) 98,00 %
18.05.2017 05:10 10,6 C 21,1 C 88 % 1013,4 hPa 0,0 l/m 1,4 km/h (1 Bft) O-NO 63 0 min 0,000 mm 0,0 UV-I 5 W/m 8,7 C 10,6 C 3,2 km/h (1 Bft) 97,87 %
18.05.2017 05:12 10,6 C 21,1 C 88 % 1013,4 hPa 0,0 l/m 0,0 km/h (0 Bft) O-NO 63 0 min 0,000 mm 0,0 UV-I 5 W/m 8,7 C 10,6 C 1,6 km/h (1 Bft) 96,00 %
18.05.2017 05:14 10,6 C 21,1 C 88 % 1013,3 hPa 0,0 l/m 0,0 km/h (0 Bft) O-NO 63 0 min 0,000 mm 0,0 UV-I 5 W/m 8,7 C 10,6 C 0,0 km/h (0 Bft) 100,00 %
18.05.2017 05:16 10,6 C 21,1 C 88 % 1013,3 hPa 0,0 l/m 0,0 km/h (0 Bft) O-NO 63 0 min 0,000 mm 0,0 UV-I 5 W/m 8,7 C 10,6 C 0,0 km/h (0 Bft) 98,00 %
18.05.2017 05:18 10,5 C 21,1 C 88 % 1013,3 hPa 0,0 l/m 0,0 km/h (0 Bft) O-NO 63 0 min 0,000 mm 0,0 UV-I 6 W/m 8,6 C 10,5 C 0,0 km/h (0 Bft) 98,00 %
18.05.2017 05:20 10,4 C 21,1 C 88 % 1013,2 hPa 0,0 l/m 0,2 km/h (0 Bft) O-NO 63 0 min 0,000 mm 0,0 UV-I 7 W/m 8,5 C 10,4 C 1,6 km/h (1 Bft) 97,87 %
18.05.2017 05:22 10,4 C 21,1 C 88 % 1013,2 hPa 0,0 l/m 1,6 km/h (1 Bft) O-NO 63 0 min 0,000 mm 0,0 UV-I 7 W/m 8,5 C 10,4 C 3,2 km/h (1 Bft) 98,00 %
18.05.2017 05:24 10,5 C 21,1 C 88 % 1013,2 hPa 0,0 l/m 1,1 km/h (1 Bft) O-NO 63 0 min 0,000 mm 0,0 UV-I 8 W/m 8,6 C 10,5 C 1,6 km/h (1 Bft) 100,00 %
18.05.2017 05:26 10,5 C 21,1 C 88 % 1013,2 hPa 0,0 l/m 0,0 km/h (0 Bft) O-NO 63 0 min 0,000 mm 0,0 UV-I 9 W/m 8,6 C 10,5 C 0,0 km/h (0 Bft) 98,00 %
18.05.2017 05:28 10,5 C 21,1 C 88 % 1013,2 hPa 0,0 l/m 0,0 km/h (0 Bft) O-NO 63 0 min 0,000 mm 0,0 UV-I 11 W/m 8,6 C 10,5 C 1,6 km/h (1 Bft) 98,00 %
18.05.2017 05:30 10,5 C 21,1 C 88 % 1013,2 hPa 0,0 l/m 1,2 km/h (1 Bft) O-NO 63 0 min 0,000 mm 0,0 UV-I 11 W/m 8,6 C 10,5 C 3,2 km/h (1 Bft) 100,00 %
18.05.2017 05:32 10,5 C 21,1 C 88 % 1013,2 hPa 0,0 l/m 2,5 km/h (1 Bft) O-NO 63 0 min 0,000 mm 0,0 UV-I 13 W/m 8,6 C 10,5 C 3,2 km/h (1 Bft) 97,37 %
18.05.2017 05:34 10,5 C 21,1 C 88 % 1013,2 hPa 0,0 l/m 1,6 km/h (1 Bft) O-NO 63 2 min 0,000 mm 0,0 UV-I 17 W/m 8,6 C 10,5 C 3,2 km/h (1 Bft) 100,00 %
18.05.2017 05:36 10,6 C 21,1 C 88 % 1013,1 hPa 0,0 l/m 0,4 km/h (0 Bft) O-NO 63 2 min 0,000 mm 0,0 UV-I 22 W/m 8,7 C 10,6 C 1,6 km/h (1 Bft) 98,00 %
18.05.2017 05:38 10,6 C 21,1 C 88 % 1013,2 hPa 0,0 l/m 0,0 km/h (0 Bft) O-NO 63 2 min 0,000 mm 0,0 UV-I 25 W/m 8,7 C 10,6 C 0,0 km/h (0 Bft) 98,00 %
18.05.2017 05:40 10,6 C 21,1 C 89 % 1013,2 hPa 0,0 l/m 1,1 km/h (1 Bft) O-NO 63 2 min 0,000 mm 0,0 UV-I 26 W/m 8,9 C 10,6 C 3,2 km/h (1 Bft) 100,00 %
18.05.2017 05:42 10,5 C 21,1 C 88 % 1013,1 hPa 0,0 l/m 1,6 km/h (1 Bft) O-NO 63 2 min 0,000 mm 0,0 UV-I 30 W/m 8,6 C 10,5 C 3,2 km/h (1 Bft) 100,00 %
18.05.2017 05:44 10,6 C 21,1 C 89 % 1013,2 hPa 0,0 l/m 1,1 km/h (1 Bft) O-NO 63 2 min 0,000 mm 0,0 UV-I 33 W/m 8,9 C 10,6 C 3,2 km/h (1 Bft) 100,00 %
18.05.2017 05:46 10,5 C 21,1 C 88 % 1013,2 hPa 0,0 l/m 0,1 km/h (0 Bft) O-NO 63 2 min 0,000 mm 0,0 UV-I 36 W/m 8,6 C 10,5 C 1,6 km/h (1 Bft) 100,00 %
18.05.2017 05:48 10,4 C 21,1 C 88 % 1013,2 hPa 0,0 l/m 0,0 km/h (0 Bft) O-NO 63 2 min 0,000 mm 0,0 UV-I 39 W/m 8,5 C 10,4 C 0,0 km/h (0 Bft) 97,87 %
18.05.2017 05:50 10,4 C 21,1 C 89 % 1013,2 hPa 0,0 l/m 0,0 km/h (0 Bft) O-NO 63 2 min 0,000 mm 0,0 UV-I 41 W/m 8,7 C 10,4 C 0,0 km/h (0 Bft) 100,00 %
18.05.2017 05:52 10,4 C 21,1 C 89 % 1013,2 hPa 0,0 l/m 1,8 km/h (1 Bft) O-NO 63 2 min 0,000 mm 0,0 UV-I 46 W/m 8,7 C 10,4 C 3,2 km/h (1 Bft) 94,34 %
18.05.2017 05:54 10,5 C 21,1 C 89 % 1013,2 hPa 0,0 l/m 1,7 km/h (1 Bft) O-NO 63 2 min 0,000 mm 0,0 UV-I 43 W/m 8,8 C 10,5 C 3,2 km/h (1 Bft) 100,00 %
18.05.2017 05:56 10,6 C 21,1 C 89 % 1013,2 hPa 0,0 l/m 1,8 km/h (1 Bft) O-NO 63 0 min 0,000 mm 0,0 UV-I 36 W/m 8,9 C 10,6 C 3,2 km/h (1 Bft) 97,56 %
18.05.2017 05:58 10,6 C 21,1 C 89 % 1013,2 hPa 0,0 l/m 0,4 km/h (0 Bft) O-NO 63 0 min 0,000 mm 0,0 UV-I 31 W/m 8,9 C 10,6 C 3,2 km/h (1 Bft) 98,21 %
18.05.2017 06:00 10,5 C 21,1 C 88 % 1013,2 hPa 0,0 l/m 0,0 km/h (0 Bft) O-NO 63 0 min 0,000 mm 0,0 UV-I 31 W/m 8,6 C 10,5 C 0,0 km/h (0 Bft) 93,62 %
18.05.2017 06:02 10,5 C 21,1 C 88 % 1013,1 hPa 0,0 l/m 0,0 km/h (0 Bft) O-NO 63 0 min 0,000 mm 0,0 UV-I 27 W/m 8,6 C 10,5 C 0,0 km/h (0 Bft) 96,00 %
18.05.2017 06:04 10,4 C 21,1 C 89 % 1013,2 hPa 0,0 l/m 0,0 km/h (0 Bft) O-NO 63 0 min 0,000 mm 0,0 UV-I 30 W/m 8,7 C 10,4 C 0,0 km/h (0 Bft) 93,62 %
18.05.2017 06:06 10,4 C 21,1 C 89 % 1013,1 hPa 0,0 l/m 0,0 km/h (0 Bft) O-NO 63 0 min 0,000 mm 0,0 UV-I 41 W/m 8,7 C 10,4 C 0,0 km/h (0 Bft) 93,62 %
18.05.2017 06:08 10,4 C 20,6 C 89 % 1013,1 hPa 0,0 l/m 0,0 km/h (0 Bft) O-NO 63 0 min 0,000 mm 0,0 UV-I 32 W/m 8,7 C 10,4 C 0,0 km/h (0 Bft) 93,62 %
18.05.2017 06:10 10,6 C 21,1 C 89 % 1013,1 hPa 0,0 l/m 0,0 km/h (0 Bft) O-NO 63 0 min 0,000 mm 0,0 UV-I 28 W/m 8,9 C 10,6 C 0,0 km/h (0 Bft) 95,12 %
18.05.2017 06:12 10,7 C 21,1 C 89 % 1013,1 hPa 0,0 l/m 0,0 km/h (0 Bft) O-NO 63 0 min 0,000 mm 0,0 UV-I 28 W/m 9,0 C 10,7 C 0,0 km/h (0 Bft) 92,00 %
18.05.2017 06:14 10,8 C 21,1 C 88 % 1013,1 hPa 0,0 l/m 0,0 km/h (0 Bft) O-NO 63 0 min 0,000 mm 0,0 UV-I 40 W/m 8,9 C 10,8 C 0,0 km/h (0 Bft) 94,00 %
18.05.2017 06:16 10,8 C 21,1 C 88 % 1013,1 hPa 0,0 l/m 0,0 km/h (0 Bft) O-NO 63 2 min 0,000 mm 0,0 UV-I 77 W/m 8,9 C 10,8 C 0,0 km/h (0 Bft) 91,67 %
18.05.2017 06:18 10,9 C 21,1 C 88 % 1013,2 hPa 0,0 l/m 1,4 km/h (1 Bft) O-NO 63 2 min 0,000 mm 0,0 UV-I 90 W/m 9,0 C 10,9 C 3,2 km/h (1 Bft) 94,00 %
18.05.2017 06:20 10,9 C 21,1 C 88 % 1013,2 hPa 0,0 l/m 1,2 km/h (1 Bft) O-NO 63 2 min 0,000 mm 0,0 UV-I 95 W/m 9,0 C 10,9 C 3,2 km/h (1 Bft) 88,68 %
18.05.2017 06:22 10,9 C 21,1 C 88 % 1013,2 hPa 0,0 l/m 0,9 km/h (0 Bft) O-NO 63 2 min 0,000 mm 0,0 UV-I 99 W/m 9,0 C 10,9 C 3,2 km/h (1 Bft) 93,62 %
18.05.2017 06:24 10,9 C 21,1 C 88 % 1013,2 hPa 0,0 l/m 0,0 km/h (0 Bft) O-NO 63 2 min 0,000 mm 0,0 UV-I 104 W/m 9,0 C 10,9 C 0,0 km/h (0 Bft) 89,47 %
18.05.2017 06:26 11,0 C 21,1 C 88 % 1013,1 hPa 0,0 l/m 0,0 km/h (0 Bft) O-NO 63 2 min 0,000 mm 0,0 UV-I 104 W/m 9,1 C 11,0 C 1,6 km/h (1 Bft) 90,00 %
18.05.2017 06:28 11,1 C 20,6 C 88 % 1013,1 hPa 0,0 l/m 0,0 km/h (0 Bft) O-NO 63 2 min 0,000 mm 0,0 UV-I 106 W/m 9,2 C 11,1 C 0,0 km/h (0 Bft) 94,00 %
18.05.2017 06:30 11,2 C 21,1 C 88 % 1013,1 hPa 0,0 l/m 0,0 km/h (0 Bft) O-NO 63 2 min 0,000 mm 0,0 UV-I 118 W/m 9,3 C 11,2 C 0,0 km/h (0 Bft) 94,00 %
18.05.2017 06:32 11,3 C 21,1 C 88 % 1013,1 hPa 0,0 l/m 0,0 km/h (0 Bft) O-NO 63 2 min 0,000 mm 0,0 UV-I 122 W/m 9,4 C 11,3 C 0,0 km/h (0 Bft) 95,00 %
18.05.2017 06:34 11,3 C 21,1 C 88 % 1013,2 hPa 0,0 l/m 0,0 km/h (0 Bft) O-NO 63 2 min 0,000 mm 0,0 UV-I 126 W/m 9,4 C 11,3 C 0,0 km/h (0 Bft) 95,74 %
18.05.2017 06:36 11,4 C 21,1 C 87 % 1013,1 hPa 0,0 l/m 0,0 km/h (0 Bft) O-NO 63 2 min 0,000 mm 0,0 UV-I 130 W/m 9,3 C 11,4 C 0,0 km/h (0 Bft) 90,00 %
18.05.2017 06:38 11,5 C 21,1 C 87 % 1013,1 hPa 0,0 l/m 0,0 km/h (0 Bft) O-NO 63 2 min 0,000 mm 0,0 UV-I 136 W/m 9,4 C 11,5 C 0,0 km/h (0 Bft) 92,00 %
18.05.2017 06:40 11,6 C 21,1 C 87 % 1013,1 hPa 0,0 l/m 0,0 km/h (0 Bft) O-NO 63 2 min 0,000 mm 0,0 UV-I 141 W/m 9,5 C 11,6 C 0,0 km/h (0 Bft) 92,11 %
18.05.2017 06:42 11,7 C 21,1 C 87 % 1013,1 hPa 0,0 l/m 0,0 km/h (0 Bft) O-NO 63 2 min 0,000 mm 0,0 UV-I 146 W/m 9,6 C 11,7 C 0,0 km/h (0 Bft) 94,00 %
18.05.2017 06:44 11,8 C 21,1 C 86 % 1013,1 hPa 0,0 l/m 0,0 km/h (0 Bft) O-NO 63 2 min 0,000 mm 0,0 UV-I 150 W/m 9,5 C 11,8 C 0,0 km/h (0 Bft) 95,74 %
18.05.2017 06:46 11,9 C 21,1 C 86 % 1013,1 hPa 0,0 l/m 0,0 km/h (0 Bft) O-NO 63 2 min 0,000 mm 0,0 UV-I 156 W/m 9,6 C 11,9 C 0,0 km/h (0 Bft) 90,57 %
18.05.2017 06:48 12,1 C 20,6 C 86 % 1013,1 hPa 0,0 l/m 0,0 km/h (0 Bft) O-NO 63 2 min 0,000 mm 0,0 UV-I 162 W/m 9,8 C 12,1 C 0,0 km/h (0 Bft) 97,37 %
18.05.2017 06:50 12,2 C 20,6 C 85 % 1013,1 hPa 0,0 l/m 0,0 km/h (0 Bft) O-NO 63 2 min 0,000 mm 0,0 UV-I 166 W/m 9,8 C 12,2 C 0,0 km/h (0 Bft) 94,00 %
18.05.2017 06:52 12,3 C 20,6 C 85 % 1013,1 hPa 0,0 l/m 0,0 km/h (0 Bft) O-NO 63 2 min 0,000 mm 0,0 UV-I 172 W/m 9,9 C 12,3 C 0,0 km/h (0 Bft) 92,00 %
18.05.2017 06:54 12,4 C 21,1 C 85 % 1013,1 hPa 0,0 l/m 0,0 km/h (0 Bft) O-NO 63 2 min 0,000 mm 0,0 UV-I 178 W/m 9,9 C 12,4 C 1,6 km/h (1 Bft) 96,00 %
18.05.2017 06:56 12,5 C 21,1 C 85 % 1013,1 hPa 0,0 l/m 0,6 km/h (0 Bft) O-NO 63 2 min 0,000 mm 0,0 UV-I 184 W/m 10,0 C 12,5 C 1,6 km/h (1 Bft) 100,00 %
18.05.2017 06:58 12,7 C 21,1 C 84 % 1013,1 hPa 0,0 l/m 0,0 km/h (0 Bft) O-NO 63 2 min 0,000 mm 0,0 UV-I 190 W/m 10,1 C 12,7 C 0,0 km/h (0 Bft) 97,87 %
18.05.2017 07:00 12,8 C 21,1 C 83 % 1013,1 hPa 0,0 l/m 1,3 km/h (1 Bft) O-NO 63 2 min 0,000 mm 0,0 UV-I 195 W/m 10,0 C 12,8 C 3,2 km/h (1 Bft) 95,74 %
18.05.2017 07:02 13,0 C 21,1 C 82 % 1013,1 hPa 0,0 l/m 3,3 km/h (1 Bft) O-SO 119 2 min 0,050 mm 0,0 UV-I 201 W/m 10,0 C 13,0 C 4,8 km/h (1 Bft) 100,00 %
18.05.2017 07:04 13,3 C 20,6 C 80 % 1013,1 hPa 0,0 l/m 2,1 km/h (1 Bft) O-SO 119 2 min 0,000 mm 0,0 UV-I 207 W/m 9,9 C 13,3 C 3,2 km/h (1 Bft) 97,87 %
18.05.2017 07:06 13,4 C 20,6 C 78 % 1013,1 hPa 0,0 l/m 3,9 km/h (1 Bft) O-SO 119 2 min 0,000 mm 0,0 UV-I 214 W/m 9,6 C 13,4 C 6,4 km/h (2 Bft) 100,00 %
18.05.2017 07:08 13,6 C 20,6 C 78 % 1013,1 hPa 0,0 l/m 1,9 km/h (1 Bft) O-SO 119 2 min 0,000 mm 0,0 UV-I 219 W/m 9,8 C 13,6 C 3,2 km/h (1 Bft) 96,00 %
18.05.2017 07:10 13,7 C 20,6 C 78 % 1013,1 hPa 0,0 l/m 1,8 km/h (1 Bft) O-SO 119 2 min 0,000 mm 0,0 UV-I 225 W/m 9,9 C 13,7 C 3,2 km/h (1 Bft) 100,00 %
18.05.2017 07:12 13,8 C 21,1 C 77 % 1013,1 hPa 0,0 l/m 2,3 km/h (1 Bft) O-SO 119 2 min 0,000 mm 0,0 UV-I 230 W/m 9,8 C 13,8 C 4,8 km/h (1 Bft) 95,74 %
18.05.2017 07:14 13,9 C 21,1 C 77 % 1013,1 hPa 0,0 l/m 0,7 km/h (0 Bft) O-SO 119 2 min 0,000 mm 0,0 UV-I 235 W/m 9,9 C 13,9 C 3,2 km/h (1 Bft) 92,45 %
18.05.2017 07:16 14,0 C 20,6 C 76 % 1013,1 hPa 0,0 l/m 2,7 km/h (1 Bft) O-SO 119 2 min 0,000 mm 0,0 UV-I 241 W/m 9,8 C 14,0 C 4,8 km/h (1 Bft) 96,00 %
18.05.2017 07:18 14,1 C 21,1 C 75 % 1013,2 hPa 0,0 l/m 1,5 km/h (1 Bft) O-SO 119 2 min 0,000 mm 0,5 UV-I 247 W/m 9,7 C 14,1 C 3,2 km/h (1 Bft) 90,24 %
18.05.2017 07:20 14,2 C 21,1 C 76 % 1013,2 hPa 0,0 l/m 1,6 km/h (1 Bft) O-SO 117 2 min 0,000 mm 0,5 UV-I 252 W/m 10,0 C 14,2 C 4,8 km/h (1 Bft) 100,00 %
18.05.2017 07:22 14,3 C 21,1 C 76 % 1013,2 hPa 0,0 l/m 3,7 km/h (1 Bft) O-SO 106 2 min 0,000 mm 0,5 UV-I 258 W/m 10,1 C 14,3 C 6,4 km/h (2 Bft) 100,00 %
18.05.2017 07:24 14,3 C 21,1 C 75 % 1013,1 hPa 0,0 l/m 2,3 km/h (1 Bft) O 82 2 min 0,000 mm 0,5 UV-I 264 W/m 9,9 C 14,3 C 6,4 km/h (2 Bft) 96,55 %
18.05.2017 07:26 14,3 C 21,1 C 75 % 1013,2 hPa 0,0 l/m 3,9 km/h (1 Bft) O-NO 78 2 min 0,000 mm 0,5 UV-I 250 W/m 9,9 C 14,3 C 6,4 km/h (2 Bft) 98,21 %
18.05.2017 07:28 14,4 C 21,1 C 75 % 1013,2 hPa 0,0 l/m 2,3 km/h (1 Bft) O-NO 78 2 min 0,000 mm 0,5 UV-I 243 W/m 10,0 C 14,4 C 4,8 km/h (1 Bft) 94,00 %
18.05.2017 07:30 14,4 C 21,1 C 74 % 1013,2 hPa 0,0 l/m 3,2 km/h (1 Bft) O-NO 78 2 min 0,000 mm 0,6 UV-I 266 W/m 9,8 C 14,4 C 4,8 km/h (1 Bft) 97,87 %
18.05.2017 07:32 14,4 C 21,1 C 75 % 1013,2 hPa 0,0 l/m 3,8 km/h (1 Bft) O-NO 74 2 min 0,000 mm 0,6 UV-I 288 W/m 10,0 C 14,4 C 4,8 km/h (1 Bft) 100,00 %
18.05.2017 07:34 14,6 C 21,1 C 75 % 1013,2 hPa 0,0 l/m 4,3 km/h (1 Bft) NO 48 2 min 0,000 mm 0,6 UV-I 296 W/m 10,2 C 14,6 C 6,4 km/h (2 Bft) 100,00 %
18.05.2017 07:36 14,6 C 21,1 C 74 % 1013,2 hPa 0,0 l/m 4,4 km/h (1 Bft) NO 49 2 min 0,000 mm 0,6 UV-I 302 W/m 10,0 C 14,6 C 6,4 km/h (2 Bft) 98,21 %
18.05.2017 07:38 14,6 C 21,1 C 74 % 1013,2 hPa 0,0 l/m 4,0 km/h (1 Bft) O-NO 58 2 min 0,000 mm 0,7 UV-I 308 W/m 10,0 C 14,6 C 6,4 km/h (2 Bft) 98,00 %
18.05.2017 07:40 14,7 C 21,1 C 75 % 1013,2 hPa 0,0 l/m 4,2 km/h (1 Bft) O-NO 69 2 min 0,000 mm 0,7 UV-I 314 W/m 10,3 C 14,7 C 6,4 km/h (2 Bft) 100,00 %
18.05.2017 07:42 14,7 C 21,1 C 74 % 1013,2 hPa 0,0 l/m 6,3 km/h (2 Bft) O-NO 67 2 min 0,000 mm 0,7 UV-I 320 W/m 10,1 C 14,7 C 8,0 km/h (2 Bft) 98,00 %
18.05.2017 07:44 14,7 C 21,1 C 73 % 1013,2 hPa 0,0 l/m 5,4 km/h (1 Bft) O-NO 65 2 min 0,000 mm 0,7 UV-I 326 W/m 9,9 C 14,7 C 8,0 km/h (2 Bft) 96,00 %
18.05.2017 07:46 14,7 C 21,1 C 73 % 1013,2 hPa 0,0 l/m 4,9 km/h (1 Bft) O-NO 65 2 min 0,000 mm 0,8 UV-I 331 W/m 9,9 C 14,7 C 6,4 km/h (2 Bft) 96,23 %
18.05.2017 07:48 14,7 C 21,1 C 72 % 1013,2 hPa 0,0 l/m 4,9 km/h (1 Bft) O-NO 63 2 min 0,000 mm 0,8 UV-I 337 W/m 9,7 C 14,7 C 8,0 km/h (2 Bft) 95,12 %
18.05.2017 07:50 14,7 C 21,1 C 73 % 1013,2 hPa 0,0 l/m 3,8 km/h (1 Bft) O-NO 63 2 min 0,000 mm 0,8 UV-I 342 W/m 9,9 C 14,7 C 6,4 km/h (2 Bft) 100,00 %
18.05.2017 07:52 14,8 C 21,1 C 74 % 1013,2 hPa 0,0 l/m 4,6 km/h (1 Bft) O-NO 63 2 min 0,000 mm 0,8 UV-I 343 W/m 10,2 C 14,8 C 6,4 km/h (2 Bft) 100,00 %
18.05.2017 07:54 14,8 C 21,1 C 74 % 1013,2 hPa 0,0 l/m 4,2 km/h (1 Bft) O-NO 63 2 min 0,000 mm 0,9 UV-I 347 W/m 10,2 C 14,8 C 6,4 km/h (2 Bft) 97,56 %
18.05.2017 07:56 14,9 C 21,1 C 74 % 1013,2 hPa 0,0 l/m 2,9 km/h (1 Bft) O-NO 63 2 min 0,000 mm 0,9 UV-I 355 W/m 10,3 C 14,9 C 4,8 km/h (1 Bft) 97,87 %
18.05.2017 07:58 15,0 C 21,1 C 74 % 1013,2 hPa 0,0 l/m 3,2 km/h (1 Bft) O-NO 63 2 min 0,000 mm 0,9 UV-I 361 W/m 10,4 C 15,0 C 4,8 km/h (1 Bft) 98,11 %
18.05.2017 08:00 15,2 C 21,1 C 76 % 1013,2 hPa 0,0 l/m 2,6 km/h (1 Bft) O-NO 63 2 min 0,153 mm 0,9 UV-I 368 W/m 11,0 C 15,2 C 4,8 km/h (1 Bft) 94,74 %
18.05.2017 08:02 15,3 C 21,1 C 77 % 1013,2 hPa 0,0 l/m 4,3 km/h (1 Bft) O-NO 62 2 min 0,000 mm 1,0 UV-I 375 W/m 11,3 C 15,3 C 6,4 km/h (2 Bft) 98,11 %
18.05.2017 08:04 15,4 C 21,1 C 75 % 1013,2 hPa 0,0 l/m 6,6 km/h (2 Bft) O-NO 57 2 min 0,000 mm 1,0 UV-I 371 W/m 11,0 C 15,3 C 9,7 km/h (2 Bft) 100,00 %
18.05.2017 08:06 15,4 C 21,1 C 72 % 1013,2 hPa 0,0 l/m 6,7 km/h (2 Bft) O-NO 58 2 min 0,000 mm 1,0 UV-I 370 W/m 10,4 C 15,2 C 9,7 km/h (2 Bft) 100,00 %
18.05.2017 08:08 15,4 C 21,1 C 73 % 1013,2 hPa 0,0 l/m 5,5 km/h (1 Bft) NO 39 2 min 0,000 mm 1,0 UV-I 378 W/m 10,6 C 15,4 C 8,0 km/h (2 Bft) 98,00 %
18.05.2017 08:10 15,6 C 21,1 C 73 % 1013,2 hPa 0,0 l/m 6,7 km/h (2 Bft) O-NO 69 2 min 0,000 mm 1,1 UV-I 383 W/m 10,8 C 15,4 C 8,0 km/h (2 Bft) 97,22 %
18.05.2017 08:12 15,6 C 21,1 C 72 % 1013,2 hPa 0,0 l/m 6,2 km/h (2 Bft) O-NO 71 2 min 0,000 mm 1,1 UV-I 395 W/m 10,6 C 15,6 C 9,7 km/h (2 Bft) 98,00 %
18.05.2017 08:14 15,6 C 21,1 C 72 % 1013,2 hPa 0,0 l/m 5,3 km/h (1 Bft) O-NO 57 2 min 0,000 mm 1,1 UV-I 405 W/m 10,6 C 15,6 C 8,0 km/h (2 Bft) 100,00 %
18.05.2017 08:16 15,7 C 21,1 C 72 % 1013,3 hPa 0,0 l/m 6,0 km/h (2 Bft) NO 46 2 min 0,000 mm 1,2 UV-I 412 W/m 10,7 C 15,7 C 8,0 km/h (2 Bft) 95,74 %
18.05.2017 08:18 15,8 C 21,1 C 73 % 1013,2 hPa 0,0 l/m 4,4 km/h (1 Bft) O-NO 57 2 min 0,000 mm 1,2 UV-I 419 W/m 11,0 C 15,8 C 6,4 km/h (2 Bft) 94,34 %
18.05.2017 08:20 15,9 C 21,1 C 70 % 1013,3 hPa 0,0 l/m 4,1 km/h (1 Bft) O-NO 58 2 min 0,000 mm 1,2 UV-I 426 W/m 10,4 C 15,9 C 8,0 km/h (2 Bft) 97,56 %
18.05.2017 08:22 16,0 C 21,1 C 71 % 1013,2 hPa 0,0 l/m 5,4 km/h (1 Bft) NO 54 2 min 0,000 mm 1,3 UV-I 433 W/m 10,7 C 16,0 C 8,0 km/h (2 Bft) 94,00 %
18.05.2017 08:24 16,1 C 21,1 C 72 % 1013,3 hPa 0,0 l/m 4,0 km/h (1 Bft) NO 53 2 min 0,000 mm 1,3 UV-I 436 W/m 11,0 C 16,1 C 6,4 km/h (2 Bft) 95,74 %
18.05.2017 08:26 16,1 C 21,1 C 72 % 1013,2 hPa 0,0 l/m 3,7 km/h (1 Bft) NO 55 2 min 0,000 mm 1,3 UV-I 446 W/m 11,0 C 16,1 C 8,0 km/h (2 Bft) 97,87 %
18.05.2017 08:28 16,2 C 21,1 C 73 % 1013,2 hPa 0,0 l/m 4,7 km/h (1 Bft) NO 49 2 min 0,000 mm 1,4 UV-I 455 W/m 11,4 C 16,2 C 8,0 km/h (2 Bft) 96,00 %
18.05.2017 08:30 16,3 C 21,1 C 71 % 1013,2 hPa 0,0 l/m 4,3 km/h (1 Bft) NO 44 2 min 0,000 mm 1,4 UV-I 459 W/m 11,0 C 16,3 C 6,4 km/h (2 Bft) 97,14 %
18.05.2017 08:32 16,3 C 21,1 C 73 % 1013,2 hPa 0,0 l/m 4,0 km/h (1 Bft) NO 44 2 min 0,000 mm 1,4 UV-I 466 W/m 11,4 C 16,3 C 6,4 km/h (2 Bft) 94,64 %
18.05.2017 08:34 16,4 C 21,1 C 73 % 1013,2 hPa 0,0 l/m 3,9 km/h (1 Bft) NO 44 2 min 0,000 mm 1,5 UV-I 471 W/m 11,5 C 16,4 C 6,4 km/h (2 Bft) 95,74 %
18.05.2017 08:36 16,5 C 21,1 C 72 % 1013,2 hPa 0,0 l/m 5,9 km/h (2 Bft) NO 45 2 min 0,000 mm 1,5 UV-I 477 W/m 11,4 C 16,5 C 8,0 km/h (2 Bft) 94,00 %
18.05.2017 08:38 16,5 C 21,1 C 71 % 1013,3 hPa 0,0 l/m 4,5 km/h (1 Bft) NO 41 2 min 0,000 mm 1,6 UV-I 483 W/m 11,2 C 16,5 C 8,0 km/h (2 Bft) 97,37 %
18.05.2017 08:40 16,6 C 21,1 C 74 % 1013,3 hPa 0,0 l/m 3,8 km/h (1 Bft) NO 48 2 min 0,000 mm 1,6 UV-I 488 W/m 11,9 C 16,6 C 6,4 km/h (2 Bft) 95,74 %
18.05.2017 08:43 16,7 C 21,1 C 73 % 1013,2 hPa 0,0 l/m 4,6 km/h (1 Bft) NO 40 3 min 0,000 mm 1,6 UV-I 495 W/m 11,8 C 16,7 C 6,4 km/h (2 Bft) 94,81 %
18.05.2017 08:44 16,7 C 21,1 C 72 % 1013,3 hPa 0,0 l/m 4,0 km/h (1 Bft) NO 40 1 min 0,000 mm 1,7 UV-I 502 W/m 11,6 C 16,7 C 8,0 km/h (2 Bft) 95,65 %
18.05.2017 08:46 16,7 C 21,1 C 70 % 1013,3 hPa 0,0 l/m 1,6 km/h (1 Bft) NO 40 2 min 0,000 mm 1,7 UV-I 503 W/m 11,2 C 16,7 C 3,2 km/h (1 Bft) 96,00 %
18.05.2017 08:48 16,7 C 21,1 C 72 % 1013,2 hPa 0,0 l/m 5,5 km/h (1 Bft) NO 40 2 min 0,000 mm 1,8 UV-I 507 W/m 11,6 C 16,7 C 8,0 km/h (2 Bft) 97,37 %
18.05.2017 08:50 16,8 C 21,1 C 70 % 1013,3 hPa 0,0 l/m 4,3 km/h (1 Bft) NO 40 2 min 0,000 mm 1,8 UV-I 507 W/m 11,3 C 16,8 C 6,4 km/h (2 Bft) 96,23 %
18.05.2017 08:52 16,8 C 21,1 C 70 % 1013,4 hPa 0,0 l/m 4,3 km/h (1 Bft) NO 40 2 min 0,000 mm 1,9 UV-I 506 W/m 11,3 C 16,8 C 8,0 km/h (2 Bft) 100,00 %
18.05.2017 08:54 16,8 C 21,1 C 69 % 1013,3 hPa 0,0 l/m 4,4 km/h (1 Bft) NO 41 2 min 0,000 mm 1,9 UV-I 513 W/m 11,1 C 16,8 C 6,4 km/h (2 Bft) 94,34 %
18.05.2017 08:56 16,8 C 21,1 C 70 % 1013,4 hPa 0,0 l/m 2,6 km/h (1 Bft) NO 42 2 min 0,000 mm 1,9 UV-I 516 W/m 11,3 C 16,8 C 4,8 km/h (1 Bft) 98,00 %
18.05.2017 08:58 17,0 C 21,1 C 69 % 1013,3 hPa 0,0 l/m 3,8 km/h (1 Bft) NO 55 2 min 0,000 mm 2,0 UV-I 522 W/m 11,3 C 17,0 C 8,0 km/h (2 Bft) 96,00 %
18.05.2017 09:00 17,2 C 21,1 C 69 % 1013,3 hPa 0,0 l/m 5,2 km/h (1 Bft) NO 44 2 min 0,254 mm 2,0 UV-I 526 W/m 11,5 C 17,2 C 8,0 km/h (2 Bft) 95,74 %
18.05.2017 09:02 17,3 C 21,1 C 70 % 1013,3 hPa 0,0 l/m 5,1 km/h (1 Bft) O-NO 60 2 min 0,000 mm 2,1 UV-I 535 W/m 11,8 C 17,3 C 6,4 km/h (2 Bft) 92,11 %
18.05.2017 09:04 17,4 C 21,1 C 70 % 1013,3 hPa 0,0 l/m 4,3 km/h (1 Bft) NO 55 2 min 0,000 mm 2,1 UV-I 543 W/m 11,9 C 17,4 C 8,0 km/h (2 Bft) 94,64 %
18.05.2017 09:06 17,4 C 21,1 C 69 % 1013,3 hPa 0,0 l/m 3,4 km/h (1 Bft) NO 55 2 min 0,000 mm 2,1 UV-I 551 W/m 11,7 C 17,4 C 4,8 km/h (1 Bft) 95,12 %
18.05.2017 09:08 17,6 C 21,1 C 70 % 1013,3 hPa 0,0 l/m 5,1 km/h (1 Bft) NO 56 2 min 0,000 mm 2,2 UV-I 555 W/m 12,1 C 17,6 C 6,4 km/h (2 Bft) 95,74 %
18.05.2017 09:10 17,7 C 21,1 C 70 % 1013,3 hPa 0,0 l/m 4,2 km/h (1 Bft) O-NO 57 2 min 0,000 mm 2,2 UV-I 563 W/m 12,2 C 17,7 C 6,4 km/h (2 Bft) 97,87 %
18.05.2017 09:12 17,7 C 21,1 C 70 % 1013,4 hPa 0,0 l/m 4,0 km/h (1 Bft) O-SO 104 2 min 0,000 mm 2,3 UV-I 571 W/m 12,2 C 17,7 C 6,4 km/h (2 Bft) 94,00 %
18.05.2017 09:14 17,7 C 21,1 C 70 % 1013,4 hPa 0,0 l/m 3,5 km/h (1 Bft) O-NO 60 2 min 0,000 mm 2,3 UV-I 576 W/m 12,2 C 17,7 C 4,8 km/h (1 Bft) 96,00 %
18.05.2017 09:16 17,8 C 21,1 C 68 % 1013,4 hPa 0,0 l/m 4,5 km/h (1 Bft) NO 47 2 min 0,000 mm 2,4 UV-I 580 W/m 11,8 C 17,8 C 8,0 km/h (2 Bft) 94,74 %
18.05.2017 09:18 17,9 C 21,1 C 70 % 1013,4 hPa 0,0 l/m 4,3 km/h (1 Bft) N-NO 26 2 min 0,000 mm 2,4 UV-I 586 W/m 12,3 C 17,9 C 6,4 km/h (2 Bft) 98,00 %
18.05.2017 09:20 18,1 C 21,1 C 68 % 1013,4 hPa 0,0 l/m 2,7 km/h (1 Bft) O-NO 70 2 min 0,000 mm 2,5 UV-I 589 W/m 12,1 C 18,1 C 6,4 km/h (2 Bft) 97,87 %
18.05.2017 09:22 18,0 C 21,1 C 68 % 1013,4 hPa 0,0 l/m 3,6 km/h (1 Bft) O-NO 68 2 min 0,000 mm 2,5 UV-I 593 W/m 12,0 C 18,0 C 6,4 km/h (2 Bft) 93,62 %
18.05.2017 09:24 17,9 C 21,1 C 67 % 1013,3 hPa 0,0 l/m 2,6 km/h (1 Bft) O-NO 70 2 min 0,000 mm 2,6 UV-I 599 W/m 11,7 C 17,9 C 4,8 km/h (1 Bft) 96,00 %
18.05.2017 09:26 17,9 C 21,1 C 68 % 1013,3 hPa 0,0 l/m 6,1 km/h (2 Bft) O 89 2 min 0,000 mm 2,6 UV-I 605 W/m 11,9 C 17,9 C 11,3 km/h (2 Bft) 97,37 %
18.05.2017 09:28 18,2 C 21,1 C 68 % 1013,4 hPa 0,0 l/m 5,9 km/h (2 Bft) NO 44 2 min 0,000 mm 2,7 UV-I 608 W/m 12,2 C 18,2 C 8,0 km/h (2 Bft) 98,00 %
18.05.2017 09:30 18,3 C 21,1 C 70 % 1013,4 hPa 0,0 l/m 5,2 km/h (1 Bft) NO 53 2 min 0,000 mm 2,7 UV-I 608 W/m 12,7 C 18,3 C 6,4 km/h (2 Bft) 94,34 %
18.05.2017 09:32 18,3 C 21,1 C 68 % 1013,4 hPa 0,0 l/m 5,6 km/h (1 Bft) O 81 2 min 0,000 mm 2,7 UV-I 617 W/m 12,3 C 18,3 C 8,0 km/h (2 Bft) 94,44 %
18.05.2017 09:34 18,3 C 21,1 C 67 % 1013,4 hPa 0,0 l/m 3,7 km/h (1 Bft) O-NO 64 2 min 0,000 mm 2,8 UV-I 624 W/m 12,1 C 18,3 C 6,4 km/h (2 Bft) 96,36 %
18.05.2017 09:36 18,2 C 21,1 C 68 % 1013,4 hPa 0,0 l/m 2,2 km/h (1 Bft) O-NO 64 2 min 0,000 mm 2,8 UV-I 629 W/m 12,2 C 18,2 C 3,2 km/h (1 Bft) 92,31 %
18.05.2017 09:38 18,4 C 21,1 C 71 % 1013,3 hPa 0,0 l/m 4,3 km/h (1 Bft) NO 48 2 min 0,000 mm 2,9 UV-I 632 W/m 13,0 C 18,4 C 6,4 km/h (2 Bft) 90,57 %
18.05.2017 09:40 18,6 C 21,1 C 67 % 1013,3 hPa 0,0 l/m 7,5 km/h (2 Bft) O 92 2 min 0,000 mm 2,9 UV-I 629 W/m 12,3 C 18,1 C 9,7 km/h (2 Bft) 98,11 %
18.05.2017 09:42 18,7 C 21,1 C 69 % 1013,3 hPa 0,0 l/m 4,4 km/h (1 Bft) O-NO 74 2 min 0,000 mm 3,0 UV-I 642 W/m 12,9 C 18,7 C 6,4 km/h (2 Bft) 97,37 %
18.05.2017 09:44 18,7 C 21,1 C 66 % 1013,4 hPa 0,0 l/m 5,3 km/h (1 Bft) O-NO 74 2 min 0,000 mm 3,0 UV-I 648 W/m 12,2 C 18,7 C 8,0 km/h (2 Bft) 98,00 %
18.05.2017 09:46 18,8 C 21,1 C 69 % 1013,3 hPa 0,0 l/m 5,4 km/h (1 Bft) O 97 2 min 0,000 mm 3,1 UV-I 652 W/m 13,0 C 18,8 C 9,7 km/h (2 Bft) 95,74 %
18.05.2017 09:48 18,9 C 21,1 C 65 % 1013,3 hPa 0,0 l/m 5,3 km/h (1 Bft) O-NO 68 2 min 0,000 mm 3,1 UV-I 657 W/m 12,2 C 18,9 C 9,7 km/h (2 Bft) 95,74 %
18.05.2017 09:50 18,9 C 21,1 C 65 % 1013,3 hPa 0,0 l/m 5,6 km/h (1 Bft) O-SO 107 2 min 0,000 mm 3,2 UV-I 661 W/m 12,2 C 18,9 C 9,7 km/h (2 Bft) 98,00 %
18.05.2017 09:52 19,0 C 21,1 C 66 % 1013,3 hPa 0,0 l/m 6,8 km/h (2 Bft) NO 55 2 min 0,000 mm 3,2 UV-I 665 W/m 12,5 C 18,8 C 9,7 km/h (2 Bft) 97,37 %
18.05.2017 09:54 19,1 C 21,1 C 66 % 1013,4 hPa 0,0 l/m 7,5 km/h (2 Bft) O-NO 75 2 min 0,000 mm 3,3 UV-I 670 W/m 12,6 C 18,6 C 12,9 km/h (3 Bft) 98,00 %
18.05.2017 09:56 19,2 C 21,1 C 64 % 1013,3 hPa 0,0 l/m 7,3 km/h (2 Bft) O-NO 71 2 min 0,000 mm 3,3 UV-I 673 W/m 12,2 C 18,8 C 11,3 km/h (2 Bft) 100,00 %
18.05.2017 09:59 19,2 C 21,1 C 65 % 1013,2 hPa 0,0 l/m 7,2 km/h (2 Bft) O-NO 71 3 min 0,000 mm 3,4 UV-I 680 W/m 12,5 C 18,9 C 12,9 km/h (3 Bft) 98,53 %
18.05.2017 10:00 19,2 C 21,1 C 65 % 1013,2 hPa 0,0 l/m 7,3 km/h (2 Bft) O 82 1 min 0,000 mm 3,4 UV-I 684 W/m 12,5 C 18,8 C 9,7 km/h (2 Bft) 100,00 %
18.05.2017 10:02 19,3 C 21,1 C 66 % 1013,3 hPa 0,0 l/m 7,1 km/h (2 Bft) O-NO 74 2 min 0,355 mm 3,4 UV-I 688 W/m 12,8 C 19,0 C 11,3 km/h (2 Bft) 94,29 %
18.05.2017 10:04 19,4 C 21,1 C 66 % 1013,3 hPa 0,0 l/m 7,8 km/h (2 Bft) O-NO 70 2 min 0,000 mm 3,5 UV-I 692 W/m 12,9 C 18,8 C 12,9 km/h (3 Bft) 98,21 %
18.05.2017 10:06 19,5 C 21,1 C 66 % 1013,2 hPa 0,0 l/m 6,9 km/h (2 Bft) O-NO 61 2 min 0,000 mm 3,5 UV-I 696 W/m 13,0 C 19,3 C 11,3 km/h (2 Bft) 100,00 %
18.05.2017 10:08 19,6 C 21,1 C 63 % 1013,2 hPa 0,0 l/m 6,1 km/h (2 Bft) O-NO 62 2 min 0,000 mm 3,6 UV-I 700 W/m 12,4 C 19,6 C 8,0 km/h (2 Bft) 100,00 %
18.05.2017 10:10 19,6 C 21,1 C 66 % 1013,2 hPa 0,0 l/m 7,3 km/h (2 Bft) O-NO 78 2 min 0,000 mm 3,6 UV-I 703 W/m 13,1 C 19,2 C 11,3 km/h (2 Bft) 95,56 %
18.05.2017 10:12 19,7 C 21,1 C 66 % 1013,2 hPa 0,0 l/m 8,3 km/h (2 Bft) O-NO 75 2 min 0,000 mm 3,7 UV-I 708 W/m 13,2 C 18,9 C 12,9 km/h (3 Bft) 94,74 %
18.05.2017 10:14 19,7 C 21,1 C 64 % 1013,1 hPa 0,0 l/m 7,1 km/h (2 Bft) O-NO 71 2 min 0,000 mm 3,7 UV-I 712 W/m 12,7 C 19,4 C 12,9 km/h (3 Bft) 98,31 %
18.05.2017 10:16 19,7 C 21,1 C 63 % 1013,1 hPa 0,0 l/m 9,1 km/h (2 Bft) O-NO 67 2 min 0,000 mm 3,8 UV-I 716 W/m 12,5 C 18,6 C 11,3 km/h (2 Bft) 94,74 %
18.05.2017 10:18 19,7 C 21,1 C 63 % 1013,2 hPa 0,0 l/m 8,8 km/h (2 Bft) O-NO 75 2 min 0,000 mm 3,8 UV-I 720 W/m 12,5 C 18,7 C 12,9 km/h (3 Bft) 98,25 %
18.05.2017 10:20 19,6 C 21,1 C 63 % 1013,1 hPa 0,0 l/m 7,0 km/h (2 Bft) O 82 2 min 0,000 mm 3,9 UV-I 723 W/m 12,4 C 19,3 C 11,3 km/h (2 Bft) 98,00 %
18.05.2017 10:22 19,8 C 21,1 C 66 % 1013,2 hPa 0,0 l/m 7,0 km/h (2 Bft) O 82 2 min 0,000 mm 3,9 UV-I 728 W/m 13,3 C 19,6 C 12,9 km/h (3 Bft) 94,29 %
18.05.2017 10:24 19,9 C 21,1 C 65 % 1013,2 hPa 0,0 l/m 7,0 km/h (2 Bft) NO 53 2 min 0,000 mm 4,0 UV-I 731 W/m 13,1 C 19,7 C 11,3 km/h (2 Bft) 96,23 %
18.05.2017 10:26 20,0 C 21,1 C 63 % 1013,2 hPa 0,0 l/m 9,3 km/h (2 Bft) O-NO 63 2 min 0,000 mm 4,0 UV-I 736 W/m 12,7 C 18,9 C 14,5 km/h (3 Bft) 95,74 %
18.05.2017 10:28 20,2 C 21,1 C 62 % 1013,2 hPa 0,0 l/m 8,6 km/h (2 Bft) NO 53 2 min 0,000 mm 4,0 UV-I 739 W/m 12,7 C 19,3 C 11,3 km/h (2 Bft) 93,62 %
18.05.2017 10:30 20,2 C 21,1 C 61 % 1013,2 hPa 0,0 l/m 7,7 km/h (2 Bft) O-NO 74 2 min 0,000 mm 4,1 UV-I 743 W/m 12,4 C 19,7 C 11,3 km/h (2 Bft) 95,12 %
18.05.2017 10:32 20,3 C 21,7 C 65 % 1013,2 hPa 0,0 l/m 8,7 km/h (2 Bft) O-NO 72 2 min 0,000 mm 4,1 UV-I 747 W/m 13,5 C 19,4 C 12,9 km/h (3 Bft) 98,00 %
18.05.2017 10:34 20,4 C 21,1 C 61 % 1013,2 hPa 0,0 l/m 7,4 km/h (2 Bft) O-NO 67 2 min 0,000 mm 4,2 UV-I 751 W/m 12,6 C 20,0 C 14,5 km/h (3 Bft) 94,34 %
18.05.2017 10:36 20,4 C 21,1 C 62 % 1013,2 hPa 0,0 l/m 7,9 km/h (2 Bft) O-NO 71 2 min 0,000 mm 4,2 UV-I 754 W/m 12,9 C 19,8 C 12,9 km/h (3 Bft) 97,37 %
18.05.2017 10:38 20,4 C 21,1 C 62 % 1013,2 hPa 0,0 l/m 6,5 km/h (2 Bft) O-SO 106 2 min 0,000 mm 4,3 UV-I 758 W/m 12,9 C 20,4 C 11,3 km/h (2 Bft) 95,74 %
18.05.2017 10:40 20,3 C 21,1 C 62 % 1013,2 hPa 0,0 l/m 8,0 km/h (2 Bft) O-NO 73 2 min 0,000 mm 4,3 UV-I 760 W/m 12,8 C 19,7 C 12,9 km/h (3 Bft) 97,87 %
18.05.2017 10:42 20,4 C 21,1 C 63 % 1013,2 hPa 0,0 l/m 7,2 km/h (2 Bft) O 80 2 min 0,000 mm 4,3 UV-I 764 W/m 13,1 C 20,1 C 12,9 km/h (3 Bft) 96,23 %
18.05.2017 10:44 20,4 C 21,1 C 61 % 1013,2 hPa 0,0 l/m 5,7 km/h (1 Bft) NO 51 2 min 0,000 mm 4,4 UV-I 768 W/m 12,6 C 20,4 C 8,0 km/h (2 Bft) 100,00 %
18.05.2017 10:46 20,6 C 21,1 C 60 % 1013,2 hPa 0,0 l/m 5,7 km/h (1 Bft) O-NO 62 2 min 0,000 mm 4,4 UV-I 770 W/m 12,6 C 20,6 C 9,7 km/h (2 Bft) 96,23 %
18.05.2017 10:48 20,6 C 21,1 C 60 % 1013,2 hPa 0,0 l/m 7,9 km/h (2 Bft) O-NO 65 2 min 0,000 mm 4,5 UV-I 775 W/m 12,6 C 20,0 C 9,7 km/h (2 Bft) 97,62 %
18.05.2017 10:50 20,7 C 21,1 C 62 % 1013,1 hPa 0,0 l/m 7,1 km/h (2 Bft) O-NO 67 2 min 0,000 mm 4,5 UV-I 779 W/m 13,2 C 20,4 C 9,7 km/h (2 Bft) 100,00 %
18.05.2017 10:52 20,9 C 21,7 C 63 % 1013,1 hPa 0,0 l/m 6,6 km/h (2 Bft) O-NO 76 2 min 0,000 mm 4,6 UV-I 781 W/m 13,6 C 20,8 C 11,3 km/h (2 Bft) 96,23 %
18.05.2017 10:54 20,9 C 21,1 C 61 % 1013,1 hPa 0,0 l/m 7,7 km/h (2 Bft) NO 42 2 min 0,000 mm 4,6 UV-I 785 W/m 13,1 C 20,4 C 11,3 km/h (2 Bft) 100,00 %
18.05.2017 10:56 20,9 C 21,7 C 59 % 1013,1 hPa 0,0 l/m 6,7 km/h (2 Bft) NO 35 2 min 0,000 mm 4,7 UV-I 788 W/m 12,6 C 20,8 C 12,9 km/h (3 Bft) 98,11 %
18.05.2017 10:58 20,9 C 21,7 C 64 % 1013,1 hPa 0,0 l/m 7,1 km/h (2 Bft) O 81 2 min 0,000 mm 4,7 UV-I 789 W/m 13,8 C 20,6 C 12,9 km/h (3 Bft) 97,37 %
18.05.2017 11:00 20,9 C 21,7 C 61 % 1013,1 hPa 0,0 l/m 10,3 km/h (2 Bft) O 84 2 min 0,458 mm 4,8 UV-I 793 W/m 13,1 C 19,5 C 14,5 km/h (3 Bft) 98,11 %
18.05.2017 11:02 20,9 C 21,7 C 59 % 1013,1 hPa 0,0 l/m 5,4 km/h (1 Bft) SO 129 2 min 0,000 mm 4,8 UV-I 795 W/m 12,6 C 20,9 C 9,7 km/h (2 Bft) 100,00 %
18.05.2017 11:04 20,9 C 21,7 C 63 % 1013,1 hPa 0,0 l/m 7,5 km/h (2 Bft) NO 42 2 min 0,000 mm 4,8 UV-I 797 W/m 13,6 C 20,5 C 12,9 km/h (3 Bft) 98,21 %
18.05.2017 11:06 21,0 C 21,7 C 65 % 1013,1 hPa 0,0 l/m 6,0 km/h (2 Bft) NO 49 2 min 0,000 mm 4,9 UV-I 801 W/m 14,2 C 21,0 C 9,7 km/h (2 Bft) 97,56 %
18.05.2017 11:08 21,1 C 21,7 C 62 % 1013,0 hPa 0,0 l/m 7,6 km/h (2 Bft) O-NO 67 2 min 0,000 mm 4,9 UV-I 805 W/m 13,5 C 20,7 C 14,5 km/h (3 Bft) 100,00 %
18.05.2017 11:10 21,1 C 21,7 C 60 % 1013,0 hPa 0,0 l/m 4,7 km/h (1 Bft) O 82 2 min 0,000 mm 4,9 UV-I 807 W/m 13,0 C 21,1 C 6,4 km/h (2 Bft) 98,11 %
18.05.2017 11:12 21,2 C 21,7 C 64 % 1012,9 hPa 0,0 l/m 7,5 km/h (2 Bft) O-NO 74 2 min 0,000 mm 5,0 UV-I 810 W/m 14,1 C 20,8 C 12,9 km/h (3 Bft) 100,00 %
18.05.2017 11:14 21,3 C 21,7 C 63 % 1012,9 hPa 0,0 l/m 8,3 km/h (2 Bft) O-NO 77 2 min 0,000 mm 5,0 UV-I 815 W/m 14,0 C 20,6 C 11,3 km/h (2 Bft) 100,00 %
18.05.2017 11:16 21,3 C 21,7 C 61 % 1012,9 hPa 0,0 l/m 4,7 km/h (1 Bft) O-NO 76 2 min 0,000 mm 5,1 UV-I 816 W/m 13,5 C 21,3 C 8,0 km/h (2 Bft) 100,00 %
18.05.2017 11:18 21,3 C 21,7 C 62 % 1012,9 hPa 0,0 l/m 3,9 km/h (1 Bft) N-NO 24 2 min 0,000 mm 5,1 UV-I 818 W/m 13,7 C 21,3 C 8,0 km/h (2 Bft) 96,23 %
18.05.2017 11:20 21,4 C 21,7 C 63 % 1012,9 hPa 0,0 l/m 6,4 km/h (2 Bft) NO 40 2 min 0,000 mm 5,1 UV-I 822 W/m 14,1 C 21,4 C 8,0 km/h (2 Bft) 98,00 %
18.05.2017 11:22 21,6 C 21,7 C 58 % 1012,9 hPa 0,0 l/m 8,6 km/h (2 Bft) O-NO 76 2 min 0,000 mm 5,2 UV-I 824 W/m 13,0 C 20,8 C 12,9 km/h (3 Bft) 97,56 %
18.05.2017 11:24 21,8 C 21,7 C 60 % 1012,9 hPa 0,0 l/m 5,2 km/h (1 Bft) O-NO 72 2 min 0,000 mm 5,2 UV-I 828 W/m 13,7 C 21,8 C 9,7 km/h (2 Bft) 98,11 %
18.05.2017 11:26 21,8 C 21,7 C 61 % 1012,9 hPa 0,0 l/m 5,8 km/h (2 Bft) O-NO 67 2 min 0,000 mm 5,3 UV-I 830 W/m 13,9 C 21,8 C 9,7 km/h (2 Bft) 97,22 %
18.05.2017 11:28 21,8 C 21,7 C 59 % 1012,9 hPa 0,0 l/m 4,5 km/h (1 Bft) O-NO 70 2 min 0,000 mm 5,3 UV-I 831 W/m 13,4 C 21,8 C 6,4 km/h (2 Bft) 98,08 %
18.05.2017 11:30 21,8 C 21,7 C 63 % 1012,9 hPa 0,0 l/m 2,4 km/h (1 Bft) O-NO 59 2 min 0,000 mm 5,3 UV-I 833 W/m 14,4 C 21,8 C 6,4 km/h (2 Bft) 96,00 %
18.05.2017 11:32 22,2 C 21,7 C 60 % 1012,8 hPa 0,0 l/m 9,9 km/h (2 Bft) O-NO 69 2 min 0,000 mm 5,4 UV-I 837 W/m 14,1 C 21,1 C 16,1 km/h (3 Bft) 98,00 %
18.05.2017 11:34 22,2 C 21,7 C 60 % 1012,9 hPa 0,0 l/m 10,0 km/h (2 Bft) NO 55 2 min 0,000 mm 5,4 UV-I 841 W/m 14,1 C 21,1 C 17,7 km/h (3 Bft) 97,92 %
18.05.2017 11:36 22,2 C 21,7 C 60 % 1012,9 hPa 0,0 l/m 6,5 km/h (2 Bft) NO 54 2 min 0,000 mm 5,5 UV-I 842 W/m 14,1 C 22,2 C 12,9 km/h (3 Bft) 100,00 %
18.05.2017 11:38 22,1 C 21,7 C 58 % 1012,8 hPa 0,0 l/m 6,6 km/h (2 Bft) O-NO 57 2 min 0,000 mm 5,5 UV-I 844 W/m 13,4 C 22,0 C 12,9 km/h (3 Bft) 96,23 %
18.05.2017 11:40 22,1 C 21,7 C 59 % 1012,8 hPa 0,0 l/m 5,2 km/h (1 Bft) NO 44 2 min 0,000 mm 5,5 UV-I 844 W/m 13,7 C 22,1 C 8,0 km/h (2 Bft) 100,00 %
18.05.2017 11:42 22,3 C 21,7 C 59 % 1012,8 hPa 0,0 l/m 9,3 km/h (2 Bft) O-NO 68 2 min 0,000 mm 5,6 UV-I 850 W/m 13,9 C 21,4 C 14,5 km/h (3 Bft) 95,45 %
18.05.2017 11:44 22,3 C 21,7 C 59 % 1012,8 hPa 0,0 l/m 7,4 km/h (2 Bft) O-NO 70 2 min 0,000 mm 5,6 UV-I 851 W/m 13,9 C 22,0 C 11,3 km/h (2 Bft) 100,00 %
18.05.2017 11:46 22,2 C 21,7 C 55 % 1012,8 hPa 0,0 l/m 5,1 km/h (1 Bft) NO 40 2 min 0,000 mm 5,6 UV-I 852 W/m 12,7 C 22,2 C 8,0 km/h (2 Bft) 100,00 %
18.05.2017 11:48 22,2 C 21,7 C 60 % 1012,7 hPa 0,0 l/m 3,8 km/h (1 Bft) NO 44 2 min 0,000 mm 5,6 UV-I 855 W/m 14,1 C 22,2 C 8,0 km/h (2 Bft) 100,00 %
18.05.2017 11:50 22,4 C 21,7 C 57 % 1012,8 hPa 0,0 l/m 9,5 km/h (2 Bft) O 81 2 min 0,000 mm 5,7 UV-I 857 W/m 13,5 C 21,4 C 16,1 km/h (3 Bft) 97,37 %
18.05.2017 11:52 22,5 C 21,7 C 59 % 1012,7 hPa 0,0 l/m 8,6 km/h (2 Bft) O-NO 62 2 min 0,000 mm 5,7 UV-I 859 W/m 14,1 C 21,8 C 11,3 km/h (2 Bft) 100,00 %
18.05.2017 11:54 22,6 C 21,7 C 57 % 1012,7 hPa 0,0 l/m 5,7 km/h (1 Bft) O-NO 76 2 min 0,000 mm 5,7 UV-I 860 W/m 13,6 C 22,6 C 9,7 km/h (2 Bft) 98,00 %
18.05.2017 11:56 22,6 C 21,7 C 57 % 1012,7 hPa 0,0 l/m 4,7 km/h (1 Bft) NO 36 2 min 0,000 mm 5,8 UV-I 862 W/m 13,6 C 22,6 C 8,0 km/h (2 Bft) 100,00 %
18.05.2017 11:58 22,7 C 21,7 C 57 % 1012,7 hPa 0,0 l/m 9,3 km/h (2 Bft) NO 53 2 min 0,000 mm 5,8 UV-I 862 W/m 13,7 C 21,8 C 14,5 km/h (3 Bft) 98,11 %
18.05.2017 12:00 22,7 C 21,7 C 57 % 1012,6 hPa 0,0 l/m 7,7 km/h (2 Bft) O-NO 58 2 min 0,000 mm 5,8 UV-I 865 W/m 13,7 C 22,3 C 14,5 km/h (3 Bft) 100,00 %
18.05.2017 12:02 22,8 C 21,7 C 61 % 1012,6 hPa 0,0 l/m 5,8 km/h (2 Bft) O-NO 73 2 min 0,533 mm 5,8 UV-I 867 W/m 14,9 C 22,8 C 9,7 km/h (2 Bft) 94,87 %
18.05.2017 12:04 22,9 C 21,7 C 56 % 1012,6 hPa 0,0 l/m 7,3 km/h (2 Bft) O-NO 58 2 min 0,000 mm 5,9 UV-I 869 W/m 13,6 C 22,6 C 11,3 km/h (2 Bft) 94,55 %
18.05.2017 12:06 22,9 C 21,7 C 59 % 1012,6 hPa 0,0 l/m 9,1 km/h (2 Bft) NO 40 2 min 0,000 mm 5,9 UV-I 870 W/m 14,5 C 22,1 C 14,5 km/h (3 Bft) 97,87 %
18.05.2017 12:08 22,9 C 21,7 C 61 % 1012,6 hPa 0,0 l/m 8,8 km/h (2 Bft) NO 46 2 min 0,000 mm 5,9 UV-I 870 W/m 15,0 C 22,2 C 11,3 km/h (2 Bft) 94,34 %
18.05.2017 12:10 22,9 C 21,7 C 57 % 1012,6 hPa 0,0 l/m 9,3 km/h (2 Bft) O-NO 57 2 min 0,000 mm 5,9 UV-I 871 W/m 13,9 C 22,0 C 12,9 km/h (3 Bft) 97,44 %
18.05.2017 12:12 22,9 C 21,7 C 55 % 1012,5 hPa 0,0 l/m 9,4 km/h (2 Bft) NO 52 2 min 0,000 mm 5,9 UV-I 873 W/m 13,4 C 22,0 C 14,5 km/h (3 Bft) 97,56 %
18.05.2017 12:14 23,0 C 21,7 C 54 % 1012,5 hPa 0,0 l/m 7,9 km/h (2 Bft) O 92 2 min 0,000 mm 5,9 UV-I 875 W/m 13,2 C 22,5 C 12,9 km/h (3 Bft) 96,77 %
18.05.2017 12:16 23,1 C 21,7 C 54 % 1012,5 hPa 0,0 l/m 8,2 km/h (2 Bft) O 98 2 min 0,000 mm 6,0 UV-I 877 W/m 13,3 C 22,5 C 14,5 km/h (3 Bft) 91,30 %
18.05.2017 12:18 23,2 C 21,7 C 58 % 1012,5 hPa 0,0 l/m 7,2 km/h (2 Bft) O-NO 61 2 min 0,000 mm 6,0 UV-I 877 W/m 14,5 C 23,0 C 12,9 km/h (3 Bft) 96,77 %
18.05.2017 12:20 23,3 C 21,7 C 59 % 1012,4 hPa 0,0 l/m 5,8 km/h (2 Bft) NO 34 2 min 0,000 mm 6,0 UV-I 876 W/m 14,8 C 23,3 C 14,5 km/h (3 Bft) 97,87 %
18.05.2017 12:22 23,2 C 22,2 C 57 % 1012,5 hPa 0,0 l/m 6,6 km/h (2 Bft) N-NO 22 2 min 0,000 mm 6,0 UV-I 878 W/m 14,2 C 23,1 C 9,7 km/h (2 Bft) 94,34 %
18.05.2017 12:24 23,3 C 21,7 C 59 % 1012,5 hPa 0,0 l/m 7,2 km/h (2 Bft) O-NO 63 2 min 0,000 mm 6,0 UV-I 880 W/m 14,8 C 23,1 C 12,9 km/h (3 Bft) 93,62 %
18.05.2017 12:26 23,4 C 21,7 C 57 % 1012,5 hPa 0,0 l/m 9,6 km/h (2 Bft) O 80 2 min 0,000 mm 6,0 UV-I 880 W/m 14,4 C 22,5 C 16,1 km/h (3 Bft) 100,00 %
18.05.2017 12:28 23,6 C 22,2 C 60 % 1012,4 hPa 0,0 l/m 6,8 km/h (2 Bft) NO 34 2 min 0,000 mm 6,1 UV-I 882 W/m 15,4 C 23,5 C 9,7 km/h (2 Bft) 94,34 %
18.05.2017 12:30 23,6 C 22,2 C 61 % 1012,4 hPa 0,0 l/m 7,8 km/h (2 Bft) O-NO 68 2 min 0,000 mm 6,1 UV-I 884 W/m 15,6 C 23,2 C 14,5 km/h (3 Bft) 92,68 %
18.05.2017 12:32 23,6 C 22,2 C 55 % 1012,4 hPa 0,0 l/m 7,4 km/h (2 Bft) NO 49 2 min 0,000 mm 6,1 UV-I 884 W/m 14,0 C 23,3 C 9,7 km/h (2 Bft) 98,00 %
18.05.2017 12:34 23,7 C 22,2 C 57 % 1012,4 hPa 0,0 l/m 8,5 km/h (2 Bft) N-NO 32 2 min 0,000 mm 6,1 UV-I 885 W/m 14,7 C 23,1 C 12,9 km/h (3 Bft) 95,12 %
18.05.2017 12:36 23,7 C 22,2 C 58 % 1012,4 hPa 0,0 l/m 5,4 km/h (1 Bft) NO 38 2 min 0,000 mm 6,1 UV-I 886 W/m 14,9 C 23,7 C 9,7 km/h (2 Bft) 98,00 %
18.05.2017 12:38 23,7 C 22,2 C 54 % 1012,4 hPa 0,0 l/m 6,4 km/h (2 Bft) O-NO 64 2 min 0,000 mm 6,1 UV-I 882 W/m 13,8 C 23,7 C 9,7 km/h (2 Bft) 95,92 %
18.05.2017 12:40 23,7 C 22,2 C 58 % 1012,3 hPa 0,0 l/m 6,7 km/h (2 Bft) O-NO 67 2 min 0,000 mm 6,2 UV-I 886 W/m 14,9 C 23,6 C 12,9 km/h (3 Bft) 94,74 %
18.05.2017 12:42 23,8 C 22,2 C 52 % 1012,4 hPa 0,0 l/m 8,6 km/h (2 Bft) O-NO 76 2 min 0,000 mm 6,2 UV-I 886 W/m 13,3 C 23,2 C 12,9 km/h (3 Bft) 98,21 %
18.05.2017 12:44 23,8 C 22,2 C 54 % 1012,4 hPa 0,0 l/m 5,8 km/h (2 Bft) O 94 2 min 0,000 mm 6,2 UV-I 887 W/m 13,9 C 23,8 C 9,7 km/h (2 Bft) 94,00 %
18.05.2017 12:46 24,0 C 22,2 C 55 % 1012,3 hPa 0,0 l/m 6,8 km/h (2 Bft) O-NO 71 2 min 0,000 mm 6,2 UV-I 888 W/m 14,4 C 23,9 C 12,9 km/h (3 Bft) 100,00 %
18.05.2017 12:48 23,9 C 22,2 C 56 % 1012,3 hPa 0,0 l/m 8,1 km/h (2 Bft) O 80 2 min 0,000 mm 6,2 UV-I 888 W/m 14,6 C 23,4 C 14,5 km/h (3 Bft) 94,00 %
18.05.2017 12:50 24,2 C 22,2 C 57 % 1012,3 hPa 0,0 l/m 9,1 km/h (2 Bft) NO 44 2 min 0,000 mm 6,2 UV-I 889 W/m 15,1 C 23,5 C 14,5 km/h (3 Bft) 96,36 %
18.05.2017 12:52 24,2 C 22,2 C 51 % 1012,3 hPa 0,0 l/m 9,5 km/h (2 Bft) O-NO 68 2 min 0,000 mm 6,2 UV-I 888 W/m 13,4 C 23,4 C 14,5 km/h (3 Bft) 97,92 %
18.05.2017 12:54 24,1 C 22,2 C 52 % 1012,3 hPa 0,0 l/m 6,3 km/h (2 Bft) O-SO 103 2 min 0,000 mm 6,2 UV-I 890 W/m 13,6 C 24,1 C 9,7 km/h (2 Bft) 95,12 %
18.05.2017 12:56 24,1 C 22,2 C 53 % 1012,3 hPa 0,0 l/m 5,5 km/h (1 Bft) O-NO 62 2 min 0,000 mm 6,2 UV-I 890 W/m 13,9 C 24,1 C 8,0 km/h (2 Bft) 98,00 %
18.05.2017 12:58 24,2 C 22,2 C 55 % 1012,3 hPa 0,0 l/m 7,4 km/h (2 Bft) NO 41 2 min 0,000 mm 6,2 UV-I 890 W/m 14,6 C 23,9 C 12,9 km/h (3 Bft) 93,62 %
18.05.2017 13:00 24,1 C 22,2 C 54 % 1012,3 hPa 0,0 l/m 5,8 km/h (2 Bft) NO 39 2 min 0,000 mm 6,2 UV-I 890 W/m 14,2 C 24,1 C 8,0 km/h (2 Bft) 97,56 %
18.05.2017 13:02 24,2 C 22,2 C 54 % 1012,3 hPa 0,0 l/m 5,9 km/h (2 Bft) O 79 2 min 0,584 mm 6,2 UV-I 889 W/m 14,3 C 24,2 C 11,3 km/h (2 Bft) 98,11 %
18.05.2017 13:04 24,2 C 22,2 C 51 % 1012,2 hPa 0,0 l/m 7,1 km/h (2 Bft) N-NO 25 2 min 0,000 mm 6,2 UV-I 889 W/m 13,4 C 24,0 C 12,9 km/h (3 Bft) 96,00 %
18.05.2017 13:06 24,3 C 22,2 C 50 % 1012,2 hPa 0,0 l/m 3,6 km/h (1 Bft) O 82 2 min 0,000 mm 6,2 UV-I 890 W/m 13,2 C 24,3 C 4,8 km/h (1 Bft) 95,74 %
18.05.2017 13:08 24,4 C 22,2 C 53 % 1012,2 hPa 0,0 l/m 6,1 km/h (2 Bft) O 80 2 min 0,000 mm 6,2 UV-I 890 W/m 14,2 C 24,4 C 9,7 km/h (2 Bft) 100,00 %
18.05.2017 13:10 24,6 C 22,2 C 57 % 1012,3 hPa 0,0 l/m 5,3 km/h (1 Bft) NO 38 2 min 0,000 mm 6,2 UV-I 890 W/m 15,5 C 24,6 C 8,0 km/h (2 Bft) 94,34 %
18.05.2017 13:12 24,7 C 22,2 C 51 % 1012,2 hPa 0,0 l/m 6,5 km/h (2 Bft) NO 54 2 min 0,000 mm 6,2 UV-I 889 W/m 13,9 C 24,7 C 9,7 km/h (2 Bft) 97,37 %
18.05.2017 13:14 24,7 C 22,2 C 52 % 1012,2 hPa 0,0 l/m 4,5 km/h (1 Bft) O-NO 76 2 min 0,000 mm 6,2 UV-I 888 W/m 14,2 C 24,7 C 8,0 km/h (2 Bft) 96,43 %
18.05.2017 13:16 24,8 C 22,2 C 53 % 1012,2 hPa 0,0 l/m 4,1 km/h (1 Bft) O 88 2 min 0,000 mm 6,2 UV-I 888 W/m 14,6 C 24,8 C 9,7 km/h (2 Bft) 94,00 %
18.05.2017 13:18 24,6 C 22,2 C 50 % 1012,1 hPa 0,0 l/m 5,9 km/h (2 Bft) O-NO 73 2 min 0,000 mm 6,2 UV-I 886 W/m 13,5 C 24,6 C 9,7 km/h (2 Bft) 97,37 %
18.05.2017 13:20 24,8 C 22,2 C 54 % 1012,1 hPa 0,0 l/m 6,9 km/h (2 Bft) O-NO 66 2 min 0,000 mm 6,2 UV-I 884 W/m 14,8 C 24,7 C 9,7 km/h (2 Bft) 94,00 %
18.05.2017 13:22 24,8 C 22,2 C 53 % 1012,1 hPa 0,0 l/m 5,5 km/h (1 Bft) NO 47 2 min 0,000 mm 6,2 UV-I 886 W/m 14,6 C 24,8 C 8,0 km/h (2 Bft) 98,11 %
18.05.2017 13:24 24,9 C 22,2 C 55 % 1012,1 hPa 0,0 l/m 4,6 km/h (1 Bft) NO 49 2 min 0,000 mm 6,2 UV-I 886 W/m 15,2 C 24,9 C 6,4 km/h (2 Bft) 89,74 %
18.05.2017 13:26 24,9 C 22,2 C 52 % 1012,0 hPa 0,0 l/m 3,9 km/h (1 Bft) N-NO 27 2 min 0,000 mm 6,2 UV-I 883 W/m 14,4 C 24,9 C 6,4 km/h (2 Bft) 90,38 %
18.05.2017 13:28 24,9 C 22,2 C 51 % 1012,1 hPa 0,0 l/m 5,6 km/h (1 Bft) O-NO 59 2 min 0,000 mm 6,2 UV-I 884 W/m 14,1 C 24,9 C 12,9 km/h (3 Bft) 96,00 %
18.05.2017 13:30 24,9 C 22,2 C 56 % 1012,1 hPa 0,0 l/m 4,5 km/h (1 Bft) O 91 2 min 0,000 mm 6,2 UV-I 884 W/m 15,5 C 24,9 C 11,3 km/h (2 Bft) 94,87 %
18.05.2017 13:32 25,1 C 22,2 C 49 % 1012,1 hPa 0,0 l/m 5,2 km/h (1 Bft) O 100 2 min 0,000 mm 6,1 UV-I 882 W/m 13,6 C 25,1 C 8,0 km/h (2 Bft) 94,00 %
18.05.2017 13:34 25,1 C 22,2 C 53 % 1012,0 hPa 0,0 l/m 3,7 km/h (1 Bft) NO 36 2 min 0,000 mm 6,1 UV-I 881 W/m 14,8 C 25,1 C 6,4 km/h (2 Bft) 95,74 %
18.05.2017 13:36 25,1 C 22,2 C 49 % 1012,0 hPa 0,0 l/m 5,4 km/h (1 Bft) O 80 2 min 0,000 mm 6,1 UV-I 881 W/m 13,6 C 25,1 C 8,0 km/h (2 Bft) 97,37 %
18.05.2017 13:38 25,0 C 22,2 C 48 % 1012,0 hPa 0,0 l/m 3,1 km/h (1 Bft) O-NO 59 2 min 0,000 mm 6,1 UV-I 880 W/m 13,2 C 25,0 C 4,8 km/h (1 Bft) 98,00 %
18.05.2017 13:40 25,1 C 22,2 C 51 % 1012,0 hPa 0,0 l/m 5,6 km/h (1 Bft) NO 43 2 min 0,000 mm 6,1 UV-I 878 W/m 14,2 C 25,1 C 9,7 km/h (2 Bft) 98,21 %
18.05.2017 13:42 25,2 C 22,2 C 48 % 1012,0 hPa 0,0 l/m 5,4 km/h (1 Bft) O 84 2 min 0,000 mm 6,1 UV-I 877 W/m 13,4 C 25,2 C 8,0 km/h (2 Bft) 100,00 %
18.05.2017 13:44 25,2 C 22,2 C 48 % 1012,0 hPa 0,0 l/m 6,3 km/h (2 Bft) O-NO 62 2 min 0,000 mm 6,0 UV-I 874 W/m 13,4 C 25,2 C 9,7 km/h (2 Bft) 96,23 %
18.05.2017 13:46 25,3 C 22,2 C 49 % 1011,9 hPa 0,0 l/m 5,9 km/h (2 Bft) O-NO 60 2 min 0,000 mm 6,0 UV-I 872 W/m 13,8 C 25,3 C 9,7 km/h (2 Bft) 98,11 %
18.05.2017 13:48 25,3 C 22,2 C 47 % 1011,9 hPa 0,0 l/m 4,5 km/h (1 Bft) O-NO 68 2 min 0,000 mm 6,0 UV-I 870 W/m 13,2 C 25,3 C 8,0 km/h (2 Bft) 97,37 %
18.05.2017 13:50 25,3 C 22,2 C 49 % 1011,9 hPa 0,0 l/m 5,6 km/h (1 Bft) NO 55 2 min 0,000 mm 5,9 UV-I 869 W/m 13,8 C 25,3 C 9,7 km/h (2 Bft) 98,39 %
18.05.2017 13:52 25,4 C 22,2 C 52 % 1011,9 hPa 0,0 l/m 7,1 km/h (2 Bft) N-NO 19 2 min 0,000 mm 5,9 UV-I 867 W/m 14,8 C 25,2 C 9,7 km/h (2 Bft) 100,00 %
18.05.2017 13:54 25,4 C 22,2 C 53 % 1011,9 hPa 0,0 l/m 8,4 km/h (2 Bft) O-NO 57 2 min 0,000 mm 5,9 UV-I 865 W/m 15,1 C 24,9 C 11,3 km/h (2 Bft) 96,23 %
18.05.2017 13:56 25,5 C 22,2 C 52 % 1011,9 hPa 0,0 l/m 5,5 km/h (1 Bft) N-NO 30 2 min 0,000 mm 5,9 UV-I 863 W/m 14,9 C 25,5 C 8,0 km/h (2 Bft) 98,00 %
18.05.2017 13:58 25,5 C 22,2 C 48 % 1011,8 hPa 0,0 l/m 4,8 km/h (1 Bft) O-NO 74 2 min 0,000 mm 5,9 UV-I 862 W/m 13,7 C 25,5 C 8,0 km/h (2 Bft) 100,00 %
18.05.2017 14:00 25,6 C 22,8 C 51 % 1011,8 hPa 0,0 l/m 4,8 km/h (1 Bft) NO 42 2 min 0,584 mm 5,8 UV-I 860 W/m 14,7 C 25,6 C 6,4 km/h (2 Bft) 98,00 %
18.05.2017 14:02 25,7 C 22,8 C 54 % 1011,8 hPa 0,0 l/m 5,1 km/h (1 Bft) NO 40 2 min 0,000 mm 5,8 UV-I 859 W/m 15,7 C 25,7 C 8,0 km/h (2 Bft) 96,00 %
18.05.2017 14:04 25,7 C 22,8 C 52 % 1011,8 hPa 0,0 l/m 4,7 km/h (1 Bft) NO 34 2 min 0,000 mm 5,8 UV-I 856 W/m 15,1 C 25,7 C 9,7 km/h (2 Bft) 95,74 %
18.05.2017 14:06 25,7 C 22,8 C 53 % 1011,8 hPa 0,0 l/m 3,5 km/h (1 Bft) N-NO 13 2 min 0,000 mm 5,8 UV-I 857 W/m 15,4 C 25,7 C 8,0 km/h (2 Bft) 97,44 %
18.05.2017 14:08 25,6 C 22,8 C 53 % 1011,8 hPa 0,0 l/m 3,5 km/h (1 Bft) NO 55 2 min 0,000 mm 5,7 UV-I 854 W/m 15,3 C 25,6 C 6,4 km/h (2 Bft) 92,00 %
18.05.2017 14:10 25,6 C 22,8 C 52 % 1011,8 hPa 0,0 l/m 4,9 km/h (1 Bft) NO 39 2 min 0,000 mm 5,7 UV-I 852 W/m 15,0 C 25,6 C 8,0 km/h (2 Bft) 92,00 %
18.05.2017 14:12 25,6 C 22,8 C 52 % 1011,8 hPa 0,0 l/m 5,5 km/h (1 Bft) N-NO 28 2 min 0,000 mm 5,7 UV-I 850 W/m 15,0 C 25,6 C 8,0 km/h (2 Bft) 98,00 %
18.05.2017 14:14 25,6 C 22,8 C 53 % 1011,8 hPa 0,0 l/m 4,3 km/h (1 Bft) N-NO 31 2 min 0,000 mm 5,7 UV-I 847 W/m 15,3 C 25,6 C 6,4 km/h (2 Bft) 95,12 %
18.05.2017 14:16 25,7 C 22,8 C 52 % 1011,8 hPa 0,0 l/m 4,9 km/h (1 Bft) O-NO 57 2 min 0,000 mm 5,6 UV-I 846 W/m 15,1 C 25,7 C 9,7 km/h (2 Bft) 98,00 %
18.05.2017 14:18 25,7 C 22,8 C 47 % 1011,7 hPa 0,0 l/m 3,7 km/h (1 Bft) O-NO 75 2 min 0,000 mm 5,6 UV-I 844 W/m 13,5 C 25,7 C 6,4 km/h (2 Bft) 96,00 %
18.05.2017 14:20 25,8 C 22,8 C 54 % 1011,6 hPa 0,0 l/m 2,3 km/h (1 Bft) N 355 2 min 0,000 mm 5,5 UV-I 840 W/m 15,8 C 25,8 C 4,8 km/h (1 Bft) 92,11 %
18.05.2017 14:22 25,7 C 22,8 C 52 % 1011,6 hPa 0,0 l/m 5,1 km/h (1 Bft) NO 38 2 min 0,000 mm 5,5 UV-I 835 W/m 15,1 C 25,7 C 8,0 km/h (2 Bft) 95,74 %
18.05.2017 14:24 25,7 C 22,8 C 51 % 1011,6 hPa 0,0 l/m 4,3 km/h (1 Bft) N-NO 22 2 min 0,000 mm 5,5 UV-I 834 W/m 14,8 C 25,7 C 6,4 km/h (2 Bft) 92,86 %
18.05.2017 14:26 25,7 C 22,8 C 53 % 1011,6 hPa 0,0 l/m 4,8 km/h (1 Bft) N-NO 22 2 min 0,000 mm 5,5 UV-I 834 W/m 15,4 C 25,7 C 9,7 km/h (2 Bft) 94,74 %
18.05.2017 14:28 25,8 C 22,8 C 54 % 1011,5 hPa 0,0 l/m 7,7 km/h (2 Bft) N-NO 32 2 min 0,000 mm 5,4 UV-I 832 W/m 15,8 C 25,5 C 9,7 km/h (2 Bft) 88,68 %
18.05.2017 14:30 26,0 C 22,8 C 52 % 1011,5 hPa 0,0 l/m 4,8 km/h (1 Bft) N-NO 30 2 min 0,000 mm 5,4 UV-I 830 W/m 15,4 C 26,0 C 8,0 km/h (2 Bft) 95,74 %
18.05.2017 14:32 26,0 C 22,8 C 52 % 1011,4 hPa 0,0 l/m 1,6 km/h (1 Bft) NW 307 2 min 0,000 mm 5,4 UV-I 831 W/m 15,4 C 26,0 C 4,8 km/h (1 Bft) 91,49 %
18.05.2017 14:34 26,0 C 22,8 C 51 % 1011,4 hPa 0,0 l/m 2,8 km/h (1 Bft) N 10 2 min 0,000 mm 5,3 UV-I 826 W/m 15,1 C 26,0 C 6,4 km/h (2 Bft) 94,74 %
18.05.2017 14:36 26,0 C 22,8 C 55 % 1011,4 hPa 0,0 l/m 4,6 km/h (1 Bft) N-NO 20 2 min 0,000 mm 5,3 UV-I 825 W/m 16,2 C 26,0 C 11,3 km/h (2 Bft) 98,11 %
18.05.2017 14:38 25,9 C 22,8 C 49 % 1011,4 hPa 0,0 l/m 1,7 km/h (1 Bft) N-NW 331 2 min 0,000 mm 5,2 UV-I 821 W/m 14,4 C 25,9 C 3,2 km/h (1 Bft) 100,00 %
18.05.2017 14:40 25,8 C 22,8 C 48 % 1011,4 hPa 0,0 l/m 1,3 km/h (1 Bft) N-NW 332 2 min 0,000 mm 5,2 UV-I 816 W/m 13,9 C 25,8 C 3,2 km/h (1 Bft) 100,00 %
18.05.2017 14:42 25,8 C 22,8 C 48 % 1011,4 hPa 0,0 l/m 1,3 km/h (1 Bft) N 9 2 min 0,000 mm 5,1 UV-I 813 W/m 13,9 C 25,8 C 3,2 km/h (1 Bft) 98,00 %
18.05.2017 14:44 25,9 C 22,8 C 50 % 1011,4 hPa 0,0 l/m 0,7 km/h (0 Bft) N 9 2 min 0,000 mm 5,1 UV-I 810 W/m 14,7 C 25,9 C 1,6 km/h (1 Bft) 97,87 %
18.05.2017 14:46 25,9 C 22,8 C 51 % 1011,3 hPa 0,0 l/m 2,7 km/h (1 Bft) N-NO 32 2 min 0,000 mm 5,1 UV-I 808 W/m 15,0 C 25,9 C 9,7 km/h (2 Bft) 100,00 %
18.05.2017 14:48 26,0 C 22,8 C 52 % 1011,3 hPa 0,0 l/m 4,6 km/h (1 Bft) N-NO 20 2 min 0,000 mm 5,0 UV-I 807 W/m 15,4 C 26,0 C 9,7 km/h (2 Bft) 100,00 %
18.05.2017 14:50 25,9 C 22,8 C 48 % 1011,3 hPa 0,0 l/m 2,8 km/h (1 Bft) N-NO 19 2 min 0,000 mm 5,0 UV-I 803 W/m 14,0 C 25,9 C 6,4 km/h (2 Bft) 97,22 %
18.05.2017 14:52 25,9 C 22,8 C 48 % 1011,3 hPa 0,0 l/m 0,4 km/h (0 Bft) N-NO 19 2 min 0,000 mm 4,9 UV-I 797 W/m 14,0 C 25,9 C 1,6 km/h (1 Bft) 98,21 %
18.05.2017 14:54 25,9 C 22,8 C 51 % 1011,3 hPa 0,0 l/m 4,6 km/h (1 Bft) NO 48 2 min 0,000 mm 4,9 UV-I 795 W/m 15,0 C 25,9 C 6,4 km/h (2 Bft) 94,00 %
18.05.2017 14:56 26,0 C 22,8 C 48 % 1011,3 hPa 0,0 l/m 3,1 km/h (1 Bft) O-SO 110 2 min 0,000 mm 4,9 UV-I 791 W/m 14,1 C 26,0 C 6,4 km/h (2 Bft) 97,14 %
18.05.2017 14:58 26,1 C 22,8 C 49 % 1011,3 hPa 0,0 l/m 1,3 km/h (1 Bft) O-SO 110 2 min 0,000 mm 4,8 UV-I 789 W/m 14,5 C 26,1 C 3,2 km/h (1 Bft) 98,00 %
18.05.2017 15:00 26,1 C 22,8 C 47 % 1011,3 hPa 0,0 l/m 2,2 km/h (1 Bft) O-SO 110 2 min 0,559 mm 4,8 UV-I 788 W/m 13,9 C 26,1 C 4,8 km/h (1 Bft) 97,87 %
18.05.2017 15:02 26,1 C 22,8 C 51 % 1011,2 hPa 0,0 l/m 3,8 km/h (1 Bft) O 84 2 min 0,000 mm 4,8 UV-I 784 W/m 15,2 C 26,1 C 8,0 km/h (2 Bft) 100,00 %
18.05.2017 15:04 26,2 C 22,8 C 50 % 1011,2 hPa 0,0 l/m 4,9 km/h (1 Bft) O-NO 59 2 min 0,000 mm 4,7 UV-I 779 W/m 14,9 C 26,2 C 9,7 km/h (2 Bft) 97,87 %
18.05.2017 15:06 26,3 C 22,8 C 55 % 1011,2 hPa 0,0 l/m 3,7 km/h (1 Bft) N-NO 13 2 min 0,000 mm 4,7 UV-I 775 W/m 16,5 C 26,3 C 9,7 km/h (2 Bft) 93,62 %
18.05.2017 15:08 26,2 C 22,8 C 53 % 1011,2 hPa 0,0 l/m 1,7 km/h (1 Bft) NW 321 2 min 0,000 mm 4,6 UV-I 770 W/m 15,8 C 26,2 C 4,8 km/h (1 Bft) 100,00 %
18.05.2017 15:10 26,3 C 22,8 C 50 % 1011,2 hPa 0,0 l/m 3,5 km/h (1 Bft) N-NO 24 2 min 0,000 mm 4,5 UV-I 766 W/m 15,0 C 26,3 C 8,0 km/h (2 Bft) 97,56 %
18.05.2017 15:12 26,4 C 22,8 C 54 % 1011,1 hPa 0,0 l/m 7,4 km/h (2 Bft) NO 39 2 min 0,000 mm 4,5 UV-I 763 W/m 16,3 C 26,2 C 11,3 km/h (2 Bft) 100,00 %
18.05.2017 15:14 26,4 C 22,8 C 49 % 1011,1 hPa 0,0 l/m 6,9 km/h (2 Bft) N-NO 32 2 min 0,000 mm 4,5 UV-I 761 W/m 14,8 C 26,3 C 11,3 km/h (2 Bft) 95,12 %
18.05.2017 15:16 26,3 C 22,8 C 46 % 1011,1 hPa 0,0 l/m 2,8 km/h (1 Bft) N-NO 32 2 min 0,000 mm 4,5 UV-I 763 W/m 13,7 C 26,3 C 6,4 km/h (2 Bft) 98,08 %
18.05.2017 15:18 26,3 C 22,8 C 49 % 1011,1 hPa 0,0 l/m 4,3 km/h (1 Bft) N-NO 30 2 min 0,000 mm 4,4 UV-I 757 W/m 14,7 C 26,3 C 8,0 km/h (2 Bft) 100,00 %
18.05.2017 15:20 26,4 C 22,8 C 50 % 1011,1 hPa 0,0 l/m 1,4 km/h (1 Bft) N-NO 30 2 min 0,000 mm 4,3 UV-I 750 W/m 15,1 C 26,4 C 3,2 km/h (1 Bft) 95,52 %
18.05.2017 15:22 26,4 C 22,8 C 46 % 1011,0 hPa 0,0 l/m 0,9 km/h (0 Bft) N-NO 29 2 min 0,000 mm 4,3 UV-I 745 W/m 13,8 C 26,4 C 1,6 km/h (1 Bft) 100,00 %
18.05.2017 15:24 26,4 C 22,8 C 49 % 1011,0 hPa 0,0 l/m 2,8 km/h (1 Bft) NW 304 2 min 0,000 mm 4,2 UV-I 743 W/m 14,8 C 26,4 C 4,8 km/h (1 Bft) 96,97 %
18.05.2017 15:26 26,6 C 22,8 C 53 % 1011,0 hPa 0,0 l/m 6,3 km/h (2 Bft) NO 40 2 min 0,000 mm 4,2 UV-I 739 W/m 16,2 C 26,6 C 12,9 km/h (3 Bft) 100,00 %
18.05.2017 15:28 26,7 C 22,8 C 51 % 1010,9 hPa 0,0 l/m 7,5 km/h (2 Bft) O-NO 59 2 min 0,000 mm 4,1 UV-I 736 W/m 15,7 C 26,5 C 9,7 km/h (2 Bft) 100,00 %
18.05.2017 15:30 26,7 C 22,8 C 51 % 1010,9 hPa 0,0 l/m 3,4 km/h (1 Bft) NO 37 2 min 0,000 mm 4,1 UV-I 729 W/m 15,7 C 26,7 C 6,4 km/h (2 Bft) 98,11 %
18.05.2017 15:32 26,6 C 22,8 C 51 % 1010,9 hPa 0,0 l/m 1,2 km/h (1 Bft) N-NO 14 2 min 0,000 mm 4,0 UV-I 726 W/m 15,6 C 26,6 C 3,2 km/h (1 Bft) 95,12 %
18.05.2017 15:34 26,5 C 22,8 C 52 % 1010,9 hPa 0,0 l/m 0,8 km/h (0 Bft) N-NW 336 2 min 0,000 mm 4,0 UV-I 719 W/m 15,8 C 26,5 C 3,2 km/h (1 Bft) 98,18 %
18.05.2017 15:36 26,4 C 23,3 C 46 % 1010,9 hPa 0,0 l/m 2,6 km/h (1 Bft) O-NO 67 2 min 0,000 mm 3,9 UV-I 718 W/m 13,8 C 26,4 C 4,8 km/h (1 Bft) 97,56 %
18.05.2017 15:38 26,6 C 23,3 C 52 % 1010,9 hPa 0,0 l/m 4,0 km/h (1 Bft) N-NO 24 2 min 0,000 mm 3,9 UV-I 712 W/m 15,9 C 26,6 C 8,0 km/h (2 Bft) 100,00 %
18.05.2017 15:40 26,6 C 23,3 C 49 % 1010,8 hPa 0,0 l/m 3,6 km/h (1 Bft) O-NO 58 2 min 0,000 mm 3,8 UV-I 707 W/m 15,0 C 26,6 C 8,0 km/h (2 Bft) 95,74 %
18.05.2017 15:42 26,7 C 23,3 C 48 % 1010,9 hPa 0,0 l/m 6,4 km/h (2 Bft) O-NO 63 2 min 0,000 mm 3,8 UV-I 703 W/m 14,8 C 26,7 C 8,0 km/h (2 Bft) 95,45 %
18.05.2017 15:44 26,7 C 23,3 C 44 % 1010,8 hPa 0,0 l/m 3,7 km/h (1 Bft) SO 128 2 min 0,000 mm 3,7 UV-I 699 W/m 13,4 C 26,7 C 8,0 km/h (2 Bft) 100,00 %
18.05.2017 15:46 26,7 C 23,3 C 46 % 1010,8 hPa 0,0 l/m 4,2 km/h (1 Bft) O-SO 103 2 min 0,000 mm 3,7 UV-I 694 W/m 14,1 C 26,7 C 6,4 km/h (2 Bft) 100,00 %
18.05.2017 15:48 26,7 C 23,3 C 45 % 1010,8 hPa 0,0 l/m 1,0 km/h (0 Bft) O-SO 103 2 min 0,000 mm 3,6 UV-I 688 W/m 13,8 C 26,7 C 3,2 km/h (1 Bft) 100,00 %
18.05.2017 15:50 26,7 C 23,3 C 49 % 1010,7 hPa 0,0 l/m 1,5 km/h (1 Bft) N-NO 17 2 min 0,000 mm 3,6 UV-I 686 W/m 15,1 C 26,7 C 6,4 km/h (2 Bft) 96,00 %
18.05.2017 15:52 26,7 C 23,3 C 51 % 1010,7 hPa 0,0 l/m 3,2 km/h (1 Bft) N 11 2 min 0,000 mm 3,5 UV-I 679 W/m 15,7 C 26,7 C 4,8 km/h (1 Bft) 96,23 %
18.05.2017 15:54 26,6 C 23,3 C 54 % 1010,7 hPa 0,0 l/m 2,5 km/h (1 Bft) N 9 2 min 0,000 mm 3,4 UV-I 673 W/m 16,5 C 26,6 C 6,4 km/h (2 Bft) 97,67 %
18.05.2017 15:56 26,6 C 23,3 C 49 % 1010,7 hPa 0,0 l/m 2,9 km/h (1 Bft) NO 36 2 min 0,000 mm 3,4 UV-I 667 W/m 15,0 C 26,6 C 9,7 km/h (2 Bft) 89,36 %
18.05.2017 15:58 26,6 C 23,3 C 47 % 1010,7 hPa 0,0 l/m 3,9 km/h (1 Bft) N-NO 32 2 min 0,000 mm 3,3 UV-I 663 W/m 14,3 C 26,6 C 8,0 km/h (2 Bft) 91,49 %
18.05.2017 16:00 26,6 C 23,3 C 51 % 1010,6 hPa 0,0 l/m 7,3 km/h (2 Bft) NO 38 2 min 0,000 mm 3,3 UV-I 661 W/m 15,6 C 26,4 C 11,3 km/h (2 Bft) 94,87 %
18.05.2017 16:02 26,6 C 23,3 C 53 % 1010,6 hPa 0,0 l/m 5,3 km/h (1 Bft) O-NO 64 2 min 0,508 mm 3,3 UV-I 657 W/m 16,2 C 26,6 C 8,0 km/h (2 Bft) 87,23 %
18.05.2017 16:04 26,6 C 23,3 C 45 % 1010,6 hPa 0,0 l/m 5,6 km/h (1 Bft) NO 52 2 min 0,000 mm 3,2 UV-I 652 W/m 13,7 C 26,6 C 8,0 km/h (2 Bft) 94,34 %
18.05.2017 16:06 26,6 C 23,3 C 44 % 1010,6 hPa 0,0 l/m 4,3 km/h (1 Bft) O 82 2 min 0,000 mm 3,2 UV-I 647 W/m 13,3 C 26,6 C 8,0 km/h (2 Bft) 89,47 %
18.05.2017 16:08 26,8 C 23,3 C 48 % 1010,6 hPa 0,0 l/m 6,0 km/h (2 Bft) NO 44 2 min 0,000 mm 3,1 UV-I 642 W/m 14,9 C 26,8 C 8,0 km/h (2 Bft) 94,00 %
18.05.2017 16:10 26,8 C 23,3 C 50 % 1010,6 hPa 0,0 l/m 4,8 km/h (1 Bft) NO 44 2 min 0,000 mm 3,1 UV-I 637 W/m 15,5 C 26,8 C 8,0 km/h (2 Bft) 86,79 %
18.05.2017 16:12 26,9 C 23,3 C 45 % 1010,6 hPa 0,0 l/m 5,8 km/h (2 Bft) NO 54 2 min 0,000 mm 3,0 UV-I 632 W/m 13,9 C 26,9 C 8,0 km/h (2 Bft) 91,49 %
18.05.2017 16:14 26,9 C 23,3 C 46 % 1010,6 hPa 0,0 l/m 4,6 km/h (1 Bft) NO 51 2 min 0,000 mm 3,0 UV-I 624 W/m 14,3 C 26,9 C 8,0 km/h (2 Bft) 94,00 %
18.05.2017 16:16 26,8 C 23,3 C 42 % 1010,6 hPa 0,0 l/m 2,3 km/h (1 Bft) N 10 2 min 0,000 mm 2,9 UV-I 620 W/m 12,8 C 26,8 C 12,9 km/h (3 Bft) 89,47 %
18.05.2017 16:18 26,8 C 23,3 C 48 % 1010,5 hPa 0,0 l/m 5,7 km/h (1 Bft) NO 46 2 min 0,000 mm 2,9 UV-I 615 W/m 14,9 C 26,8 C 8,0 km/h (2 Bft) 94,34 %
18.05.2017 16:20 26,9 C 23,3 C 50 % 1010,5 hPa 0,0 l/m 5,6 km/h (1 Bft) O-NO 75 2 min 0,000 mm 2,8 UV-I 610 W/m 15,6 C 26,9 C 8,0 km/h (2 Bft) 96,00 %
18.05.2017 16:22 26,9 C 23,3 C 44 % 1010,5 hPa 0,0 l/m 2,4 km/h (1 Bft) O 86 2 min 0,000 mm 2,8 UV-I 603 W/m 13,6 C 26,9 C 6,4 km/h (2 Bft) 95,74 %
18.05.2017 16:24 27,0 C 23,3 C 44 % 1010,5 hPa 0,0 l/m 3,5 km/h (1 Bft) O 82 2 min 0,000 mm 2,7 UV-I 599 W/m 13,7 C 27,0 C 4,8 km/h (1 Bft) 91,67 %
18.05.2017 16:26 27,1 C 23,3 C 47 % 1010,5 hPa 0,0 l/m 4,8 km/h (1 Bft) NO 53 2 min 0,000 mm 2,7 UV-I 596 W/m 14,8 C 27,1 C 9,7 km/h (2 Bft) 93,75 %
18.05.2017 16:28 27,1 C 23,3 C 48 % 1010,4 hPa 0,0 l/m 4,4 km/h (1 Bft) N-NO 18 2 min 0,000 mm 2,7 UV-I 592 W/m 15,1 C 27,1 C 8,0 km/h (2 Bft) 96,00 %
18.05.2017 16:30 27,0 C 23,3 C 45 % 1010,4 hPa 0,0 l/m 6,3 km/h (2 Bft) N-NO 19 2 min 0,000 mm 2,6 UV-I 590 W/m 14,0 C 27,0 C 8,0 km/h (2 Bft) 91,49 %
18.05.2017 16:32 26,9 C 23,3 C 46 % 1010,4 hPa 0,0 l/m 4,5 km/h (1 Bft) N 11 2 min 0,000 mm 2,6 UV-I 586 W/m 14,3 C 26,9 C 8,0 km/h (2 Bft) 97,37 %
18.05.2017 16:34 26,8 C 23,3 C 48 % 1010,4 hPa 0,0 l/m 4,8 km/h (1 Bft) O-NO 67 2 min 0,000 mm 2,6 UV-I 580 W/m 14,9 C 26,8 C 8,0 km/h (2 Bft) 98,21 %
18.05.2017 16:36 26,9 C 23,3 C 47 % 1010,4 hPa 0,0 l/m 4,4 km/h (1 Bft) N-NO 32 2 min 0,000 mm 2,5 UV-I 576 W/m 14,6 C 26,9 C 8,0 km/h (2 Bft) 97,56 %
18.05.2017 16:38 26,8 C 23,3 C 48 % 1010,3 hPa 0,0 l/m 5,3 km/h (1 Bft) NO 34 2 min 0,000 mm 2,4 UV-I 566 W/m 14,9 C 26,8 C 8,0 km/h (2 Bft) 97,78 %
18.05.2017 16:40 26,8 C 23,3 C 47 % 1010,3 hPa 0,0 l/m 4,9 km/h (1 Bft) N-NO 22 2 min 0,000 mm 2,4 UV-I 563 W/m 14,5 C 26,8 C 8,0 km/h (2 Bft) 98,08 %
18.05.2017 16:42 26,7 C 23,3 C 45 % 1010,3 hPa 0,0 l/m 2,6 km/h (1 Bft) N-NO 23 2 min 0,000 mm 2,4 UV-I 556 W/m 13,8 C 26,7 C 4,8 km/h (1 Bft) 94,00 %
18.05.2017 16:44 26,7 C 23,3 C 42 % 1010,3 hPa 0,0 l/m 1,1 km/h (1 Bft) N-NO 23 2 min 0,000 mm 2,3 UV-I 552 W/m 12,7 C 26,7 C 3,2 km/h (1 Bft) 100,00 %
18.05.2017 16:46 26,8 C 23,3 C 45 % 1010,3 hPa 0,0 l/m 0,5 km/h (0 Bft) N-NO 23 2 min 0,000 mm 2,3 UV-I 547 W/m 13,9 C 26,8 C 1,6 km/h (1 Bft) 98,00 %
18.05.2017 16:48 26,9 C 23,3 C 45 % 1010,3 hPa 0,0 l/m 2,7 km/h (1 Bft) O-NO 58 2 min 0,000 mm 2,2 UV-I 541 W/m 13,9 C 26,9 C 6,4 km/h (2 Bft) 100,00 %
18.05.2017 16:50 27,0 C 23,3 C 44 % 1010,3 hPa 0,0 l/m 3,9 km/h (1 Bft) NO 56 2 min 0,000 mm 2,2 UV-I 537 W/m 13,7 C 27,0 C 6,4 km/h (2 Bft) 98,11 %
18.05.2017 16:52 27,1 C 23,3 C 51 % 1010,2 hPa 0,0 l/m 4,9 km/h (1 Bft) O-NO 57 2 min 0,000 mm 2,2 UV-I 532 W/m 16,1 C 27,1 C 8,0 km/h (2 Bft) 100,00 %
18.05.2017 16:54 27,1 C 23,3 C 44 % 1010,2 hPa 0,0 l/m 4,5 km/h (1 Bft) NO 55 2 min 0,000 mm 2,1 UV-I 526 W/m 13,8 C 27,1 C 6,4 km/h (2 Bft) 94,34 %
18.05.2017 16:56 27,1 C 23,3 C 48 % 1010,2 hPa 0,0 l/m 3,6 km/h (1 Bft) NO 55 2 min 0,000 mm 2,1 UV-I 521 W/m 15,1 C 27,1 C 4,8 km/h (1 Bft) 95,74 %
18.05.2017 16:58 27,0 C 23,3 C 48 % 1010,2 hPa 0,0 l/m 2,3 km/h (1 Bft) NO 53 2 min 0,000 mm 2,0 UV-I 516 W/m 15,0 C 27,0 C 4,8 km/h (1 Bft) 98,00 %
18.05.2017 17:00 27,1 C 23,3 C 43 % 1010,2 hPa 0,0 l/m 2,1 km/h (1 Bft) O-NO 61 2 min 0,407 mm 2,0 UV-I 509 W/m 13,4 C 27,1 C 4,8 km/h (1 Bft) 100,00 %
18.05.2017 17:02 27,1 C 23,3 C 48 % 1010,2 hPa 0,0 l/m 1,0 km/h (0 Bft) O-NO 60 2 min 0,000 mm 2,0 UV-I 503 W/m 15,1 C 27,1 C 3,2 km/h (1 Bft) 96,00 %
18.05.2017 17:04 26,9 C 23,3 C 48 % 1010,2 hPa 0,0 l/m 3,5 km/h (1 Bft) N-NO 21 2 min 0,000 mm 1,9 UV-I 499 W/m 14,9 C 26,9 C 6,4 km/h (2 Bft) 95,74 %
18.05.2017 17:06 26,9 C 23,3 C 43 % 1010,2 hPa 0,0 l/m 2,9 km/h (1 Bft) NO 51 2 min 0,000 mm 1,9 UV-I 492 W/m 13,2 C 26,9 C 4,8 km/h (1 Bft) 95,12 %
18.05.2017 17:08 26,9 C 23,3 C 44 % 1010,2 hPa 0,0 l/m 3,6 km/h (1 Bft) O-NO 61 2 min 0,000 mm 1,8 UV-I 485 W/m 13,6 C 26,9 C 6,4 km/h (2 Bft) 96,00 %
18.05.2017 17:10 27,1 C 23,3 C 43 % 1010,1 hPa 0,0 l/m 4,4 km/h (1 Bft) O-NO 65 2 min 0,000 mm 1,8 UV-I 478 W/m 13,4 C 27,1 C 8,0 km/h (2 Bft) 98,11 %
18.05.2017 17:12 27,2 C 23,3 C 42 % 1010,2 hPa 0,0 l/m 6,8 km/h (2 Bft) O-SO 103 2 min 0,000 mm 1,7 UV-I 475 W/m 13,2 C 27,1 C 11,3 km/h (2 Bft) 95,74 %
18.05.2017 17:14 27,1 C 23,3 C 42 % 1010,2 hPa 0,0 l/m 2,6 km/h (1 Bft) O-NO 63 2 min 0,000 mm 1,7 UV-I 473 W/m 13,1 C 27,1 C 6,4 km/h (2 Bft) 97,37 %
18.05.2017 17:16 27,1 C 23,3 C 46 % 1010,2 hPa 0,0 l/m 5,9 km/h (2 Bft) O-NO 57 2 min 0,000 mm 1,7 UV-I 469 W/m 14,5 C 27,1 C 9,7 km/h (2 Bft) 98,00 %
18.05.2017 17:18 27,2 C 23,3 C 44 % 1010,1 hPa 0,0 l/m 8,9 km/h (2 Bft) NO 50 2 min 0,000 mm 1,7 UV-I 460 W/m 13,9 C 26,8 C 12,9 km/h (3 Bft) 98,11 %
18.05.2017 17:20 27,1 C 23,3 C 44 % 1010,1 hPa 0,0 l/m 5,1 km/h (1 Bft) NO 55 2 min 0,000 mm 1,6 UV-I 452 W/m 13,8 C 27,1 C 8,0 km/h (2 Bft) 96,30 %
18.05.2017 17:22 27,1 C 23,3 C 47 % 1010,1 hPa 0,0 l/m 5,2 km/h (1 Bft) O-NO 71 2 min 0,000 mm 1,6 UV-I 446 W/m 14,8 C 27,1 C 8,0 km/h (2 Bft) 98,11 %
18.05.2017 17:24 27,2 C 23,3 C 44 % 1010,1 hPa 0,0 l/m 7,3 km/h (2 Bft) NO 52 2 min 0,000 mm 1,5 UV-I 441 W/m 13,9 C 27,0 C 14,5 km/h (3 Bft) 98,00 %
18.05.2017 17:26 27,2 C 23,3 C 46 % 1010,0 hPa 0,0 l/m 7,9 km/h (2 Bft) O-NO 61 2 min 0,000 mm 1,5 UV-I 435 W/m 14,6 C 26,9 C 11,3 km/h (2 Bft) 100,00 %
18.05.2017 17:28 27,1 C 23,3 C 43 % 1010,0 hPa 0,0 l/m 6,9 km/h (2 Bft) O 84 2 min 0,000 mm 1,5 UV-I 429 W/m 13,4 C 27,0 C 11,3 km/h (2 Bft) 100,00 %
18.05.2017 17:30 27,1 C 23,3 C 44 % 1010,0 hPa 0,0 l/m 7,4 km/h (2 Bft) O-NO 63 2 min 0,000 mm 1,4 UV-I 424 W/m 13,8 C 26,9 C 9,7 km/h (2 Bft) 94,34 %
18.05.2017 17:32 27,1 C 23,3 C 44 % 1010,0 hPa 0,0 l/m 3,5 km/h (1 Bft) O-NO 74 2 min 0,000 mm 1,4 UV-I 419 W/m 13,8 C 27,1 C 6,4 km/h (2 Bft) 100,00 %
18.05.2017 17:34 27,1 C 23,3 C 46 % 1010,0 hPa 0,0 l/m 5,9 km/h (2 Bft) NO 55 2 min 0,000 mm 1,4 UV-I 414 W/m 14,5 C 27,1 C 9,7 km/h (2 Bft) 100,00 %
18.05.2017 17:36 27,1 C 23,3 C 44 % 1009,9 hPa 0,0 l/m 7,2 km/h (2 Bft) NO 46 2 min 0,000 mm 1,3 UV-I 409 W/m 13,8 C 27,0 C 9,7 km/h (2 Bft) 98,11 %
18.05.2017 17:38 27,0 C 23,3 C 44 % 1009,9 hPa 0,0 l/m 4,8 km/h (1 Bft) NO 53 2 min 0,000 mm 1,3 UV-I 404 W/m 13,7 C 27,0 C 8,0 km/h (2 Bft) 92,11 %
18.05.2017 17:40 27,0 C 23,3 C 47 % 1009,9 hPa 0,0 l/m 4,8 km/h (1 Bft) O-NO 66 2 min 0,000 mm 1,3 UV-I 398 W/m 14,7 C 27,0 C 8,0 km/h (2 Bft) 98,00 %
18.05.2017 17:42 27,1 C 23,3 C 43 % 1009,9 hPa 0,0 l/m 4,7 km/h (1 Bft) O-NO 65 2 min 0,000 mm 1,3 UV-I 392 W/m 13,4 C 27,1 C 8,0 km/h (2 Bft) 95,74 %
18.05.2017 17:44 27,1 C 23,3 C 45 % 1009,9 hPa 0,0 l/m 5,3 km/h (1 Bft) NO 46 2 min 0,000 mm 1,2 UV-I 385 W/m 14,1 C 27,1 C 6,4 km/h (2 Bft) 98,00 %
18.05.2017 17:46 27,1 C 23,3 C 44 % 1009,8 hPa 0,0 l/m 7,3 km/h (2 Bft) O-NO 65 2 min 0,000 mm 1,2 UV-I 380 W/m 13,8 C 26,9 C 12,9 km/h (3 Bft) 97,87 %
18.05.2017 17:48 27,1 C 23,3 C 43 % 1009,8 hPa 0,0 l/m 7,3 km/h (2 Bft) O-NO 61 2 min 0,000 mm 1,2 UV-I 375 W/m 13,4 C 26,9 C 12,9 km/h (3 Bft) 97,56 %
18.05.2017 17:50 27,1 C 23,3 C 44 % 1009,8 hPa 0,0 l/m 6,0 km/h (2 Bft) NO 51 2 min 0,000 mm 1,1 UV-I 368 W/m 13,8 C 27,1 C 8,0 km/h (2 Bft) 92,68 %
18.05.2017 17:52 27,1 C 23,3 C 45 % 1009,7 hPa 0,0 l/m 5,3 km/h (1 Bft) O-NO 63 2 min 0,000 mm 1,1 UV-I 362 W/m 14,1 C 27,1 C 8,0 km/h (2 Bft) 98,21 %
18.05.2017 17:54 27,1 C 23,3 C 48 % 1009,7 hPa 0,0 l/m 7,2 km/h (2 Bft) NO 53 2 min 0,000 mm 1,1 UV-I 352 W/m 15,1 C 27,0 C 14,5 km/h (3 Bft) 94,00 %
18.05.2017 17:56 27,1 C 23,3 C 43 % 1009,8 hPa 0,0 l/m 8,1 km/h (2 Bft) O-NO 76 2 min 0,000 mm 1,0 UV-I 346 W/m 13,4 C 26,8 C 12,9 km/h (3 Bft) 94,87 %
18.05.2017 17:58 27,0 C 23,3 C 43 % 1009,7 hPa 0,0 l/m 6,8 km/h (2 Bft) O-NO 65 2 min 0,000 mm 1,0 UV-I 341 W/m 13,3 C 26,9 C 9,7 km/h (2 Bft) 96,15 %
18.05.2017 18:00 27,0 C 23,3 C 43 % 1009,6 hPa 0,0 l/m 5,9 km/h (2 Bft) NO 47 2 min 0,000 mm 1,0 UV-I 334 W/m 13,3 C 27,0 C 11,3 km/h (2 Bft) 97,62 %
18.05.2017 18:02 26,9 C 23,3 C 44 % 1009,6 hPa 0,0 l/m 4,5 km/h (1 Bft) NO 47 2 min 0,330 mm 0,9 UV-I 330 W/m 13,6 C 26,9 C 6,4 km/h (2 Bft) 96,23 %
18.05.2017 18:04 26,7 C 23,3 C 47 % 1009,5 hPa 0,0 l/m 5,8 km/h (2 Bft) O-NO 57 2 min 0,000 mm 0,9 UV-I 325 W/m 14,4 C 26,7 C 9,7 km/h (2 Bft) 96,00 %
18.05.2017 18:06 26,7 C 23,3 C 45 % 1009,6 hPa 0,0 l/m 8,0 km/h (2 Bft) O-NO 67 2 min 0,000 mm 0,9 UV-I 320 W/m 13,8 C 26,4 C 12,9 km/h (3 Bft) 97,56 %
18.05.2017 18:08 26,8 C 23,3 C 43 % 1009,5 hPa 0,0 l/m 7,8 km/h (2 Bft) O-NO 59 2 min 0,000 mm 0,9 UV-I 316 W/m 13,2 C 26,5 C 14,5 km/h (3 Bft) 95,45 %
18.05.2017 18:10 26,8 C 23,3 C 42 % 1009,5 hPa 0,0 l/m 6,7 km/h (2 Bft) O-NO 65 2 min 0,000 mm 0,8 UV-I 311 W/m 12,8 C 26,7 C 9,7 km/h (2 Bft) 96,00 %
18.05.2017 18:12 26,9 C 23,3 C 43 % 1009,5 hPa 0,0 l/m 6,5 km/h (2 Bft) O 81 2 min 0,000 mm 0,8 UV-I 304 W/m 13,2 C 26,9 C 12,9 km/h (3 Bft) 96,43 %
18.05.2017 18:14 26,9 C 23,3 C 44 % 1009,5 hPa 0,0 l/m 9,6 km/h (2 Bft) O 79 2 min 0,000 mm 0,8 UV-I 297 W/m 13,6 C 26,3 C 12,9 km/h (3 Bft) 100,00 %
18.05.2017 18:16 26,9 C 23,3 C 45 % 1009,5 hPa 0,0 l/m 10,3 km/h (2 Bft) O-NO 63 2 min 0,000 mm 0,8 UV-I 291 W/m 13,9 C 26,2 C 14,5 km/h (3 Bft) 92,68 %
18.05.2017 18:18 26,8 C 23,3 C 45 % 1009,5 hPa 0,0 l/m 8,6 km/h (2 Bft) O-NO 69 2 min 0,000 mm 0,7 UV-I 285 W/m 13,9 C 26,4 C 14,5 km/h (3 Bft) 95,12 %
18.05.2017 18:20 26,8 C 23,3 C 46 % 1009,4 hPa 0,0 l/m 7,0 km/h (2 Bft) O-NO 73 2 min 0,000 mm 0,7 UV-I 279 W/m 14,2 C 26,7 C 11,3 km/h (2 Bft) 100,00 %
18.05.2017 18:22 26,7 C 23,3 C 45 % 1009,4 hPa 0,0 l/m 6,7 km/h (2 Bft) O-NO 63 2 min 0,000 mm 0,7 UV-I 272 W/m 13,8 C 26,6 C 9,7 km/h (2 Bft) 97,37 %
18.05.2017 18:24 26,7 C 23,3 C 46 % 1009,4 hPa 0,0 l/m 6,5 km/h (2 Bft) O-NO 71 2 min 0,000 mm 0,7 UV-I 267 W/m 14,1 C 26,7 C 11,3 km/h (2 Bft) 100,00 %
18.05.2017 18:26 26,7 C 23,3 C 48 % 1009,4 hPa 0,0 l/m 6,4 km/h (2 Bft) O-NO 78 2 min 0,000 mm 0,6 UV-I 264 W/m 14,8 C 26,7 C 12,9 km/h (3 Bft) 98,00 %
18.05.2017 18:28 26,7 C 23,3 C 48 % 1009,4 hPa 0,0 l/m 7,5 km/h (2 Bft) O-NO 77 2 min 0,000 mm 0,6 UV-I 259 W/m 14,8 C 26,5 C 11,3 km/h (2 Bft) 98,11 %
18.05.2017 18:30 26,6 C 23,3 C 45 % 1009,4 hPa 0,0 l/m 10,0 km/h (2 Bft) O 81 2 min 0,000 mm 0,6 UV-I 254 W/m 13,7 C 25,9 C 14,5 km/h (3 Bft) 97,73 %
18.05.2017 18:32 26,6 C 23,3 C 46 % 1009,4 hPa 0,0 l/m 7,6 km/h (2 Bft) O-NO 65 2 min 0,000 mm 0,6 UV-I 248 W/m 14,0 C 26,4 C 14,5 km/h (3 Bft) 98,00 %
18.05.2017 18:34 26,6 C 23,3 C 46 % 1009,4 hPa 0,0 l/m 7,5 km/h (2 Bft) O 80 2 min 0,000 mm 0,6 UV-I 243 W/m 14,0 C 26,4 C 11,3 km/h (2 Bft) 100,00 %
18.05.2017 18:36 26,5 C 23,3 C 46 % 1009,3 hPa 0,0 l/m 7,7 km/h (2 Bft) O 82 2 min 0,000 mm 0,5 UV-I 236 W/m 13,9 C 26,2 C 12,9 km/h (3 Bft) 97,62 %
18.05.2017 18:38 26,5 C 23,3 C 45 % 1009,4 hPa 0,0 l/m 8,5 km/h (2 Bft) O-NO 63 2 min 0,000 mm 0,5 UV-I 230 W/m 13,6 C 26,1 C 12,9 km/h (3 Bft) 96,00 %
18.05.2017 18:40 26,5 C 23,3 C 46 % 1009,3 hPa 0,0 l/m 7,5 km/h (2 Bft) O-NO 65 2 min 0,000 mm 0,5 UV-I 223 W/m 13,9 C 26,3 C 12,9 km/h (3 Bft) 96,00 %
18.05.2017 18:42 26,5 C 23,3 C 46 % 1009,3 hPa 0,0 l/m 6,1 km/h (2 Bft) O-NO 59 2 min 0,000 mm 0,5 UV-I 218 W/m 13,9 C 26,5 C 11,3 km/h (2 Bft) 100,00 %
18.05.2017 18:44 26,4 C 23,3 C 49 % 1009,3 hPa 0,0 l/m 6,0 km/h (2 Bft) NO 40 2 min 0,000 mm 0,5 UV-I 214 W/m 14,8 C 26,4 C 8,0 km/h (2 Bft) 100,00 %
18.05.2017 18:46 26,3 C 23,3 C 47 % 1009,3 hPa 0,0 l/m 6,5 km/h (2 Bft) O-NO 76 2 min 0,000 mm 0,1 UV-I 209 W/m 14,1 C 26,3 C 9,7 km/h (2 Bft) 97,37 %
18.05.2017 18:48 26,3 C 23,3 C 46 % 1009,3 hPa 0,0 l/m 7,2 km/h (2 Bft) O-NO 57 2 min 0,000 mm 0,0 UV-I 203 W/m 13,7 C 26,1 C 12,9 km/h (3 Bft) 100,00 %
18.05.2017 18:50 26,3 C 23,3 C 47 % 1009,4 hPa 0,0 l/m 5,9 km/h (2 Bft) O-NO 69 2 min 0,000 mm 0,0 UV-I 198 W/m 14,1 C 26,3 C 9,7 km/h (2 Bft) 98,11 %
18.05.2017 18:52 26,3 C 23,3 C 48 % 1009,3 hPa 0,0 l/m 6,3 km/h (2 Bft) O-NO 68 2 min 0,000 mm 0,0 UV-I 192 W/m 14,4 C 26,3 C 9,7 km/h (2 Bft) 97,14 %
18.05.2017 18:54 26,2 C 23,3 C 49 % 1009,3 hPa 0,0 l/m 5,9 km/h (2 Bft) O-NO 67 2 min 0,000 mm 0,0 UV-I 186 W/m 14,6 C 26,2 C 8,0 km/h (2 Bft) 98,11 %
18.05.2017 18:56 26,2 C 23,3 C 47 % 1009,4 hPa 0,0 l/m 7,9 km/h (2 Bft) O-NO 67 2 min 0,000 mm 0,0 UV-I 181 W/m 14,0 C 25,9 C 12,9 km/h (3 Bft) 92,11 %
18.05.2017 18:58 26,2 C 23,3 C 47 % 1009,3 hPa 0,0 l/m 9,5 km/h (2 Bft) O 80 2 min 0,000 mm 0,0 UV-I 177 W/m 14,0 C 25,6 C 12,9 km/h (3 Bft) 100,00 %
18.05.2017 19:00 26,2 C 23,3 C 48 % 1009,3 hPa 0,0 l/m 10,0 km/h (2 Bft) O 81 2 min 0,000 mm 0,0 UV-I 171 W/m 14,3 C 25,5 C 12,9 km/h (3 Bft) 97,73 %
18.05.2017 19:02 26,1 C 23,3 C 46 % 1009,3 hPa 0,0 l/m 11,2 km/h (2 Bft) O 82 2 min 0,228 mm 0,0 UV-I 165 W/m 13,6 C 25,2 C 14,5 km/h (3 Bft) 98,11 %
18.05.2017 19:04 26,1 C 23,3 C 45 % 1009,3 hPa 0,0 l/m 11,3 km/h (2 Bft) NO 53 2 min 0,000 mm 0,0 UV-I 161 W/m 13,2 C 25,2 C 17,7 km/h (3 Bft) 97,73 %
18.05.2017 19:06 26,0 C 23,3 C 46 % 1009,3 hPa 0,0 l/m 10,5 km/h (2 Bft) O-NO 74 2 min 0,000 mm 0,0 UV-I 156 W/m 13,5 C 25,2 C 14,5 km/h (3 Bft) 97,56 %
18.05.2017 19:08 25,9 C 23,3 C 47 % 1009,3 hPa 0,0 l/m 9,4 km/h (2 Bft) O 82 2 min 0,000 mm 0,0 UV-I 151 W/m 13,7 C 25,3 C 14,5 km/h (3 Bft) 98,00 %
18.05.2017 19:10 25,9 C 23,3 C 46 % 1009,3 hPa 0,0 l/m 7,6 km/h (2 Bft) O 98 2 min 0,000 mm 0,0 UV-I 147 W/m 13,4 C 25,6 C 12,9 km/h (3 Bft) 96,23 %
18.05.2017 19:12 25,8 C 23,3 C 49 % 1009,3 hPa 0,0 l/m 6,4 km/h (2 Bft) O 98 2 min 0,000 mm 0,0 UV-I 142 W/m 14,3 C 25,8 C 8,0 km/h (2 Bft) 95,45 %
18.05.2017 19:14 25,8 C 23,3 C 48 % 1009,3 hPa 0,0 l/m 6,6 km/h (2 Bft) O-NO 74 2 min 0,000 mm 0,0 UV-I 137 W/m 13,9 C 25,8 C 9,7 km/h (2 Bft) 97,56 %
18.05.2017 19:16 25,8 C 23,3 C 47 % 1009,3 hPa 0,0 l/m 6,4 km/h (2 Bft) O-NO 65 2 min 0,000 mm 0,0 UV-I 133 W/m 13,6 C 25,8 C 8,0 km/h (2 Bft) 96,23 %
18.05.2017 19:18 25,8 C 23,3 C 47 % 1009,3 hPa 0,0 l/m 5,9 km/h (2 Bft) O-NO 63 2 min 0,000 mm 0,0 UV-I 129 W/m 13,6 C 25,8 C 8,0 km/h (2 Bft) 96,00 %
18.05.2017 19:20 25,8 C 23,3 C 49 % 1009,2 hPa 0,0 l/m 6,9 km/h (2 Bft) O-NO 74 2 min 0,000 mm 0,0 UV-I 124 W/m 14,3 C 25,7 C 9,7 km/h (2 Bft) 97,44 %
18.05.2017 19:22 25,8 C 23,3 C 49 % 1009,2 hPa 0,0 l/m 7,2 km/h (2 Bft) O-NO 76 2 min 0,000 mm 0,0 UV-I 119 W/m 14,3 C 25,6 C 11,3 km/h (2 Bft) 97,87 %
18.05.2017 19:24 25,7 C 23,3 C 48 % 1009,2 hPa 0,0 l/m 7,2 km/h (2 Bft) O 80 2 min 0,000 mm 0,0 UV-I 114 W/m 13,9 C 25,5 C 11,3 km/h (2 Bft) 96,00 %
18.05.2017 19:26 25,6 C 23,3 C 49 % 1009,2 hPa 0,0 l/m 5,9 km/h (2 Bft) O-NO 78 2 min 0,000 mm 0,0 UV-I 110 W/m 14,1 C 25,6 C 11,3 km/h (2 Bft) 93,62 %
18.05.2017 19:28 25,6 C 23,3 C 49 % 1009,2 hPa 0,0 l/m 6,3 km/h (2 Bft) O-NO 70 2 min 0,000 mm 0,0 UV-I 106 W/m 14,1 C 25,6 C 8,0 km/h (2 Bft) 94,74 %
18.05.2017 19:30 25,6 C 23,3 C 49 % 1009,2 hPa 0,0 l/m 5,7 km/h (1 Bft) O-NO 69 2 min 0,000 mm 0,0 UV-I 102 W/m 14,1 C 25,6 C 8,0 km/h (2 Bft) 92,86 %
18.05.2017 19:32 25,5 C 23,3 C 50 % 1009,2 hPa 0,0 l/m 5,5 km/h (1 Bft) O-NO 71 2 min 0,000 mm 0,0 UV-I 98 W/m 14,3 C 25,5 C 8,0 km/h (2 Bft) 100,00 %
18.05.2017 19:34 25,4 C 23,3 C 49 % 1009,2 hPa 0,0 l/m 5,3 km/h (1 Bft) O-NO 65 2 min 0,000 mm 0,0 UV-I 94 W/m 13,9 C 25,4 C 6,4 km/h (2 Bft) 92,31 %
18.05.2017 19:36 25,4 C 23,3 C 49 % 1009,2 hPa 0,0 l/m 5,0 km/h (1 Bft) O-NO 70 2 min 0,000 mm 0,0 UV-I 90 W/m 13,9 C 25,4 C 8,0 km/h (2 Bft) 90,38 %
18.05.2017 19:38 25,3 C 23,3 C 49 % 1009,2 hPa 0,0 l/m 4,5 km/h (1 Bft) NO 54 2 min 0,000 mm 0,0 UV-I 87 W/m 13,8 C 25,3 C 8,0 km/h (2 Bft) 94,29 %
18.05.2017 19:40 25,1 C 23,3 C 52 % 1009,2 hPa 0,0 l/m 3,3 km/h (1 Bft) NO 54 2 min 0,000 mm 0,0 UV-I 83 W/m 14,5 C 25,1 C 4,8 km/h (1 Bft) 90,57 %
18.05.2017 19:42 24,8 C 23,3 C 53 % 1009,2 hPa 0,0 l/m 3,6 km/h (1 Bft) NO 54 2 min 0,000 mm 0,0 UV-I 80 W/m 14,6 C 24,8 C 4,8 km/h (1 Bft) 93,62 %
18.05.2017 19:44 24,7 C 23,3 C 53 % 1009,2 hPa 0,0 l/m 4,2 km/h (1 Bft) NO 54 2 min 0,000 mm 0,0 UV-I 77 W/m 14,5 C 24,7 C 4,8 km/h (1 Bft) 96,00 %
18.05.2017 19:46 24,6 C 23,3 C 53 % 1009,2 hPa 0,0 l/m 4,2 km/h (1 Bft) NO 53 2 min 0,000 mm 0,0 UV-I 72 W/m 14,4 C 24,6 C 6,4 km/h (2 Bft) 89,80 %
18.05.2017 19:48 24,6 C 23,3 C 53 % 1009,2 hPa 0,0 l/m 4,1 km/h (1 Bft) NO 53 2 min 0,000 mm 0,0 UV-I 68 W/m 14,4 C 24,6 C 4,8 km/h (1 Bft) 95,45 %
18.05.2017 19:50 24,4 C 23,3 C 56 % 1009,1 hPa 0,0 l/m 3,5 km/h (1 Bft) NO 53 2 min 0,000 mm 0,0 UV-I 65 W/m 15,0 C 24,4 C 6,4 km/h (2 Bft) 95,12 %
18.05.2017 19:52 24,3 C 23,3 C 54 % 1009,1 hPa 0,0 l/m 2,3 km/h (1 Bft) NO 53 2 min 0,000 mm 0,0 UV-I 63 W/m 14,4 C 24,3 C 4,8 km/h (1 Bft) 90,57 %
18.05.2017 19:54 24,3 C 23,3 C 55 % 1009,1 hPa 0,0 l/m 3,2 km/h (1 Bft) NO 53 2 min 0,000 mm 0,0 UV-I 58 W/m 14,7 C 24,3 C 4,8 km/h (1 Bft) 95,24 %
18.05.2017 19:56 24,2 C 23,3 C 53 % 1009,1 hPa 0,0 l/m 2,0 km/h (1 Bft) NO 53 2 min 0,000 mm 0,0 UV-I 54 W/m 14,0 C 24,2 C 3,2 km/h (1 Bft) 89,36 %
18.05.2017 19:58 24,2 C 23,3 C 54 % 1009,1 hPa 0,0 l/m 2,0 km/h (1 Bft) NO 53 2 min 0,000 mm 0,0 UV-I 52 W/m 14,3 C 24,2 C 3,2 km/h (1 Bft) 97,14 %
18.05.2017 20:00 24,1 C 23,3 C 54 % 1009,1 hPa 0,0 l/m 1,2 km/h (1 Bft) NO 53 0 min 0,000 mm 0,0 UV-I 48 W/m 14,2 C 24,1 C 3,2 km/h (1 Bft) 91,94 %
18.05.2017 20:02 23,9 C 23,3 C 55 % 1009,1 hPa 0,0 l/m 2,7 km/h (1 Bft) NO 53 2 min 0,127 mm 0,0 UV-I 46 W/m 14,3 C 23,9 C 3,2 km/h (1 Bft) 91,49 %
18.05.2017 20:04 23,9 C 23,3 C 54 % 1009,1 hPa 0,0 l/m 1,2 km/h (1 Bft) NO 53 2 min 0,000 mm 0,0 UV-I 43 W/m 14,0 C 23,9 C 3,2 km/h (1 Bft) 90,00 %
18.05.2017 20:06 23,8 C 23,3 C 55 % 1009,1 hPa 0,0 l/m 1,3 km/h (1 Bft) NO 53 2 min 0,000 mm 0,0 UV-I 40 W/m 14,2 C 23,8 C 3,2 km/h (1 Bft) 90,24 %
18.05.2017 20:08 23,7 C 23,3 C 55 % 1009,1 hPa 0,0 l/m 0,9 km/h (0 Bft) NO 53 2 min 0,000 mm 0,0 UV-I 38 W/m 14,1 C 23,7 C 3,2 km/h (1 Bft) 90,00 %
18.05.2017 20:10 23,7 C 23,3 C 55 % 1009,1 hPa 0,0 l/m 1,6 km/h (1 Bft) NO 53 2 min 0,000 mm 0,0 UV-I 34 W/m 14,1 C 23,7 C 3,2 km/h (1 Bft) 95,12 %
18.05.2017 20:12 23,6 C 23,3 C 55 % 1009,0 hPa 0,0 l/m 1,3 km/h (1 Bft) NO 53 2 min 0,000 mm 0,0 UV-I 33 W/m 14,0 C 23,6 C 3,2 km/h (1 Bft) 93,62 %
18.05.2017 20:14 23,5 C 23,3 C 55 % 1009,0 hPa 0,0 l/m 1,5 km/h (1 Bft) NO 53 2 min 0,000 mm 0,0 UV-I 30 W/m 13,9 C 23,5 C 3,2 km/h (1 Bft) 94,00 %
18.05.2017 20:16 23,4 C 23,3 C 55 % 1009,0 hPa 0,0 l/m 2,2 km/h (1 Bft) NO 53 2 min 0,000 mm 0,0 UV-I 28 W/m 13,8 C 23,4 C 4,8 km/h (1 Bft) 95,74 %
18.05.2017 20:18 23,4 C 23,3 C 55 % 1009,0 hPa 0,0 l/m 2,2 km/h (1 Bft) NO 53 2 min 0,000 mm 0,0 UV-I 26 W/m 13,8 C 23,4 C 3,2 km/h (1 Bft) 100,00 %
18.05.2017 20:20 23,3 C 23,3 C 55 % 1009,0 hPa 0,0 l/m 2,2 km/h (1 Bft) NO 53 2 min 0,000 mm 0,0 UV-I 23 W/m 13,7 C 23,3 C 3,2 km/h (1 Bft) 100,00 %
18.05.2017 20:22 23,2 C 23,3 C 56 % 1008,9 hPa 0,0 l/m 2,5 km/h (1 Bft) NO 53 2 min 0,000 mm 0,0 UV-I 19 W/m 13,9 C 23,2 C 4,8 km/h (1 Bft) 95,45 %
18.05.2017 20:24 23,1 C 23,3 C 56 % 1008,9 hPa 0,0 l/m 2,8 km/h (1 Bft) NO 53 2 min 0,000 mm 0,0 UV-I 17 W/m 13,8 C 23,1 C 4,8 km/h (1 Bft) 100,00 %
18.05.2017 20:26 22,9 C 23,3 C 57 % 1008,9 hPa 0,0 l/m 3,0 km/h (1 Bft) NO 53 2 min 0,000 mm 0,0 UV-I 15 W/m 13,9 C 22,9 C 4,8 km/h (1 Bft) 100,00 %
18.05.2017 20:28 22,8 C 23,3 C 57 % 1008,9 hPa 0,0 l/m 3,0 km/h (1 Bft) NO 54 2 min 0,000 mm 0,0 UV-I 13 W/m 13,8 C 22,8 C 4,8 km/h (1 Bft) 98,44 %
18.05.2017 20:30 22,8 C 23,3 C 56 % 1008,8 hPa 0,0 l/m 4,0 km/h (1 Bft) NO 54 0 min 0,000 mm 0,0 UV-I 12 W/m 13,6 C 22,8 C 4,8 km/h (1 Bft) 94,74 %
18.05.2017 20:32 22,8 C 23,3 C 57 % 1008,8 hPa 0,0 l/m 3,2 km/h (1 Bft) NO 54 0 min 0,000 mm 0,0 UV-I 11 W/m 13,8 C 22,8 C 4,8 km/h (1 Bft) 97,87 %
18.05.2017 20:34 22,8 C 23,3 C 56 % 1008,9 hPa 0,0 l/m 1,5 km/h (1 Bft) NO 54 0 min 0,000 mm 0,0 UV-I 10 W/m 13,6 C 22,8 C 3,2 km/h (1 Bft) 98,11 %
18.05.2017 20:36 22,8 C 23,3 C 56 % 1008,8 hPa 0,0 l/m 2,7 km/h (1 Bft) NO 54 0 min 0,000 mm 0,0 UV-I 9 W/m 13,6 C 22,8 C 3,2 km/h (1 Bft) 100,00 %
18.05.2017 20:38 22,8 C 23,3 C 56 % 1008,8 hPa 0,0 l/m 2,1 km/h (1 Bft) NO 54 0 min 0,000 mm 0,0 UV-I 9 W/m 13,6 C 22,8 C 3,2 km/h (1 Bft) 100,00 %
18.05.2017 20:40 22,8 C 23,3 C 57 % 1008,8 hPa 0,0 l/m 1,4 km/h (1 Bft) NO 54 0 min 0,000 mm 0,0 UV-I 7 W/m 13,8 C 22,8 C 4,8 km/h (1 Bft) 100,00 %
18.05.2017 20:42 22,6 C 23,3 C 58 % 1008,8 hPa 0,0 l/m 3,1 km/h (1 Bft) NO 54 0 min 0,000 mm 0,0 UV-I 7 W/m 13,9 C 22,6 C 4,8 km/h (1 Bft) 98,11 %
18.05.2017 20:44 22,5 C 23,3 C 57 % 1008,8 hPa 0,0 l/m 4,2 km/h (1 Bft) NO 55 0 min 0,000 mm 0,0 UV-I 7 W/m 13,5 C 22,5 C 6,4 km/h (2 Bft) 100,00 %
18.05.2017 20:46 22,4 C 23,3 C 58 % 1008,8 hPa 0,0 l/m 4,6 km/h (1 Bft) O-NO 59 0 min 0,000 mm 0,0 UV-I 5 W/m 13,7 C 22,4 C 6,4 km/h (2 Bft) 98,00 %
18.05.2017 20:48 22,4 C 23,3 C 58 % 1008,8 hPa 0,0 l/m 5,2 km/h (1 Bft) O-NO 69 0 min 0,000 mm 0,0 UV-I 5 W/m 13,7 C 22,4 C 6,4 km/h (2 Bft) 97,87 %
18.05.2017 20:50 22,4 C 23,3 C 59 % 1008,8 hPa 0,0 l/m 6,1 km/h (2 Bft) O-NO 75 0 min 0,000 mm 0,0 UV-I 5 W/m 14,0 C 22,4 C 8,0 km/h (2 Bft) 96,00 %
18.05.2017 20:52 22,4 C 23,3 C 59 % 1008,8 hPa 0,0 l/m 6,0 km/h (2 Bft) O-NO 76 0 min 0,000 mm 0,0 UV-I 5 W/m 14,0 C 22,4 C 8,0 km/h (2 Bft) 100,00 %
18.05.2017 20:54 22,4 C 23,3 C 59 % 1008,8 hPa 0,0 l/m 6,4 km/h (2 Bft) O-NO 76 0 min 0,000 mm 0,0 UV-I 2 W/m 14,0 C 22,4 C 11,3 km/h (2 Bft) 98,11 %
18.05.2017 20:56 22,4 C 23,3 C 59 % 1008,9 hPa 0,0 l/m 7,4 km/h (2 Bft) O-NO 75 0 min 0,000 mm 0,0 UV-I 0 W/m 14,0 C 22,1 C 11,3 km/h (2 Bft) 98,00 %
18.05.2017 20:58 22,3 C 23,3 C 59 % 1008,9 hPa 0,0 l/m 7,9 km/h (2 Bft) O 84 0 min 0,000 mm 0,0 UV-I 0 W/m 13,9 C 21,8 C 11,3 km/h (2 Bft) 100,00 %
18.05.2017 21:00 22,3 C 23,3 C 59 % 1008,8 hPa 0,0 l/m 7,9 km/h (2 Bft) O-NO 69 0 min 0,000 mm 0,0 UV-I 0 W/m 13,9 C 21,8 C 11,3 km/h (2 Bft) 95,45 %
18.05.2017 21:02 22,3 C 23,3 C 59 % 1008,8 hPa 0,0 l/m 7,6 km/h (2 Bft) O-NO 69 0 min 0,051 mm 0,0 UV-I 0 W/m 13,9 C 21,9 C 11,3 km/h (2 Bft) 98,21 %
18.05.2017 21:04 22,2 C 23,3 C 59 % 1008,9 hPa 0,0 l/m 7,2 km/h (2 Bft) O-NO 69 0 min 0,000 mm 0,0 UV-I 0 W/m 13,8 C 21,9 C 9,7 km/h (2 Bft) 97,87 %
18.05.2017 21:06 22,2 C 23,3 C 59 % 1008,8 hPa 0,0 l/m 8,4 km/h (2 Bft) O 84 0 min 0,000 mm 0,0 UV-I 0 W/m 13,8 C 21,5 C 12,9 km/h (3 Bft) 97,37 %
18.05.2017 21:08 22,2 C 23,3 C 59 % 1008,8 hPa 0,0 l/m 7,4 km/h (2 Bft) O 85 0 min 0,000 mm 0,0 UV-I 0 W/m 13,8 C 21,9 C 11,3 km/h (2 Bft) 100,00 %
18.05.2017 21:10 22,2 C 23,3 C 58 % 1008,8 hPa 0,0 l/m 9,0 km/h (2 Bft) O-NO 78 0 min 0,000 mm 0,0 UV-I 0 W/m 13,5 C 21,4 C 14,5 km/h (3 Bft) 97,56 %
18.05.2017 21:12 22,2 C 23,3 C 58 % 1008,7 hPa 0,0 l/m 9,9 km/h (2 Bft) O-NO 69 0 min 0,000 mm 0,0 UV-I 0 W/m 13,5 C 21,1 C 12,9 km/h (3 Bft) 98,11 %
18.05.2017 21:14 22,2 C 23,3 C 58 % 1008,8 hPa 0,0 l/m 10,3 km/h (2 Bft) O 82 0 min 0,000 mm 0,0 UV-I 0 W/m 13,5 C 21,0 C 14,5 km/h (3 Bft) 97,62 %
18.05.2017 21:16 22,2 C 23,3 C 58 % 1008,8 hPa 0,0 l/m 10,2 km/h (2 Bft) O 81 0 min 0,000 mm 0,0 UV-I 0 W/m 13,5 C 21,0 C 14,5 km/h (3 Bft) 100,00 %
18.05.2017 21:18 22,3 C 23,3 C 58 % 1008,8 hPa 0,0 l/m 10,0 km/h (2 Bft) O-NO 74 0 min 0,000 mm 0,0 UV-I 0 W/m 13,6 C 21,2 C 16,1 km/h (3 Bft) 93,75 %
18.05.2017 21:20 22,2 C 23,3 C 58 % 1008,7 hPa 0,0 l/m 10,2 km/h (2 Bft) O-NO 78 0 min 0,000 mm 0,0 UV-I 0 W/m 13,5 C 21,0 C 14,5 km/h (3 Bft) 97,56 %
18.05.2017 21:22 22,2 C 23,3 C 58 % 1008,7 hPa 0,0 l/m 12,1 km/h (2 Bft) O-NO 76 0 min 0,000 mm 0,0 UV-I 0 W/m 13,5 C 20,5 C 17,7 km/h (3 Bft) 96,00 %
18.05.2017 21:24 22,2 C 23,3 C 58 % 1008,7 hPa 0,0 l/m 11,8 km/h (2 Bft) O 80 0 min 0,000 mm 0,0 UV-I 0 W/m 13,5 C 20,6 C 16,1 km/h (3 Bft) 96,00 %
18.05.2017 21:26 22,2 C 23,3 C 58 % 1008,8 hPa 0,0 l/m 10,4 km/h (2 Bft) O 85 0 min 0,000 mm 0,0 UV-I 0 W/m 13,5 C 21,0 C 14,5 km/h (3 Bft) 100,00 %
18.05.2017 21:28 22,1 C 23,3 C 58 % 1008,7 hPa 0,0 l/m 10,0 km/h (2 Bft) O-NO 75 0 min 0,000 mm 0,0 UV-I 0 W/m 13,4 C 21,0 C 14,5 km/h (3 Bft) 92,68 %
18.05.2017 21:30 22,0 C 23,3 C 59 % 1008,7 hPa 0,0 l/m 11,4 km/h (2 Bft) O-NO 64 0 min 0,000 mm 0,0 UV-I 0 W/m 13,6 C 20,5 C 16,1 km/h (3 Bft) 96,61 %
18.05.2017 21:32 22,0 C 23,3 C 58 % 1008,8 hPa 0,0 l/m 10,3 km/h (2 Bft) O 99 0 min 0,000 mm 0,0 UV-I 0 W/m 13,3 C 20,8 C 14,5 km/h (3 Bft) 97,37 %
18.05.2017 21:34 21,9 C 23,3 C 58 % 1008,8 hPa 0,0 l/m 12,9 km/h (3 Bft) O-NO 69 0 min 0,000 mm 0,0 UV-I 0 W/m 13,3 C 20,0 C 17,7 km/h (3 Bft) 96,00 %
18.05.2017 21:36 21,9 C 23,3 C 59 % 1008,8 hPa 0,0 l/m 9,1 km/h (2 Bft) O-NO 77 0 min 0,000 mm 0,0 UV-I 0 W/m 13,5 C 21,0 C 14,5 km/h (3 Bft) 98,00 %
18.05.2017 21:38 21,9 C 23,3 C 58 % 1008,7 hPa 0,0 l/m 11,5 km/h (2 Bft) O-NO 67 0 min 0,000 mm 0,0 UV-I 0 W/m 13,3 C 20,3 C 17,7 km/h (3 Bft) 92,59 %
18.05.2017 21:40 21,9 C 23,3 C 58 % 1008,7 hPa 0,0 l/m 13,6 km/h (3 Bft) O-NO 64 0 min 0,000 mm 0,0 UV-I 0 W/m 13,3 C 19,8 C 20,9 km/h (4 Bft) 97,01 %
18.05.2017 21:42 21,9 C 23,3 C 58 % 1008,7 hPa 0,0 l/m 11,2 km/h (2 Bft) O 80 0 min 0,000 mm 0,0 UV-I 0 W/m 13,3 C 20,4 C 17,7 km/h (3 Bft) 95,45 %
18.05.2017 21:44 21,9 C 23,3 C 59 % 1008,7 hPa 0,0 l/m 11,2 km/h (2 Bft) O-NO 69 0 min 0,000 mm 0,0 UV-I 0 W/m 13,5 C 20,4 C 16,1 km/h (3 Bft) 97,73 %
18.05.2017 21:46 21,9 C 23,3 C 58 % 1008,7 hPa 0,0 l/m 13,0 km/h (3 Bft) O 90 0 min 0,000 mm 0,0 UV-I 0 W/m 13,3 C 20,0 C 19,3 km/h (3 Bft) 98,00 %
18.05.2017 21:48 21,8 C 23,3 C 59 % 1008,7 hPa 0,0 l/m 13,7 km/h (3 Bft) O-NO 59 0 min 0,000 mm 0,0 UV-I 0 W/m 13,4 C 19,7 C 19,3 km/h (3 Bft) 94,00 %
18.05.2017 21:50 21,8 C 23,3 C 59 % 1008,7 hPa 0,0 l/m 12,7 km/h (3 Bft) O 83 0 min 0,000 mm 0,0 UV-I 0 W/m 13,4 C 19,9 C 17,7 km/h (3 Bft) 96,00 %
18.05.2017 21:52 21,7 C 23,3 C 59 % 1008,7 hPa 0,0 l/m 13,4 km/h (3 Bft) O 90 0 min 0,000 mm 0,0 UV-I 0 W/m 13,3 C 19,7 C 19,3 km/h (3 Bft) 97,44 %
18.05.2017 21:54 21,7 C 23,3 C 59 % 1008,7 hPa 0,0 l/m 13,0 km/h (3 Bft) O 96 0 min 0,000 mm 0,0 UV-I 0 W/m 13,3 C 19,7 C 19,3 km/h (3 Bft) 97,37 %
18.05.2017 21:56 21,7 C 23,3 C 59 % 1008,7 hPa 0,0 l/m 11,7 km/h (2 Bft) O-NO 72 0 min 0,000 mm 0,0 UV-I 0 W/m 13,3 C 20,1 C 14,5 km/h (3 Bft) 96,23 %
18.05.2017 21:58 21,6 C 23,3 C 59 % 1008,7 hPa 0,0 l/m 13,0 km/h (3 Bft) O-NO 67 0 min 0,000 mm 0,0 UV-I 0 W/m 13,2 C 19,6 C 16,1 km/h (3 Bft) 94,00 %
18.05.2017 22:00 21,6 C 23,3 C 59 % 1008,7 hPa 0,0 l/m 11,8 km/h (2 Bft) O-NO 59 0 min 0,076 mm 0,0 UV-I 0 W/m 13,2 C 19,9 C 16,1 km/h (3 Bft) 97,73 %
18.05.2017 22:02 21,4 C 23,3 C 60 % 1008,7 hPa 0,0 l/m 10,8 km/h (2 Bft) O-NO 63 0 min 0,000 mm 0,0 UV-I 0 W/m 13,3 C 20,0 C 14,5 km/h (3 Bft) 95,74 %
18.05.2017 22:04 21,4 C 23,3 C 60 % 1008,7 hPa 0,0 l/m 9,6 km/h (2 Bft) O-NO 70 0 min 0,000 mm 0,0 UV-I 0 W/m 13,3 C 20,3 C 14,5 km/h (3 Bft) 94,00 %
18.05.2017 22:06 21,3 C 23,3 C 60 % 1008,7 hPa 0,0 l/m 11,7 km/h (2 Bft) O 94 0 min 0,000 mm 0,0 UV-I 0 W/m 13,2 C 19,6 C 16,1 km/h (3 Bft) 98,11 %
18.05.2017 22:08 21,3 C 23,3 C 60 % 1008,7 hPa 0,0 l/m 10,5 km/h (2 Bft) O-NO 63 0 min 0,000 mm 0,0 UV-I 0 W/m 13,2 C 19,9 C 14,5 km/h (3 Bft) 97,56 %
18.05.2017 22:10 21,2 C 23,3 C 61 % 1008,7 hPa 0,0 l/m 8,6 km/h (2 Bft) O-NO 66 0 min 0,000 mm 0,0 UV-I 0 W/m 13,4 C 20,4 C 12,9 km/h (3 Bft) 98,11 %
18.05.2017 22:12 21,1 C 23,3 C 61 % 1008,7 hPa 0,0 l/m 7,3 km/h (2 Bft) O 82 0 min 0,000 mm 0,0 UV-I 0 W/m 13,3 C 20,8 C 11,3 km/h (2 Bft) 95,12 %
18.05.2017 22:14 21,0 C 23,3 C 61 % 1008,7 hPa 0,0 l/m 7,5 km/h (2 Bft) NO 55 0 min 0,000 mm 0,0 UV-I 0 W/m 13,2 C 20,6 C 12,9 km/h (3 Bft) 97,87 %
18.05.2017 22:16 20,9 C 23,3 C 62 % 1008,7 hPa 0,0 l/m 7,2 km/h (2 Bft) NO 53 0 min 0,000 mm 0,0 UV-I 0 W/m 13,3 C 20,6 C 11,3 km/h (2 Bft) 98,00 %
18.05.2017 22:18 20,8 C 23,3 C 62 % 1008,6 hPa 0,0 l/m 7,1 km/h (2 Bft) O-NO 78 0 min 0,000 mm 0,0 UV-I 0 W/m 13,2 C 20,5 C 14,5 km/h (3 Bft) 97,56 %
18.05.2017 22:20 20,7 C 23,3 C 63 % 1008,6 hPa 0,0 l/m 7,6 km/h (2 Bft) NO 40 0 min 0,000 mm 0,0 UV-I 0 W/m 13,4 C 20,2 C 14,5 km/h (3 Bft) 100,00 %
18.05.2017 22:22 20,6 C 23,3 C 63 % 1008,6 hPa 0,0 l/m 8,3 km/h (2 Bft) NO 49 0 min 0,000 mm 0,0 UV-I 0 W/m 13,3 C 19,9 C 14,5 km/h (3 Bft) 96,43 %
18.05.2017 22:24 20,6 C 23,3 C 63 % 1008,6 hPa 0,0 l/m 8,4 km/h (2 Bft) NO 56 0 min 0,000 mm 0,0 UV-I 0 W/m 13,3 C 19,8 C 11,3 km/h (2 Bft) 100,00 %
18.05.2017 22:26 20,6 C 23,3 C 63 % 1008,5 hPa 0,0 l/m 8,6 km/h (2 Bft) O-NO 57 0 min 0,000 mm 0,0 UV-I 0 W/m 13,3 C 19,8 C 12,9 km/h (3 Bft) 96,23 %
18.05.2017 22:28 20,5 C 23,3 C 63 % 1008,5 hPa 0,0 l/m 8,0 km/h (2 Bft) O-NO 71 0 min 0,000 mm 0,0 UV-I 0 W/m 13,2 C 19,9 C 12,9 km/h (3 Bft) 100,00 %
18.05.2017 22:30 20,4 C 23,3 C 63 % 1008,5 hPa 0,0 l/m 9,5 km/h (2 Bft) O 80 0 min 0,000 mm 0,0 UV-I 0 W/m 13,1 C 19,2 C 14,5 km/h (3 Bft) 98,18 %
18.05.2017 22:32 20,4 C 23,3 C 64 % 1008,5 hPa 0,0 l/m 8,9 km/h (2 Bft) NO 55 0 min 0,000 mm 0,0 UV-I 0 W/m 13,4 C 19,4 C 16,1 km/h (3 Bft) 98,00 %
18.05.2017 22:34 20,3 C 23,3 C 64 % 1008,5 hPa 0,0 l/m 9,1 km/h (2 Bft) O-NO 66 0 min 0,000 mm 0,0 UV-I 0 W/m 13,3 C 19,3 C 14,5 km/h (3 Bft) 93,75 %
18.05.2017 22:36 20,3 C 23,3 C 64 % 1008,5 hPa 0,0 l/m 8,9 km/h (2 Bft) O 88 0 min 0,000 mm 0,0 UV-I 0 W/m 13,3 C 19,3 C 14,5 km/h (3 Bft) 91,84 %
18.05.2017 22:38 20,3 C 23,3 C 64 % 1008,5 hPa 0,0 l/m 9,3 km/h (2 Bft) NO 56 0 min 0,000 mm 0,0 UV-I 0 W/m 13,3 C 19,2 C 14,5 km/h (3 Bft) 97,92 %
18.05.2017 22:40 20,3 C 23,3 C 64 % 1008,5 hPa 0,0 l/m 7,0 km/h (2 Bft) O-NO 63 0 min 0,000 mm 0,0 UV-I 0 W/m 13,3 C 20,1 C 12,9 km/h (3 Bft) 100,00 %
18.05.2017 22:42 20,2 C 23,3 C 64 % 1008,4 hPa 0,0 l/m 8,5 km/h (2 Bft) O-NO 63 0 min 0,000 mm 0,0 UV-I 0 W/m 13,2 C 19,4 C 14,5 km/h (3 Bft) 95,45 %
18.05.2017 22:44 20,2 C 23,3 C 65 % 1008,5 hPa 0,0 l/m 8,7 km/h (2 Bft) NO 50 0 min 0,000 mm 0,0 UV-I 0 W/m 13,4 C 19,3 C 12,9 km/h (3 Bft) 98,00 %
18.05.2017 22:46 20,1 C 23,3 C 65 % 1008,4 hPa 0,0 l/m 8,0 km/h (2 Bft) O-NO 70 0 min 0,000 mm 0,0 UV-I 0 W/m 13,3 C 19,5 C 12,9 km/h (3 Bft) 100,00 %
18.05.2017 22:49 20,0 C 23,3 C 66 % 1008,4 hPa 0,0 l/m 8,2 km/h (2 Bft) O-NO 68 0 min 0,000 mm 0,0 UV-I 0 W/m 13,4 C 19,3 C 12,9 km/h (3 Bft) 97,26 %
18.05.2017 22:50 20,0 C 23,3 C 66 % 1008,4 hPa 0,0 l/m 9,5 km/h (2 Bft) O-NO 69 0 min 0,000 mm 0,0 UV-I 0 W/m 13,4 C 18,8 C 12,9 km/h (3 Bft) 94,44 %
18.05.2017 22:52 19,9 C 23,3 C 66 % 1008,4 hPa 0,0 l/m 7,9 km/h (2 Bft) O-NO 77 0 min 0,000 mm 0,0 UV-I 0 W/m 13,4 C 19,3 C 11,3 km/h (2 Bft) 97,56 %
18.05.2017 22:54 19,9 C 23,3 C 66 % 1008,4 hPa 0,0 l/m 10,0 km/h (2 Bft) O-NO 77 0 min 0,000 mm 0,0 UV-I 0 W/m 13,4 C 18,5 C 14,5 km/h (3 Bft) 100,00 %
18.05.2017 22:56 19,8 C 23,3 C 66 % 1008,4 hPa 0,0 l/m 9,8 km/h (2 Bft) O-NO 71 0 min 0,000 mm 0,0 UV-I 0 W/m 13,3 C 18,5 C 12,9 km/h (3 Bft) 98,11 %
18.05.2017 22:58 19,8 C 23,3 C 66 % 1008,4 hPa 0,0 l/m 9,4 km/h (2 Bft) O-NO 59 0 min 0,000 mm 0,0 UV-I 0 W/m 13,3 C 18,6 C 14,5 km/h (3 Bft) 97,37 %
18.05.2017 23:00 19,8 C 23,3 C 66 % 1008,4 hPa 0,0 l/m 9,2 km/h (2 Bft) O-NO 69 0 min 0,000 mm 0,0 UV-I 0 W/m 13,3 C 18,7 C 14,5 km/h (3 Bft) 100,00 %
18.05.2017 23:02 19,8 C 23,3 C 66 % 1008,4 hPa 0,0 l/m 9,2 km/h (2 Bft) O-NO 78 0 min 0,051 mm 0,0 UV-I 0 W/m 13,3 C 18,7 C 12,9 km/h (3 Bft) 98,00 %
18.05.2017 23:04 19,8 C 23,3 C 66 % 1008,4 hPa 0,0 l/m 8,9 km/h (2 Bft) O-NO 74 0 min 0,000 mm 0,0 UV-I 0 W/m 13,3 C 18,8 C 12,9 km/h (3 Bft) 98,00 %
18.05.2017 23:06 19,8 C 23,3 C 66 % 1008,4 hPa 0,0 l/m 10,1 km/h (2 Bft) O-NO 58 0 min 0,000 mm 0,0 UV-I 0 W/m 13,3 C 18,4 C 14,5 km/h (3 Bft) 98,00 %
18.05.2017 23:08 19,8 C 22,8 C 65 % 1008,3 hPa 0,0 l/m 7,5 km/h (2 Bft) O-NO 70 0 min 0,000 mm 0,0 UV-I 0 W/m 13,0 C 19,3 C 11,3 km/h (2 Bft) 93,18 %
18.05.2017 23:10 19,8 C 23,3 C 66 % 1008,3 hPa 0,0 l/m 9,1 km/h (2 Bft) NO 54 0 min 0,000 mm 0,0 UV-I 0 W/m 13,3 C 18,7 C 12,9 km/h (3 Bft) 95,45 %
18.05.2017 23:12 19,8 C 22,8 C 66 % 1008,3 hPa 0,0 l/m 8,8 km/h (2 Bft) O-NO 65 0 min 0,000 mm 0,0 UV-I 0 W/m 13,3 C 18,8 C 12,9 km/h (3 Bft) 94,87 %
18.05.2017 23:14 19,8 C 22,8 C 66 % 1008,3 hPa 0,0 l/m 9,4 km/h (2 Bft) NO 53 0 min 0,000 mm 0,0 UV-I 0 W/m 13,3 C 18,6 C 12,9 km/h (3 Bft) 94,64 %
18.05.2017 23:16 19,8 C 22,8 C 66 % 1008,3 hPa 0,0 l/m 8,7 km/h (2 Bft) O-NO 68 0 min 0,000 mm 0,0 UV-I 0 W/m 13,3 C 18,9 C 12,9 km/h (3 Bft) 97,56 %
18.05.2017 23:18 19,7 C 22,8 C 66 % 1008,3 hPa 0,0 l/m 9,3 km/h (2 Bft) O-NO 76 0 min 0,000 mm 0,0 UV-I 0 W/m 13,2 C 18,6 C 12,9 km/h (3 Bft) 98,21 %
18.05.2017 23:20 19,7 C 22,8 C 66 % 1008,3 hPa 0,0 l/m 9,9 km/h (2 Bft) O-NO 77 0 min 0,000 mm 0,0 UV-I 0 W/m 13,2 C 18,3 C 12,9 km/h (3 Bft) 94,74 %
18.05.2017 23:22 19,6 C 22,8 C 66 % 1008,3 hPa 0,0 l/m 9,0 km/h (2 Bft) O-NO 71 0 min 0,000 mm 0,0 UV-I 0 W/m 13,1 C 18,6 C 12,9 km/h (3 Bft) 94,00 %
18.05.2017 23:24 19,6 C 22,8 C 66 % 1008,3 hPa 0,0 l/m 9,2 km/h (2 Bft) O-NO 72 0 min 0,000 mm 0,0 UV-I 0 W/m 13,1 C 18,5 C 12,9 km/h (3 Bft) 96,23 %
18.05.2017 23:26 19,6 C 22,8 C 66 % 1008,3 hPa 0,0 l/m 9,3 km/h (2 Bft) O-NO 72 0 min 0,000 mm 0,0 UV-I 0 W/m 13,1 C 18,4 C 12,9 km/h (3 Bft) 100,00 %
18.05.2017 23:28 19,6 C 22,8 C 66 % 1008,2 hPa 0,0 l/m 7,1 km/h (2 Bft) O-NO 67 0 min 0,000 mm 0,0 UV-I 0 W/m 13,1 C 19,3 C 11,3 km/h (2 Bft) 92,00 %
18.05.2017 23:30 19,6 C 22,8 C 66 % 1008,2 hPa 0,0 l/m 8,0 km/h (2 Bft) O-NO 59 0 min 0,000 mm 0,0 UV-I 0 W/m 13,1 C 18,9 C 11,3 km/h (2 Bft) 95,12 %
18.05.2017 23:32 19,5 C 22,8 C 67 % 1008,3 hPa 0,0 l/m 7,2 km/h (2 Bft) O-NO 64 0 min 0,000 mm 0,0 UV-I 0 W/m 13,2 C 19,2 C 11,3 km/h (2 Bft) 95,74 %
18.05.2017 23:34 19,4 C 22,8 C 67 % 1008,3 hPa 0,0 l/m 7,7 km/h (2 Bft) O-NO 66 0 min 0,000 mm 0,0 UV-I 0 W/m 13,1 C 18,8 C 9,7 km/h (2 Bft) 96,00 %
18.05.2017 23:36 19,3 C 22,8 C 67 % 1008,2 hPa 0,0 l/m 8,9 km/h (2 Bft) O-NO 69 0 min 0,000 mm 0,0 UV-I 0 W/m 13,0 C 18,3 C 12,9 km/h (3 Bft) 96,23 %
18.05.2017 23:38 19,3 C 22,8 C 67 % 1008,2 hPa 0,0 l/m 7,7 km/h (2 Bft) O-NO 68 0 min 0,000 mm 0,0 UV-I 0 W/m 13,0 C 18,7 C 12,9 km/h (3 Bft) 92,68 %
18.05.2017 23:40 19,3 C 22,8 C 67 % 1008,2 hPa 0,0 l/m 7,6 km/h (2 Bft) O-NO 78 0 min 0,000 mm 0,0 UV-I 0 W/m 13,0 C 18,8 C 9,7 km/h (2 Bft) 92,00 %
18.05.2017 23:42 19,3 C 22,8 C 67 % 1008,2 hPa 0,0 l/m 7,9 km/h (2 Bft) O-NO 69 0 min 0,000 mm 0,0 UV-I 0 W/m 13,0 C 18,7 C 11,3 km/h (2 Bft) 94,74 %
18.05.2017 23:44 19,3 C 22,8 C 67 % 1008,2 hPa 0,0 l/m 6,2 km/h (2 Bft) O-NO 68 0 min 0,000 mm 0,0 UV-I 0 W/m 13,0 C 19,3 C 9,7 km/h (2 Bft) 94,34 %
18.05.2017 23:46 19,2 C 22,8 C 67 % 1008,2 hPa 0,0 l/m 6,7 km/h (2 Bft) O-NO 73 0 min 0,000 mm 0,0 UV-I 0 W/m 12,9 C 19,1 C 9,7 km/h (2 Bft) 91,49 %
18.05.2017 23:48 19,1 C 22,8 C 68 % 1008,2 hPa 0,0 l/m 5,8 km/h (2 Bft) O-NO 67 0 min 0,000 mm 0,0 UV-I 0 W/m 13,1 C 19,1 C 8,0 km/h (2 Bft) 92,00 %
18.05.2017 23:50 19,1 C 22,8 C 68 % 1008,2 hPa 0,0 l/m 4,3 km/h (1 Bft) O-NO 59 0 min 0,000 mm 0,0 UV-I 0 W/m 13,1 C 19,1 C 6,4 km/h (2 Bft) 94,87 %
18.05.2017 23:52 18,8 C 22,8 C 69 % 1008,2 hPa 0,0 l/m 4,2 km/h (1 Bft) O-NO 57 0 min 0,000 mm 0,0 UV-I 0 W/m 13,0 C 18,8 C 6,4 km/h (2 Bft) 92,00 %
18.05.2017 23:54 18,6 C 22,8 C 70 % 1008,2 hPa 0,0 l/m 4,1 km/h (1 Bft) O-NO 57 0 min 0,000 mm 0,0 UV-I 0 W/m 13,0 C 18,6 C 4,8 km/h (1 Bft) 96,00 %
18.05.2017 23:56 18,2 C 22,8 C 72 % 1008,2 hPa 0,0 l/m 4,9 km/h (1 Bft) NO 55 0 min 0,000 mm 0,0 UV-I 0 W/m 13,1 C 18,2 C 6,4 km/h (2 Bft) 95,12 %
18.05.2017 23:58 18,0 C 22,8 C 72 % 1008,2 hPa 0,0 l/m 5,2 km/h (1 Bft) NO 54 0 min 0,000 mm 0,0 UV-I 0 W/m 12,9 C 18,0 C 6,4 km/h (2 Bft) 90,00 %
_ Min-Zeit 06:06 06:08 16:16 23:28 - 03:52 - - - - - - 05:20 05:20 03:52 04:06
Minimum _ 10,3 C 20,6 C 42 % 1008,2 hPa - 0,0 km/h (0 Bft) - - - - - - 8,5 C 10,4 C 0,0 km/h (0 Bft) 82,61 %
_ Max-Zeit 17:12 15:36 05:40 00:00 00:00 21:48 - - 08:43 13:02 12:40 12:54 15:06 17:12 21:40 00:38
Maximum _ 27,2 C 23,3 C 89 % 1015,5 hPa 0,0 l/m 13,7 km/h
O-NO (3 Bft)
- - 3 min 0,584 mm 6,2 UV-I 890 W/m 16,5 C 27,1 C 20,9 km/h
O (4 Bft)
100,00 %
Durchschnitt _ 19,6 C 22,1 C 64 % 1011,8 hPa #0,0 l/m 5,3 km/h (1 Bft) O-NO - #14:34 h #5,410 mm 3,5 UV-I 490 W/m 12,2 C 19,3 C 8,4 km/h (2 Bft) 96,62 %